GFSWCAN_250_rhum_000.txt.gz
RH
13 11 8 11 14 14 11 10 16 11 6 4 5 5 6 8 12 12 18 23 24 28 30 39 39 52 60 68 78 82 74 92 100 100 90 84 100 100 100 88 88 82 80 96 94 100 100 100 100 100 100 100 99 91
11 10 9 12 13 14 10 10 15 10 6 4 5 5 6 7 11 14 19 24 29 27 31 37 47 61 68 69 87 99 100 99 95 90 90 63 79 81 100 94 100 95 83 91 90 98 94 96 100 100 100 100 99 90
11 10 9 11 14 13 10 10 13 10 6 4 6 6 6 7 10 14 18 23 31 26 35 41 56 68 70 74 94 99 96 98 91 70 76 85 90 82 88 92 91 98 94 93 98 92 96 96 96 100 99 100 99 79
11 10 10 11 14 13 10 12 13 10 6 4 6 6 6 6 8 13 21 27 38 31 42 46 58 67 70 76 88 88 84 90 93 94 89 97 91 90 84 80 81 90 94 98 100 100 100 100 100 97 96 93 76 69
12 11 10 11 14 13 10 13 15 10 6 4 5 6 6 6 8 12 22 27 42 42 46 52 64 71 67 80 98 95 82 86 93 94 91 85 86 94 93 91 83 85 91 98 97 100 100 95 100 92 62 62 50 46
13 13 10 10 13 12 10 13 17 11 6 4 5 5 6 6 7 9 15 31 48 62 61 68 71 64 72 95 100 94 84 87 88 90 90 79 60 68 74 44 41 53 64 70 82 96 96 88 70 59 58 42 39 39
15 15 11 10 13 12 9 12 17 11 6 4 5 5 5 6 7 9 18 36 63 65 65 75 78 73 80 92 98 85 99 100 90 86 97 92 69 53 62 50 39 36 37 42 49 55 61 66 65 62 44 38 38 40
16 16 12 11 14 12 10 12 16 11 6 4 5 4 4 5 6 8 15 24 56 75 71 82 77 80 76 89 92 77 90 100 88 96 94 96 80 69 89 60 54 38 36 36 40 51 72 91 88 99 80 69 70 70
18 19 13 12 13 13 10 14 17 11 6 4 4 4 3 4 5 7 13 24 51 83 80 91 77 72 78 83 88 71 78 100 92 98 98 97 85 82 96 84 78 68 62 68 79 95 94 100 100 99 96 96 94 89
19 21 14 13 14 13 10 17 18 13 6 4 4 2 2 2 5 6 9 18 42 65 95 94 88 74 68 76 84 73 73 90 98 94 96 96 97 100 99 91 97 97 100 97 100 100 100 98 97 94 92 86 84 80
21 22 16 13 14 14 11 23 21 16 7 4 4 1 1 3 4 6 7 14 44 74 92 100 97 89 76 76 73 72 75 91 98 92 94 88 95 100 100 100 100 100 100 100 100 100 100 100 100 100 99 98 89 84
21 21 17 14 16 14 13 31 26 20 7 5 5 2 1 3 4 5 6 17 46 79 92 100 100 99 88 81 78 72 66 88 98 82 82 77 77 94 100 100 100 100 100 100 100 100 100 100 99 89 82 83 90 99
22 21 19 16 17 15 14 41 33 23 9 7 6 5 2 3 6 7 8 18 54 81 95 95 94 96 96 99 83 75 77 76 87 95 84 82 82 86 86 86 98 100 100 100 100 100 100 100 100 100 100 100 100 98
22 20 20 19 18 16 13 48 42 29 12 10 7 7 5 4 8 11 11 23 63 69 72 92 97 100 100 90 84 82 82 86 80 74 78 84 88 99 100 100 95 98 90 86 87 92 94 99 98 95 91 85 82 87
23 21 23 22 21 18 14 49 52 37 18 11 9 8 7 5 10 14 18 25 45 55 62 82 97 100 91 93 90 93 89 96 100 94 100 82 75 78 94 100 98 95 91 82 86 86 80 84 82 83 83 87 86 78
23 20 22 25 24 20 14 46 59 50 28 14 13 9 10 6 8 13 22 31 32 39 50 60 89 100 100 99 95 99 100 100 89 85 87 84 75 74 75 88 83 79 76 84 94 99 100 100 94 88 93 98 100 98
22 20 23 26 23 19 16 40 58 57 46 27 15 14 10 11 7 8 12 25 35 30 32 54 71 99 98 100 100 100 100 100 70 70 84 86 87 81 77 74 85 88 91 100 100 100 100 100 90 78 89 96 100 100
21 19 22 29 24 20 16 36 50 62 55 45 32 20 16 12 13 8 8 10 20 28 29 34 53 85 100 100 100 100 93 77 62 59 70 83 88 96 98 97 94 98 100 100 98 93 93 90 85 84 86 99 100 100
21 19 24 28 26 20 17 26 49 55 57 55 49 34 21 21 15 16 11 8 8 14 21 27 44 67 98 100 99 96 97 90 82 76 74 74 81 88 98 100 100 100 100 98 92 85 82 82 86 90 93 92 91 96
20 19 20 25 29 22 18 22 47 53 61 60 60 53 32 22 22 21 15 15 10 8 9 16 32 56 78 96 96 99 100 94 92 93 90 81 78 79 79 82 89 99 100 100 98 95 94 93 99 98 96 100 100 96
22 18 18 30 31 22 19 23 44 49 60 66 75 65 44 27 20 20 21 15 12 12 8 8 19 32 48 72 87 99 100 100 100 100 100 99 92 84 78 74 77 82 81 81 82 82 88 95 98 100 100 100 100 100
19 17 17 25 26 21 20 20 36 45 58 58 60 63 56 32 20 17 16 17 16 10 13 10 8 12 24 37 46 76 97 100 100 100 100 100 100 99 94 85 83 83 86 92 98 99 100 100 100 99 99 100 100 100
18 16 16 24 25 22 23 21 31 43 54 58 56 54 48 34 20 14 14 13 14 13 8 11 11 6 7 15 29 39 57 86 100 100 100 100 100 100 100 100 100 96 93 99 100 100 100 100 100 100 100 100 100 100
17 15 17 25 23 23 22 20 27 44 52 53 52 47 37 23 16 13 11 10 10 10 10 3 8 12 8 6 9 17 32 46 72 95 100 100 100 100 100 100 100 100 99 100 100 100 100 100 100 100 100 100 100 100
16 17 20 24 24 23 23 21 29 42 54 53 49 34 21 15 12 11 10 9 8 8 8 5 1 7 12 10 8 8 19 33 56 80 96 100 100 100 100 100 100 100 100 100 100 100 99 99 99 99 98 94 93 94
15 18 22 23 22 22 23 27 39 50 53 48 36 23 14 11 10 10 8 8 6 6 5 6 2 1 8 12 11 9 9 18 39 56 87 99 100 100 100 100 100 100 100 100 100 100 100 100 100 100 98 94 91 89
16 20 24 22 22 25 29 36 51 56 55 42 23 12 11 11 10 8 7 6 4 4 4 4 4 1 3 9 11 11 8 9 15 34 58 77 90 99 100 100 100 100 100 100 100 100 100 100 100 100 95 91 88 89
20 28 26 23 23 26 33 49 57 54 42 24 13 10 11 10 7 6 5 4 4 4 4 4 4 3 3 7 10 11 11 9 9 13 26 50 76 84 90 96 100 100 100 100 100 100 99 98 98 94 90 87 86 89
25 25 23 22 26 35 49 58 56 47 27 19 12 11 10 7 5 4 4 4 3 3 3 4 4 5 5 6 7 10 12 12 11 7 8 14 32 62 77 80 83 90 97 99 100 99 100 98 94 92 86 89 92 89
20 22 24 28 39 53 60 60 52 31 23 17 13 11 8 5 4 3 3 3 3 3 3 3 4 5 5 5 6 9 12 13 13 12 9 9 10 20 37 52 65 70 71 75 80 79 79 76 72 72 74 74 68 58
22 25 33 46 55 63 61 53 37 32 23 16 12 9 5 4 3 3 3 3 3 3 3 3 4 4 5 5 5 7 10 12 12 13 12 13 14 17 20 24 31 40 48 56 67 73 71 70 70 68 64 60 50 47
31 39 54 61 63 61 58 51 40 28 21 15 10 6 4 4 3 3 3 3 3 3 3 4 4 4 5 5 6 6 8 11 11 13 15 15 15 17 20 24 29 38 46 55 64 69 71 71 67 61 54 51 48 44
50 64 66 61 61 62 53 46 32 24 20 12 6 5 4 4 4 3 4 4 4 3 4 5 5 5 5 5 6 6 7 9 10 11 13 15 17 19 21 23 24 27 33 40 45 48 51 51 47 41 38 39 40 37

GFSWCAN_250_rhum_003.txt.gz
RH
11 11 11 13 11 10 11 15 13 12 9 17 10 6 6 6 8 11 13 15 16 17 18 17 20 22 33 48 59 96 99 98 90 80 65 65 60 66 78 100 99 100 100 100 86 79 81 100 100 100 100 100 100 100
12 12 11 13 11 10 11 16 13 13 9 19 13 7 7 7 7 10 12 15 20 21 23 23 24 29 33 40 61 88 90 85 71 59 63 70 74 74 81 100 100 100 100 100 100 96 98 91 95 100 100 100 100 100
12 12 12 12 12 10 12 16 15 12 10 17 16 8 6 8 7 11 12 18 24 32 30 28 28 40 38 44 59 76 80 66 60 72 70 75 77 86 88 98 100 100 100 100 100 99 100 97 90 93 98 100 100 100
13 14 13 13 11 10 11 16 15 12 10 14 16 8 5 7 7 10 13 16 25 35 42 33 30 44 58 70 69 64 73 66 55 69 86 75 64 73 80 69 79 86 99 100 100 100 100 100 100 96 94 88 98 92
16 15 14 13 11 11 10 15 15 13 10 13 15 7 5 6 6 8 11 15 20 31 47 45 50 63 64 62 74 83 82 66 70 84 87 86 84 82 75 71 76 83 96 100 100 100 98 100 100 100 100 95 94 69
18 16 14 14 12 11 10 14 14 12 10 14 13 7 4 6 6 6 9 12 18 34 49 54 53 65 70 73 95 95 80 63 72 76 80 72 85 90 83 61 63 62 80 82 87 86 100 96 100 100 100 88 76 66
19 14 16 14 12 13 10 14 14 11 9 15 12 6 4 6 6 7 10 13 20 33 51 58 74 70 77 84 98 82 76 80 76 71 83 98 88 74 66 62 75 60 49 54 62 69 74 89 91 100 93 75 67 65
19 15 18 14 14 15 11 14 14 11 8 16 11 5 4 5 5 6 8 10 15 32 50 76 87 74 79 95 92 72 76 81 77 74 88 93 79 80 76 62 54 40 37 41 44 55 64 87 100 96 85 73 64 70
16 18 16 14 16 17 13 13 14 11 8 16 9 5 4 2 3 6 7 8 11 20 48 82 90 79 79 92 94 76 85 86 78 73 81 89 80 81 77 82 69 47 41 41 44 49 49 64 76 85 98 98 93 95
16 20 15 16 18 18 14 14 14 11 8 16 9 4 4 1 2 3 6 9 9 18 44 76 86 87 85 94 92 79 92 99 87 78 78 74 78 81 91 90 94 88 62 64 76 84 81 86 88 91 98 93 88 83
18 18 16 18 20 19 16 14 15 12 7 14 12 5 4 1 2 2 6 9 15 23 35 61 80 90 95 95 91 75 80 96 99 96 91 79 84 82 86 94 100 100 100 98 96 89 89 95 98 93 86 80 80 83
20 16 17 20 22 21 18 14 16 13 9 15 16 6 5 1 3 3 8 11 18 26 38 47 71 95 100 97 94 84 76 83 98 99 97 96 93 84 90 99 100 95 94 93 96 94 93 94 93 87 80 80 78 79
18 17 20 23 24 22 18 15 17 15 14 18 21 7 6 3 5 6 10 11 17 26 28 38 70 98 100 100 96 85 77 76 83 90 96 99 99 99 99 100 100 98 100 100 100 100 100 100 100 100 99 100 99 95
20 19 22 25 24 23 19 17 18 18 21 28 29 13 7 5 4 10 18 19 19 22 23 34 58 90 95 94 93 96 88 78 89 93 99 97 86 92 99 98 100 100 96 95 99 100 100 100 100 100 100 100 100 100
21 20 24 24 24 24 21 18 19 20 22 40 36 27 11 8 7 6 16 26 27 28 24 30 43 81 85 92 86 88 91 82 87 85 100 100 96 92 100 100 100 98 97 100 100 100 97 98 97 98 92 84 86 80
22 22 25 24 24 24 22 18 20 21 21 50 49 45 22 13 8 8 7 13 22 24 26 25 38 64 93 90 92 93 98 96 78 77 92 100 100 97 99 100 100 100 100 100 99 99 99 97 98 90 85 98 100 100
23 24 24 24 24 25 24 18 18 22 19 46 63 55 41 23 16 9 9 10 10 14 19 23 31 54 85 100 100 100 100 95 74 71 78 88 96 99 93 89 100 100 100 100 99 96 97 96 100 100 100 100 100 100
23 25 25 25 24 25 23 18 16 22 20 30 67 72 66 38 27 25 15 8 10 11 11 16 26 39 73 99 100 95 88 81 80 78 81 92 92 100 100 100 100 99 100 100 100 100 98 96 95 94 95 100 99 99
23 24 25 24 24 26 24 19 16 23 23 20 50 73 75 73 48 33 34 27 15 10 9 10 16 28 44 84 100 100 95 85 76 81 86 81 90 92 91 93 96 90 89 100 100 100 100 100 97 98 100 100 96 88
23 24 24 23 24 25 26 22 16 21 24 20 30 55 71 75 74 56 44 38 35 30 16 10 10 16 26 36 71 99 95 97 84 85 93 94 82 77 83 92 97 100 100 100 100 100 100 100 100 100 100 100 99 95
24 23 21 22 23 25 25 21 17 20 25 22 20 35 54 75 78 76 67 51 40 31 33 26 16 10 11 17 27 39 74 93 98 90 91 100 100 100 89 81 83 90 100 100 100 100 100 100 100 100 100 100 97 97
21 20 21 23 23 26 23 18 17 22 28 26 23 29 49 70 76 77 71 62 52 38 28 24 27 20 12 9 10 21 30 47 87 98 95 99 100 100 96 95 100 98 96 100 100 100 100 100 100 100 100 100 100 100
19 19 20 22 25 26 23 17 16 21 27 25 23 24 41 62 72 74 72 61 52 41 30 21 17 20 20 12 10 9 14 23 36 76 99 100 100 100 100 100 100 100 98 100 100 100 100 100 100 100 100 100 100 100
19 20 22 23 24 24 20 16 17 23 23 22 22 24 41 54 61 70 70 60 53 40 26 15 11 13 16 16 13 11 9 10 14 32 62 96 100 100 100 100 100 100 100 99 99 100 100 100 100 100 100 100 100 99
19 20 24 24 24 21 16 15 19 22 22 21 21 26 39 52 64 68 57 49 39 24 14 10 9 10 12 13 14 13 10 10 9 11 22 47 77 99 100 100 100 100 100 100 100 100 100 100 100 100 100 100 98 93
21 24 23 23 21 16 16 19 22 22 20 20 23 26 37 59 64 57 48 35 17 11 10 9 8 8 9 11 12 12 12 8 8 10 10 15 34 74 99 100 100 100 100 100 100 100 100 100 100 100 100 100 100 99
22 24 23 20 16 16 18 20 22 20 20 21 22 32 58 66 64 51 31 14 10 9 8 7 6 6 6 7 9 9 9 9 4 7 10 10 12 21 45 86 100 100 100 100 100 100 100 100 100 100 100 100 100 93
21 22 20 17 16 17 19 23 22 21 21 23 36 60 66 59 50 27 13 10 8 6 5 4 4 4 4 5 6 7 8 8 5 2 6 12 13 13 16 34 60 89 97 100 100 100 100 100 100 100 100 100 100 98
19 18 16 16 15 17 22 22 21 21 23 38 64 69 60 48 27 13 10 8 6 4 4 3 3 4 4 4 4 5 6 6 6 2 2 9 14 14 14 14 30 74 88 94 99 100 100 100 100 100 100 100 94 93
16 15 16 14 15 20 22 21 22 24 35 62 77 68 52 30 14 12 8 6 4 4 3 3 3 3 3 3 4 4 5 5 5 2 2 7 14 14 14 16 16 28 55 76 81 85 91 99 99 98 93 89 88 87
13 12 11 13 19 20 20 22 27 38 60 81 78 59 36 16 12 10 6 5 4 3 3 3 3 3 3 3 4 4 5 6 5 4 3 7 14 16 16 15 18 20 23 28 45 60 71 76 77 81 81 78 76 77
8 9 16 18 18 20 24 34 45 59 77 77 64 40 20 14 12 7 5 4 4 4 4 3 3 3 3 3 4 4 5 6 6 6 6 9 13 15 17 17 16 17 18 17 15 14 16 19 22 27 35 40 41 41
13 18 19 20 23 27 37 54 68 78 74 63 45 26 14 13 10 6 6 5 4 4 4 4 4 3 3 3 4 4 4 5 6 7 7 8 9 12 16 19 21 20 18 18 19 18 17 17 19 22 24 27 28 28

GFSWCAN_250_rhum_009.txt.gz
RH
12 10 11 11 10 12 15 13 12 14 14 16 23 21 18 18 17 21 9 9 10 17 19 18 36 57 66 80 90 96 100 95 90 78 92 97 100 95 100 99 100 100 87 72 74 79 79 83 90 99 100 99 100 100
12 10 12 11 10 12 14 13 12 13 13 14 19 22 20 19 19 27 11 9 9 14 17 18 19 37 62 81 90 98 100 97 88 83 95 100 99 98 100 98 99 99 93 86 72 99 80 89 99 91 100 95 100 100
11 11 12 12 11 12 13 14 12 12 12 14 17 19 18 17 22 30 11 8 9 11 19 20 20 23 43 63 82 95 99 100 91 90 94 96 98 95 78 93 95 91 87 68 69 79 92 90 94 90 92 98 99 100
12 12 11 12 11 12 14 14 12 11 12 12 14 16 15 17 20 28 10 7 9 8 14 19 19 21 25 52 71 86 97 100 100 100 92 91 95 90 84 92 94 92 90 82 67 66 73 75 70 78 79 91 100 100
13 12 12 12 13 12 14 14 12 10 12 11 13 14 13 14 20 21 8 6 8 7 13 20 20 19 23 29 58 68 90 100 100 99 91 92 95 95 96 99 100 94 97 88 77 68 64 63 64 70 78 82 94 97
14 13 12 12 14 13 14 14 13 12 12 10 12 13 12 12 16 13 6 6 7 7 11 20 23 20 23 28 36 59 74 97 97 95 94 88 92 97 99 100 90 80 87 88 75 72 68 60 68 70 79 82 97 85
13 14 12 12 12 13 16 16 15 12 12 11 12 12 11 12 15 7 5 4 6 6 10 20 22 22 24 30 36 50 65 80 88 100 99 100 99 100 99 79 69 84 92 94 84 70 70 57 61 69 84 82 86 83
13 13 13 13 13 15 18 20 17 12 11 11 13 11 11 12 13 5 4 3 4 6 9 17 24 25 28 31 40 47 56 65 80 96 100 97 98 96 78 78 90 90 79 71 70 63 62 59 64 69 72 76 75 75
13 13 13 13 14 17 19 21 18 14 12 11 15 12 12 14 9 4 2 1 3 7 10 18 24 24 34 38 42 46 56 66 80 93 100 96 90 82 95 90 94 84 88 90 71 51 43 42 50 59 62 61 58 77
12 14 13 14 16 17 20 23 18 15 14 12 17 13 12 13 6 3 1 1 4 8 11 17 26 33 42 44 46 50 56 64 78 84 85 89 86 100 88 91 100 97 83 61 44 39 39 43 43 46 56 60 65 68
14 15 14 15 18 19 22 24 19 16 15 15 18 14 13 16 6 4 2 3 6 7 10 16 26 35 47 52 56 55 60 68 75 89 95 96 100 97 100 100 100 98 90 55 45 44 46 50 51 56 63 78 76 92
14 14 14 17 19 21 23 26 21 18 17 19 21 16 13 23 11 6 4 6 7 8 10 13 25 40 49 60 66 66 75 86 99 92 98 98 100 100 100 100 100 100 89 76 69 71 76 77 72 73 92 100 100 100
14 12 14 18 21 24 26 26 21 19 20 22 21 18 13 25 20 8 7 6 7 10 12 16 27 42 54 63 78 83 89 92 91 97 100 98 100 100 100 100 100 100 100 100 98 98 100 100 100 100 100 100 100 100
12 14 16 17 20 24 28 28 23 20 24 27 22 21 12 14 35 18 11 8 10 13 15 20 28 37 47 60 76 88 90 82 90 91 92 100 99 100 100 100 100 100 100 100 100 100 100 100 100 100 100 100 100 100
15 15 16 17 20 24 29 29 24 22 28 29 24 23 16 17 18 39 27 12 11 11 13 22 28 36 48 61 71 88 97 92 95 91 94 99 97 100 100 100 100 100 100 100 99 99 100 100 100 100 100 100 100 100
14 16 18 19 19 25 29 28 24 24 29 30 27 22 20 20 22 23 44 32 13 12 17 18 24 36 47 59 68 86 93 100 97 91 95 100 94 99 100 100 99 98 98 100 100 100 100 98 99 100 100 100 100 100
15 16 19 18 21 25 27 25 25 26 32 30 29 24 20 21 24 22 28 49 41 20 11 17 23 25 36 53 71 78 81 83 88 92 96 97 95 92 97 98 100 100 100 100 100 100 100 100 100 100 100 100 100 100
15 14 16 17 22 23 23 24 24 26 32 30 29 24 21 20 28 26 23 26 43 51 34 13 16 23 30 40 57 68 66 73 78 85 98 100 100 98 93 88 92 92 91 95 99 99 97 98 100 99 99 100 100 95
14 14 16 19 22 21 23 24 24 27 32 30 29 25 21 20 21 31 27 21 24 37 52 45 20 15 20 32 39 42 51 65 71 69 80 94 98 100 99 94 86 86 92 95 94 92 91 89 88 89 90 92 90 81
14 15 17 20 21 21 23 22 24 25 30 31 29 27 23 22 20 22 32 30 23 22 33 49 60 46 20 18 23 24 29 43 63 84 76 76 86 91 98 100 97 90 84 82 86 94 97 98 98 97 95 94 96 93
16 16 18 19 19 20 21 21 22 24 29 29 27 26 26 25 22 20 23 29 30 25 28 32 38 49 59 50 25 14 17 21 23 40 63 90 82 77 82 87 92 96 97 94 88 83 85 90 91 94 99 100 98 99
18 18 17 17 19 19 20 21 20 22 27 26 25 24 24 25 24 22 21 26 28 32 28 22 22 29 36 48 57 58 38 20 16 20 26 36 50 72 77 78 79 85 89 93 95 96 92 90 95 98 97 100 100 100
19 17 16 17 17 18 20 20 19 24 26 22 21 20 21 22 22 22 21 22 29 34 29 24 22 21 26 33 38 43 48 54 59 54 34 20 19 36 49 48 64 85 82 78 85 94 98 95 98 100 100 100 100 100
17 17 16 16 17 18 19 18 21 25 25 20 18 19 20 20 21 22 19 18 23 25 27 26 24 23 22 24 27 32 39 45 48 49 55 62 64 49 26 24 43 61 58 60 80 79 77 84 91 96 94 98 100 100
18 17 17 16 18 19 19 19 21 23 22 19 19 19 19 21 22 23 19 18 19 20 22 22 21 22 23 25 26 26 30 38 46 55 55 54 52 57 59 64 48 26 30 54 71 64 66 73 80 89 97 100 100 100
17 17 17 17 17 17 16 18 20 22 20 19 20 19 20 21 22 22 18 16 18 20 22 21 21 21 22 23 25 31 42 48 55 57 41 38 42 37 28 28 43 59 50 28 22 42 73 74 70 75 86 100 100 100
9 15 17 17 17 16 18 21 23 21 19 20 20 20 20 21 22 18 17 17 18 20 22 22 21 21 21 25 38 53 54 48 37 26 16 12 13 14 14 14 16 24 34 40 31 21 25 48 79 89 90 94 98 100
10 15 14 14 17 21 22 22 20 18 19 19 18 18 21 21 20 17 17 16 18 21 21 20 19 19 24 39 48 44 28 17 11 9 8 8 7 8 9 10 12 14 18 24 26 28 25 27 42 67 87 95 97 99
11 12 13 17 21 22 20 17 16 19 20 18 18 20 20 19 17 16 15 16 19 19 19 18 19 30 45 48 30 14 11 9 7 5 5 5 5 5 6 9 10 11 14 18 20 26 29 27 30 42 61 82 89 94
8 12 18 22 21 20 18 18 19 18 18 18 20 21 19 17 15 14 14 16 18 19 18 22 36 43 32 17 10 9 7 5 4 3 3 4 4 4 4 6 9 11 14 16 18 25 30 31 27 33 43 59 81 89
16 20 21 20 18 18 18 18 17 16 18 20 22 19 16 13 13 14 16 18 18 20 28 40 44 33 14 10 8 6 4 3 3 3 3 3 3 3 4 5 8 11 14 16 19 30 37 37 31 33 42 56 73 81
19 19 19 18 18 19 18 16 17 18 19 19 16 14 12 11 13 16 17 18 22 33 42 38 20 12 11 9 6 4 3 3 3 3 3 3 3 3 4 5 7 12 15 17 23 31 35 38 38 37 39 44 54 62
18 18 18 18 17 17 17 17 18 18 16 15 12 10 11 14 16 18 20 27 36 41 31 18 14 12 8 5 4 4 3 3 3 3 3 3 3 3 4 5 6 10 15 18 24 28 33 37 41 40 41 44 52 59

GFSWCAN_250_rhum_012.txt.gz
RH
14 12 12 12 12 13 11 12 12 14 15 15 14 16 14 18 21 17 11 13 29 16 16 24 28 49 66 68 77 86 96 98 99 98 93 99 86 74 66 72 83 97 97 100 99 90 82 86 74 84 86 91 87 96
12 12 12 12 12 12 11 12 12 14 16 15 13 14 16 18 22 19 15 12 20 29 12 17 20 32 54 67 76 83 92 96 91 93 92 88 93 79 77 75 83 98 98 100 100 95 90 82 71 76 70 74 80 90
11 11 12 12 13 12 12 12 13 14 17 13 11 12 13 16 20 19 15 15 21 31 17 11 19 19 37 60 73 86 90 91 85 80 80 81 86 90 95 86 80 100 100 93 94 86 90 86 67 62 62 63 74 87
12 12 12 13 13 13 12 12 13 15 16 12 11 11 11 14 16 16 13 14 21 29 19 10 11 20 19 49 85 83 92 94 83 74 70 82 80 90 98 89 96 100 100 99 100 98 92 75 64 57 62 61 72 92
12 12 13 14 14 13 12 11 12 14 14 11 10 10 10 11 14 12 10 12 20 20 10 8 9 16 17 22 72 91 86 94 94 76 70 75 78 84 97 100 93 89 98 100 99 95 90 75 68 70 66 70 74 88
13 13 13 13 15 14 12 12 13 13 13 11 10 9 9 10 12 9 7 12 12 7 7 7 9 14 19 19 29 72 92 94 100 99 77 70 76 89 95 100 88 87 86 99 100 94 79 70 71 68 68 68 79 86
12 12 12 12 14 13 12 12 13 13 14 12 10 9 8 10 10 7 7 8 5 5 5 7 9 14 18 19 21 38 74 99 100 100 100 88 84 90 88 83 93 100 100 100 100 79 74 83 77 70 68 69 85 87
12 12 12 13 14 14 12 12 13 13 15 12 9 9 8 10 8 6 9 5 3 4 4 8 9 15 21 22 22 26 43 82 100 100 100 99 99 99 83 100 100 100 98 87 78 75 68 68 78 70 67 74 89 85
10 11 13 12 12 14 13 12 13 16 16 14 9 10 10 10 8 8 8 3 2 2 5 8 10 14 23 24 23 26 30 45 89 98 100 100 100 94 97 100 100 83 87 81 82 71 68 73 66 72 66 70 78 80
10 11 11 12 11 12 12 15 14 16 17 16 10 12 11 11 9 11 6 2 1 1 4 8 12 18 29 31 28 30 32 36 51 80 95 91 96 96 100 100 95 96 88 81 72 79 66 53 49 46 46 52 67 74
8 11 12 13 12 12 14 15 16 16 17 19 10 13 11 14 10 14 8 4 3 5 10 12 17 24 36 38 33 34 37 38 44 57 73 77 78 91 99 100 100 89 82 89 82 79 65 44 43 45 49 53 62 64
9 9 10 13 13 13 14 15 18 20 20 21 12 14 13 16 13 14 9 6 5 8 13 17 23 29 41 41 41 39 42 44 51 55 58 65 75 92 100 100 97 80 91 94 98 83 51 60 61 50 51 69 79 82
9 10 10 13 14 15 15 15 17 23 24 23 15 16 15 18 18 15 20 8 9 10 13 19 26 34 41 50 55 52 46 52 59 61 68 80 87 100 100 100 88 92 91 95 98 79 76 72 70 81 84 96 100 100
9 10 10 11 14 16 16 16 16 23 25 24 17 19 16 20 21 21 30 24 11 12 14 19 26 37 42 54 68 78 63 67 72 78 70 83 94 100 100 100 94 96 98 100 100 100 86 83 79 81 89 95 95 95
10 12 12 13 16 19 17 17 18 22 27 23 18 23 21 21 22 19 21 37 19 14 14 18 24 30 38 49 62 72 82 70 74 83 83 98 100 100 100 100 100 100 100 100 100 100 98 94 88 95 98 96 98 100
12 14 13 15 18 18 17 16 18 22 26 23 20 24 25 24 24 23 19 24 44 20 16 19 21 28 38 47 56 67 82 89 89 87 89 100 100 100 100 100 100 99 100 100 100 100 100 100 93 88 91 99 100 100
16 16 15 16 16 17 18 17 20 23 23 23 22 25 28 28 27 25 22 19 25 52 34 18 19 21 32 48 58 63 72 77 89 93 96 98 99 100 100 100 100 100 97 97 97 96 100 100 100 96 100 96 96 98
17 17 16 16 16 18 19 18 22 22 22 23 22 24 30 29 30 27 23 22 21 24 54 59 24 17 19 35 46 47 50 63 80 83 95 99 99 100 100 100 100 100 100 98 94 99 97 95 96 96 92 93 97 97
18 18 16 17 17 18 19 19 21 22 22 22 21 26 30 30 29 29 24 23 22 21 22 36 62 41 19 16 15 17 29 40 58 86 86 86 90 97 99 100 100 100 100 100 100 95 98 100 100 99 95 90 88 90
19 18 16 17 17 17 18 19 20 21 21 20 21 24 28 30 31 29 26 23 24 20 20 23 30 55 71 45 21 22 18 19 31 46 67 89 88 85 88 92 99 100 100 100 100 100 100 98 94 98 100 100 100 100
18 17 17 17 17 18 18 20 20 20 20 20 21 24 27 29 30 29 26 23 24 24 22 20 23 23 28 48 69 51 21 19 21 22 24 37 59 93 96 91 95 98 100 100 100 100 100 100 100 100 100 100 100 100
18 18 18 18 18 18 20 22 21 20 19 20 22 23 25 27 28 28 24 21 21 24 23 20 19 23 24 23 31 49 64 59 38 20 18 26 32 34 40 56 86 94 93 97 100 100 100 100 100 100 100 100 100 100
20 19 18 17 18 19 21 21 21 19 19 20 22 24 23 25 28 27 23 20 20 22 21 21 19 18 21 21 20 21 28 41 60 63 52 35 20 18 25 39 48 50 51 65 84 94 94 97 100 100 100 100 100 100
18 18 17 17 20 22 21 21 19 18 19 21 23 23 22 26 28 25 20 18 20 20 20 20 19 17 16 19 20 20 20 21 21 28 44 58 62 60 54 37 23 26 34 41 52 63 67 70 82 95 100 100 100 100
18 18 20 22 22 23 22 21 19 19 19 19 21 21 21 23 24 22 18 17 18 18 19 20 20 17 16 17 18 19 20 22 23 21 19 24 31 40 48 58 64 69 70 56 33 27 31 38 55 71 78 79 83 96
18 18 21 23 23 22 22 20 18 18 18 19 20 20 19 20 21 20 18 18 17 17 18 19 18 16 15 16 18 19 20 20 21 20 20 22 27 36 41 43 47 53 61 69 79 86 81 64 42 31 36 54 72 88
18 23 23 23 23 22 21 20 19 19 19 19 19 18 18 20 21 19 19 18 17 18 18 18 16 14 14 15 16 17 18 18 19 20 22 28 35 44 53 58 58 54 50 52 63 73 80 90 90 86 78 54 40 42
21 23 23 22 22 22 20 19 18 18 18 17 16 17 20 21 20 19 18 18 19 18 18 18 16 14 14 14 15 16 17 18 21 29 38 44 44 45 44 43 39 34 30 26 29 33 39 51 64 74 84 89 86 66
21 21 22 22 21 18 10 10 14 17 17 17 18 21 22 19 18 17 18 18 19 19 17 17 14 13 14 14 15 16 20 32 45 41 41 39 27 18 16 13 12 12 11 11 12 14 17 21 26 42 62 65 73 84
19 20 21 22 21 11 7 10 14 14 14 18 21 20 17 16 16 18 19 19 19 17 16 14 13 13 14 15 18 30 40 47 42 30 21 13 11 9 8 6 5 5 5 6 6 8 10 13 17 24 36 44 50 65
16 17 17 18 11 6 8 11 12 14 18 20 20 18 17 17 17 18 18 18 17 16 13 12 13 14 15 24 40 44 35 25 17 11 9 7 5 4 4 4 3 3 4 4 5 6 8 11 15 18 21 29 38 53
16 15 11 4 3 4 6 9 14 18 19 19 18 17 18 18 16 16 15 16 13 11 12 14 15 19 36 45 44 36 21 11 9 7 4 4 3 3 3 3 3 3 3 4 4 5 7 10 13 15 22 30 39 48
5 2 1 2 2 6 12 17 18 19 18 18 18 18 17 16 16 16 14 10 10 13 15 17 28 43 43 38 24 14 10 8 6 4 3 3 3 3 3 3 3 3 3 4 5 6 8 11 15 20 27 33 38 43

GFSWCAN_250_rhum_015.txt.gz
RH
9 8 8 10 10 10 11 12 13 13 12 12 13 15 13 13 14 17 17 13 12 13 26 29 18 26 73 74 72 92 100 91 89 91 99 97 90 78 70 64 69 76 87 89 91 90 95 92 94 80 77 69 68 70
8 8 9 10 10 10 11 12 13 13 13 12 12 12 12 12 15 18 18 17 16 12 12 21 28 15 23 79 91 78 93 95 90 82 88 86 82 87 73 68 64 73 87 92 97 100 95 91 96 90 82 69 67 63
8 9 9 10 10 11 12 12 14 14 13 12 12 12 11 10 13 17 17 16 17 16 10 11 23 25 14 22 67 93 81 98 99 92 91 84 82 84 76 71 64 66 76 91 95 100 96 100 99 97 89 80 76 67
8 8 10 10 10 12 12 12 15 15 12 12 11 10 10 9 12 15 14 13 15 15 11 10 17 21 12 13 28 70 92 85 94 100 98 100 93 90 82 79 62 61 68 78 90 100 100 100 100 100 93 87 88 88
8 8 9 10 11 11 12 11 14 14 11 12 10 9 8 8 11 11 10 10 12 10 11 11 16 12 10 10 18 39 71 92 86 93 95 98 100 97 84 91 57 67 69 93 93 97 100 100 100 98 93 100 100 97
8 8 9 10 9 10 11 12 13 12 11 11 9 9 7 8 10 8 8 9 8 9 10 10 10 7 7 9 16 22 42 89 96 92 89 85 97 91 82 73 77 89 87 98 100 94 100 88 90 96 100 100 90 100
8 8 8 8 8 9 10 12 12 12 12 11 9 9 7 8 10 7 7 8 8 8 5 4 5 5 7 8 13 22 31 61 100 100 89 80 87 84 75 77 98 85 86 93 80 64 58 72 78 77 79 84 96 93
7 7 7 7 8 8 9 12 12 11 11 11 9 8 7 8 9 6 8 9 8 4 3 2 4 5 7 9 16 23 22 40 90 100 96 84 79 84 76 79 85 95 97 89 73 78 96 100 99 84 75 71 78 83
7 6 7 7 7 8 9 11 11 10 10 11 10 9 8 9 9 7 9 8 7 4 2 2 2 5 8 10 19 26 25 24 54 87 100 95 86 84 75 77 77 89 90 97 100 100 99 94 79 78 67 72 67 68
7 7 7 7 7 7 10 11 12 11 11 11 11 11 8 10 9 8 10 8 8 4 2 2 4 8 10 14 21 26 28 25 28 58 80 100 100 96 86 85 85 90 90 93 92 94 89 75 70 66 73 52 43 54
6 6 7 7 7 8 8 10 14 12 12 11 13 13 10 12 10 9 11 11 8 5 4 5 7 10 14 20 28 32 30 27 25 27 49 92 100 100 96 92 92 88 93 95 90 86 78 75 79 75 48 38 41 43
6 7 7 7 7 8 9 12 13 12 11 12 14 16 13 14 13 12 12 12 12 8 7 8 11 16 25 32 38 39 32 28 29 29 34 64 93 100 100 100 100 99 98 96 86 84 82 94 88 59 50 47 39 49
7 8 8 8 9 9 10 12 13 13 13 14 16 21 17 14 18 15 16 12 23 16 11 12 15 23 29 32 40 46 40 32 34 34 33 38 52 90 100 100 100 100 94 88 86 89 99 99 81 57 56 59 55 62
7 8 8 8 9 10 10 13 15 13 14 14 18 24 19 15 19 18 18 16 22 29 13 15 18 27 34 40 51 52 48 47 40 44 44 44 46 59 79 97 99 93 88 86 84 91 100 92 86 73 69 83 87 90
8 9 10 10 10 11 11 12 14 14 13 16 21 24 20 16 21 20 21 20 19 34 29 15 16 22 32 44 49 61 64 57 51 51 58 63 66 68 71 74 82 97 96 87 84 96 94 100 100 91 89 92 94 96
10 12 11 12 12 12 14 14 16 15 15 18 24 25 20 17 22 22 22 22 22 22 41 24 18 18 24 37 51 57 61 64 68 62 67 70 76 81 90 98 100 100 94 91 93 96 97 93 95 100 100 98 91 88
13 13 14 15 16 15 15 16 16 17 17 20 23 23 19 19 22 22 22 26 22 23 26 49 30 23 21 28 38 50 49 52 74 82 78 74 78 84 92 100 100 100 100 97 99 96 97 97 96 98 100 100 100 93
16 16 17 16 16 16 16 17 18 20 20 20 21 21 20 19 22 24 24 25 27 23 25 31 54 60 30 26 27 25 24 36 54 77 98 93 74 80 90 97 99 100 100 100 98 95 100 100 100 100 98 96 96 95
19 20 19 18 19 18 19 20 20 20 20 20 20 19 20 19 23 24 26 25 27 26 23 24 29 34 55 61 37 22 25 25 27 42 63 84 98 96 86 96 97 99 98 98 98 98 100 100 100 100 100 100 100 100
20 21 22 20 20 20 21 21 22 21 19 20 20 20 20 20 23 23 25 25 29 29 26 24 24 22 29 35 49 55 41 22 21 27 24 27 49 80 94 98 96 100 100 100 100 98 94 98 100 100 100 100 100 100
22 21 20 22 22 21 21 22 22 22 20 20 20 20 20 22 21 22 25 24 26 30 30 27 26 25 23 21 28 30 43 60 50 24 18 27 38 33 39 62 88 93 100 100 100 99 99 100 100 100 100 100 100 100
20 21 22 23 22 22 23 22 21 21 22 20 20 20 21 22 21 22 23 25 24 30 31 27 25 25 25 23 20 21 30 29 36 54 54 29 20 26 42 38 37 53 73 87 94 99 99 97 100 100 100 100 100 100
20 22 22 21 22 25 24 21 20 19 20 19 19 20 21 20 21 21 23 22 22 29 29 26 24 23 22 22 22 20 19 21 27 26 31 44 53 47 33 22 24 34 45 47 52 60 71 80 91 97 100 100 100 100
18 19 22 22 24 25 22 21 21 20 20 20 20 20 20 20 20 22 21 19 20 25 26 25 22 20 18 18 20 21 21 20 18 22 24 24 25 32 50 56 55 33 21 20 31 50 57 65 70 73 78 83 89 96
14 17 20 24 24 22 20 21 21 20 20 20 21 21 20 20 20 22 21 18 21 22 24 24 23 19 18 17 18 20 22 21 19 17 19 23 23 23 23 24 36 52 62 69 55 33 24 24 34 48 69 89 98 99
14 18 22 24 23 22 22 22 21 21 20 22 23 22 20 20 21 21 19 20 19 19 21 23 22 19 18 18 18 18 19 19 18 16 15 18 20 21 21 22 23 24 30 44 58 70 77 76 67 53 42 38 38 45
15 21 22 21 20 21 21 20 21 22 23 24 23 21 19 18 18 18 19 19 18 18 19 21 21 19 18 18 18 18 18 18 17 16 15 15 17 19 21 22 22 21 23 31 38 45 55 67 78 87 89 85 79 79
16 18 18 17 19 20 20 20 21 23 24 24 23 20 19 18 17 18 18 17 17 18 20 19 18 17 17 17 17 17 17 17 16 14 15 16 17 18 19 20 20 21 22 27 37 46 50 52 58 64 69 75 83 87
15 16 16 17 18 19 20 22 22 23 25 24 22 19 18 17 18 18 18 18 19 21 19 18 17 16 17 17 17 16 15 14 13 14 16 16 15 16 21 22 27 33 36 36 41 48 50 51 56 63 71 80 87 95
14 14 14 16 18 19 20 21 23 24 24 23 19 12 12 15 17 16 16 19 21 20 17 16 17 17 18 18 17 14 13 13 15 17 16 14 17 26 33 34 31 28 25 21 20 22 24 25 27 33 41 45 50 63
14 14 15 16 17 18 19 21 22 22 21 18 9 8 11 13 14 15 18 20 19 18 17 17 18 18 17 15 12 12 14 15 16 20 25 27 29 25 16 12 11 10 9 9 9 9 9 9 10 11 14 16 21 27
10 11 12 14 17 19 21 21 20 19 18 10 7 9 11 13 16 18 19 19 17 16 17 17 18 16 11 11 13 16 16 20 26 27 26 20 11 9 8 7 6 4 4 4 4 4 4 5 6 6 7 8 10 12
11 13 16 19 21 21 18 18 18 16 10 6 6 8 13 18 18 17 16 16 17 17 17 17 12 10 12 15 17 20 27 32 31 21 12 8 8 6 4 4 3 3 4 4 4 4 4 5 5 5 6 7 8 10

GFSWCAN_250_rhum_018.txt.gz
RH
8 8 8 8 8 8 8 8 8 9 12 12 13 12 11 12 13 13 12 14 12 13 19 25 22 22 25 33 70 84 91 86 84 82 73 70 80 82 86 82 100 86 76 69 84 87 86 77 77 91 82 95 97 99
7 7 7 7 7 8 8 8 8 9 11 12 13 11 11 12 13 13 12 14 14 12 11 14 23 23 20 26 28 65 76 95 88 89 90 84 82 74 72 82 85 93 97 86 88 90 88 81 87 91 84 89 100 100
7 7 7 7 7 8 8 8 8 9 10 11 11 10 10 11 11 11 11 14 15 15 11 10 11 21 26 21 26 30 66 78 95 92 94 94 87 82 74 73 75 75 80 81 81 85 95 93 92 100 100 99 100 100
6 6 6 7 7 8 8 7 8 8 9 10 9 10 9 9 8 10 11 13 12 13 13 10 11 14 17 20 25 24 28 71 83 98 94 94 89 85 82 81 69 74 68 70 86 93 84 89 100 100 99 100 100 100
6 6 6 6 7 7 7 7 7 8 9 9 9 9 8 8 7 9 10 10 9 9 9 10 12 10 12 17 21 31 17 33 79 89 96 95 90 88 87 72 66 74 69 70 75 98 94 96 83 90 97 100 100 100
6 6 6 6 6 6 6 7 7 7 8 9 9 8 8 6 6 8 7 7 7 7 8 9 9 11 12 12 23 31 17 18 39 89 91 97 100 91 86 80 79 76 68 70 64 74 72 69 68 80 92 100 100 97
6 6 6 6 6 6 6 6 6 7 8 9 9 8 8 7 7 7 7 6 6 7 7 7 6 4 4 6 17 24 14 13 26 56 88 88 100 99 94 91 96 89 70 71 63 68 68 67 75 98 100 100 90 75
6 6 6 6 6 6 6 6 7 8 8 9 9 8 7 7 6 6 7 6 5 6 7 6 3 2 4 6 8 10 10 12 20 41 64 84 100 100 100 99 100 95 76 70 66 66 69 77 80 100 100 92 86 79
5 6 6 6 6 6 6 7 7 8 8 9 9 8 8 7 7 7 7 6 6 7 8 5 2 2 4 6 7 9 10 14 19 26 50 94 100 100 97 100 100 97 80 79 81 76 78 79 81 97 96 84 77 72
5 5 5 6 6 6 6 6 8 8 9 9 10 10 8 8 8 8 8 8 7 9 8 4 2 2 4 7 9 10 12 17 20 21 36 76 100 95 93 100 100 96 87 83 75 78 80 87 96 94 82 76 72 73
5 5 5 6 6 7 7 7 8 9 11 10 10 8 9 8 9 10 10 10 10 13 11 6 4 5 8 10 11 13 17 21 23 23 32 64 98 96 96 100 100 92 85 84 80 82 84 88 94 84 77 67 73 67
6 6 6 6 6 7 7 8 9 11 11 11 10 12 11 10 10 11 11 12 13 13 14 11 7 7 9 11 13 18 22 27 26 25 26 44 79 100 97 98 100 100 87 80 83 88 86 93 96 88 81 80 72 48
6 7 7 7 7 8 7 8 9 11 13 13 12 13 11 12 13 12 13 14 15 16 16 15 11 10 12 13 19 22 29 33 33 31 27 28 49 97 100 99 98 98 90 88 90 88 85 99 97 84 82 91 75 62
7 8 8 9 9 9 9 9 12 13 16 15 14 14 15 15 16 13 16 16 17 18 18 20 16 12 14 22 28 27 32 43 43 37 34 30 30 46 97 100 100 100 97 99 100 99 86 98 91 82 84 93 86 76
9 9 9 10 11 10 10 12 13 15 17 17 16 16 15 18 17 15 18 20 19 21 19 23 22 16 16 20 30 34 32 45 57 50 40 39 36 36 42 66 93 100 100 100 100 100 90 94 89 92 94 95 93 89
10 10 11 12 12 12 12 13 15 16 17 19 19 18 18 20 19 17 20 23 22 22 23 21 32 26 18 18 19 26 25 30 56 68 61 49 46 42 40 43 52 74 92 99 100 97 92 88 83 92 94 97 99 97
12 11 12 13 14 14 15 16 17 18 20 19 18 18 20 21 20 18 21 23 23 24 25 23 22 44 29 23 20 18 13 22 40 57 81 82 55 53 52 51 51 55 63 77 91 94 93 90 87 93 100 100 99 98
10 12 14 14 14 15 17 19 21 21 20 19 20 20 21 22 20 20 22 22 23 24 27 27 25 25 35 43 33 28 22 24 32 43 60 87 98 82 65 64 72 82 92 89 91 98 97 99 97 94 100 100 99 99
11 13 15 15 16 17 20 22 23 22 22 22 22 22 24 23 21 21 22 23 23 23 25 29 27 23 26 31 39 47 49 39 23 28 35 38 63 84 95 82 81 83 86 96 100 100 99 100 100 99 97 100 100 100
11 14 16 17 18 19 21 23 24 25 23 23 23 23 23 23 22 20 21 23 24 25 27 26 29 28 26 26 25 28 32 44 54 31 25 38 37 36 47 56 74 79 81 89 91 97 100 100 100 100 100 100 100 100
12 15 17 17 19 20 25 27 26 25 24 24 24 24 23 23 22 20 21 23 22 23 26 28 29 28 27 28 28 26 24 24 27 31 50 52 25 24 31 43 54 59 63 69 79 86 90 94 96 98 100 99 100 100
12 13 16 19 20 24 28 28 27 27 27 24 23 23 23 22 21 20 22 24 22 22 24 26 27 28 30 29 27 25 25 25 23 22 25 26 36 61 40 25 21 29 47 55 59 68 79 90 88 91 98 100 100 100
11 13 15 20 24 26 27 28 28 27 26 24 22 22 22 21 21 21 23 22 20 22 26 24 24 24 26 28 28 25 23 22 22 23 23 21 23 26 28 52 58 35 19 24 39 56 61 68 74 79 87 86 83 91
10 11 15 21 27 29 26 27 28 26 26 23 24 24 22 21 20 22 23 21 19 23 24 22 22 23 22 24 26 26 23 20 19 19 20 21 21 20 20 23 25 38 53 49 35 23 27 38 55 74 83 87 88 86
8 12 18 24 27 26 24 24 26 26 24 22 22 22 21 20 21 22 22 19 19 22 21 20 20 21 21 21 24 25 25 20 18 18 19 20 21 20 19 18 20 22 24 27 39 47 50 38 25 24 35 56 79 94
9 14 19 23 23 23 24 22 23 24 22 22 22 21 20 21 23 23 20 19 20 20 18 18 19 19 18 19 20 24 24 22 20 19 18 20 20 20 19 16 16 17 21 23 23 24 26 40 50 52 47 36 30 33
12 19 22 24 22 21 19 19 21 22 21 22 22 22 22 23 23 21 20 20 20 18 18 17 17 17 18 19 20 21 21 22 22 20 19 19 19 20 20 18 15 14 16 19 21 21 21 23 27 38 51 55 58 63
17 22 23 18 17 19 20 19 20 20 21 21 21 22 23 23 22 21 22 20 18 17 17 17 17 18 18 18 18 20 20 20 18 18 19 18 16 16 18 17 15 14 14 15 18 20 22 20 20 22 27 36 50 64
18 18 16 17 18 19 19 19 19 20 20 21 22 23 22 23 24 24 22 20 18 18 17 17 17 17 17 19 19 18 17 18 19 19 19 17 14 13 15 14 13 13 13 13 14 16 18 19 20 20 22 25 31 40
16 14 14 15 17 18 17 16 17 19 21 22 23 22 22 23 24 22 21 20 18 16 16 16 16 16 19 18 16 16 17 17 17 17 16 13 11 10 11 13 13 13 13 14 17 23 30 36 38 40 43 42 41 44
12 11 13 14 16 17 16 16 17 19 20 21 22 21 22 22 22 21 20 13 11 13 14 14 16 18 17 18 18 17 16 16 16 12 11 11 11 11 12 12 14 21 27 31 32 32 31 28 26 28 32 41 49 57
9 10 11 12 12 13 14 15 17 20 20 21 21 21 21 20 20 19 12 9 10 12 14 17 18 18 19 19 17 16 15 11 10 10 11 13 14 15 18 25 27 23 16 12 11 10 10 10 10 10 12 14 16 19
6 7 8 8 9 12 14 16 18 19 20 20 20 19 19 20 18 10 7 9 11 14 17 19 20 20 18 16 15 12 10 10 12 13 14 19 22 21 16 10 9 8 6 5 4 4 4 4 4 4 5 6 7 9

GFSWCAN_250_rhum_021.txt.gz
RH
7 8 8 8 6 6 7 7 7 7 7 6 7 8 8 9 8 9 9 12 14 13 18 23 24 18 19 22 29 39 50 71 79 79 81 65 51 48 45 50 64 86 99 89 71 68 73 62 65 87 79 65 70 85
7 7 7 6 6 6 6 6 7 7 6 6 7 7 8 8 7 8 8 11 12 13 11 15 18 21 21 24 23 30 39 45 72 78 82 71 53 51 60 81 87 86 77 80 66 60 63 70 79 80 79 78 88 99
6 6 6 6 6 6 6 6 7 6 6 6 6 7 8 8 8 8 7 9 11 12 12 11 10 15 21 20 18 21 28 36 49 77 81 83 62 61 71 76 74 83 89 85 68 80 80 77 91 94 88 82 92 91
5 6 6 6 7 6 6 6 6 6 6 6 6 7 7 8 8 7 8 8 9 10 12 12 9 9 12 17 22 19 19 30 34 57 80 87 74 67 74 80 71 87 98 92 86 87 98 100 100 99 96 96 92 98
6 6 6 6 6 6 5 6 6 6 6 6 6 6 7 8 7 7 7 9 9 8 9 10 9 7 10 12 18 21 18 20 32 39 70 84 85 76 76 70 72 92 92 94 84 97 92 78 71 70 73 77 81 87
6 5 5 5 5 5 5 5 6 6 6 6 6 7 7 7 7 7 8 8 8 7 7 8 7 7 9 10 13 18 18 18 25 32 50 83 94 86 84 76 81 84 80 81 71 81 80 78 76 82 84 83 86 88
5 4 4 4 5 4 5 5 6 6 6 6 6 7 6 7 7 7 8 8 7 6 7 6 6 8 9 10 11 14 19 22 21 34 30 64 94 98 92 87 96 90 89 85 74 80 76 74 85 79 73 68 73 74
4 4 4 4 5 5 5 5 6 6 6 6 7 7 7 7 8 7 8 8 7 7 6 6 6 6 5 3 4 5 19 21 21 29 33 30 84 100 97 93 100 100 97 92 88 85 79 85 82 78 72 67 70 82
4 4 4 4 4 5 6 6 6 6 6 6 7 8 7 8 8 7 9 9 7 6 6 5 7 5 2 1 2 4 7 12 17 27 34 27 53 100 92 100 100 100 94 94 100 99 93 88 82 74 76 78 82 88
4 4 4 4 5 5 6 6 6 7 7 7 9 9 10 9 8 8 10 9 9 7 7 6 8 6 2 2 4 6 8 10 15 25 28 23 27 71 88 95 100 100 96 98 100 100 99 90 85 72 71 86 86 87
4 5 5 5 6 6 7 7 7 7 7 8 11 11 11 9 10 9 10 10 10 10 9 8 10 9 5 4 5 7 8 10 11 14 15 17 20 48 80 94 100 100 100 100 100 100 100 96 88 79 84 88 89 86
4 5 6 6 6 7 8 9 9 8 8 9 10 13 12 10 10 11 11 12 12 12 11 11 12 12 9 7 9 11 12 12 14 14 17 22 24 40 72 96 100 100 100 100 98 100 100 97 92 86 83 87 89 82
5 6 6 6 7 9 9 10 10 10 11 12 13 14 14 12 12 12 12 13 14 15 14 13 15 16 14 10 13 16 19 23 25 27 29 28 27 32 64 97 100 100 100 100 100 100 100 100 100 99 91 89 86 81
6 6 7 8 8 10 10 11 11 12 14 13 15 17 17 14 13 13 14 15 15 17 16 16 18 18 18 14 18 24 37 41 39 37 36 34 31 31 47 93 100 100 99 98 100 100 100 100 100 94 93 87 81 87
6 7 8 8 9 10 10 11 12 13 14 16 17 17 19 14 16 16 16 17 18 19 19 18 19 21 19 16 16 21 29 39 44 46 40 36 34 32 34 60 97 100 100 100 100 100 100 100 96 96 93 84 83 92
6 7 7 8 9 10 11 13 14 15 16 18 18 19 19 16 19 18 17 18 21 21 21 21 22 21 25 22 16 14 19 24 39 51 52 45 39 36 34 36 56 95 100 100 100 100 100 100 99 91 91 91 90 91
6 7 8 8 9 10 12 13 14 16 17 19 20 22 21 21 22 21 19 19 23 22 23 22 22 24 25 27 22 18 14 24 40 48 63 70 60 47 42 38 38 43 70 98 100 100 100 100 100 98 86 93 96 95
6 7 8 8 9 10 12 14 16 18 18 21 21 21 22 24 23 22 22 22 23 24 24 23 24 25 24 21 22 34 32 27 29 30 33 60 85 87 76 55 47 40 41 48 68 90 99 100 100 100 97 89 95 98
6 7 8 9 9 11 13 15 18 21 20 21 20 23 27 26 24 24 24 23 23 24 26 25 26 24 26 26 26 29 33 44 40 30 26 33 37 51 62 74 74 56 49 46 49 51 55 65 76 87 95 91 87 87
6 7 7 8 9 12 15 18 20 21 20 22 23 25 26 24 24 26 26 24 24 25 26 24 23 27 30 30 27 25 25 25 28 36 52 53 29 25 40 52 55 63 67 58 56 56 64 70 71 76 83 95 98 92
6 6 8 8 10 13 17 19 21 23 23 22 23 25 25 25 26 27 26 25 25 24 23 23 24 24 25 28 30 27 26 26 25 25 29 35 48 50 34 27 26 29 45 62 66 62 60 65 74 77 86 94 96 97
6 7 8 9 10 13 19 18 22 24 23 23 25 27 26 26 27 27 26 26 24 21 22 24 26 24 23 24 28 29 28 26 24 25 25 25 25 30 37 47 53 43 28 31 43 53 60 64 66 69 74 75 76 86
6 7 8 9 11 16 20 18 21 24 24 22 25 26 27 27 28 28 26 26 23 20 22 23 25 24 24 24 25 28 28 28 27 25 23 23 25 25 24 26 31 33 39 48 45 34 27 33 46 57 66 74 75 76
6 6 8 10 12 16 18 18 21 23 26 24 24 26 29 28 28 28 27 24 21 23 24 24 23 23 22 24 26 27 26 24 25 26 25 22 20 19 20 21 22 23 25 28 34 37 41 46 39 25 26 39 54 72
5 6 10 11 13 17 16 18 21 25 25 25 25 26 28 30 28 27 24 21 23 24 24 24 22 23 23 24 25 26 24 22 22 23 25 25 23 19 18 19 19 20 22 23 21 22 26 26 24 32 43 38 28 26
6 8 10 12 15 16 15 16 19 23 26 28 29 27 28 29 28 25 22 21 22 23 24 24 23 22 22 22 22 23 23 22 20 20 22 24 23 22 20 19 18 19 20 20 20 19 18 19 22 22 19 19 28 41
8 10 11 12 14 13 13 15 19 26 28 28 28 28 29 30 27 24 23 22 22 22 23 22 22 22 21 20 20 20 20 20 20 20 19 19 20 21 21 20 17 16 17 18 19 19 16 15 16 18 21 22 21 21
9 10 11 11 12 12 14 16 23 26 25 23 25 28 29 28 26 25 24 22 22 22 22 22 22 20 19 19 18 18 19 19 18 18 18 18 19 19 18 17 16 16 15 14 14 15 15 14 14 14 16 17 19 21
9 10 9 10 10 11 15 19 21 21 20 21 23 26 26 26 27 25 23 23 23 22 22 22 21 20 19 18 18 18 18 18 18 18 20 20 18 16 16 16 17 17 15 13 11 11 12 13 13 13 14 15 16 19
9 9 9 9 10 12 14 16 16 17 20 21 22 24 23 24 25 24 23 23 23 23 22 21 21 20 18 17 17 17 16 17 18 19 19 17 15 14 14 15 16 15 14 12 11 11 12 13 14 14 15 15 16 17
8 9 9 9 10 12 14 15 15 18 19 20 21 22 22 23 24 24 23 23 23 22 22 22 21 18 13 12 13 14 16 18 18 18 16 15 14 13 12 11 10 10 11 12 13 13 13 15 16 19 24 28 31 33
7 7 7 8 9 11 14 15 16 17 18 20 20 21 22 22 22 23 23 24 23 22 22 22 16 10 10 11 14 17 18 17 16 15 15 14 13 11 10 10 11 11 13 17 20 22 24 25 27 28 28 28 30 32
7 7 8 7 7 11 14 14 14 15 16 16 18 19 20 20 20 22 23 23 22 23 22 16 9 8 10 14 18 18 16 14 13 13 12 11 10 11 12 16 20 20 17 12 9 8 8 8 8 8 8 9 10 12

GFSWCAN_250_rhum_024.txt.gz
RH
10 10 10 8 7 7 7 7 6 6 6 6 6 5 6 7 7 8 7 8 9 9 12 15 16 17 18 19 21 24 28 41 44 55 68 72 94 98 92 87 88 95 97 80 90 87 91 83 82 100 93 80 72 70
8 9 8 7 7 7 7 7 6 6 5 5 5 5 6 7 7 7 7 8 9 9 10 12 12 16 19 20 22 20 25 25 33 43 70 68 77 92 77 63 57 61 75 79 63 67 81 94 95 73 74 74 83 76
8 7 7 7 7 7 6 6 6 5 4 4 5 5 5 6 7 7 7 7 8 9 11 11 10 11 16 18 22 28 22 22 26 28 39 76 70 76 65 50 44 42 48 57 74 86 92 82 77 79 70 83 84 80
6 6 7 7 7 6 5 5 4 4 4 5 5 5 5 6 6 7 7 6 7 9 12 12 10 9 9 13 19 22 23 21 21 27 31 47 76 76 66 52 45 52 62 77 78 86 70 71 79 76 82 93 98 100
5 5 6 6 6 5 5 4 4 4 5 5 5 5 5 6 7 7 6 6 7 8 9 10 11 9 8 9 12 16 17 19 17 23 26 30 65 78 76 60 56 79 75 84 72 86 66 72 82 78 83 100 100 95
4 5 5 6 5 5 5 5 5 5 5 5 5 5 5 6 7 7 6 6 8 7 8 9 9 8 8 7 8 10 13 16 16 20 22 28 36 79 82 66 73 92 83 88 80 97 86 73 86 92 100 100 96 83
4 4 5 5 5 5 5 5 5 5 5 5 5 6 6 6 7 7 7 8 7 7 7 7 7 6 5 6 7 10 12 15 16 16 19 21 32 66 84 80 78 95 87 90 82 90 90 80 96 100 96 87 81 78
4 4 4 5 5 5 5 5 5 5 5 6 6 6 6 6 7 8 8 8 7 8 7 6 6 6 6 7 6 8 10 11 15 17 18 20 31 43 84 80 85 88 91 92 86 85 96 99 94 100 100 95 88 85
4 4 4 4 4 5 5 5 5 6 6 7 7 7 6 6 8 9 10 7 8 9 8 8 6 6 6 6 4 2 2 4 11 17 18 20 27 41 54 77 92 95 93 96 89 84 87 92 97 90 86 84 84 81
4 3 4 4 5 5 5 6 6 6 7 8 8 7 6 7 11 10 9 8 10 8 8 9 7 7 7 7 4 2 2 3 6 16 22 23 26 36 36 63 86 100 100 98 100 100 99 100 100 97 97 99 92 88
4 4 4 5 5 6 6 7 7 8 9 8 8 8 9 10 14 13 10 10 12 12 10 10 9 8 9 9 6 4 5 5 6 11 22 28 28 33 42 39 70 95 100 99 94 100 99 100 100 100 100 100 96 90
4 4 4 5 6 6 7 7 8 9 10 9 9 9 10 16 16 14 11 12 13 14 13 12 11 11 12 12 10 8 8 8 10 11 17 17 20 32 43 44 37 79 100 100 100 100 100 100 100 100 98 100 91 85
4 4 5 6 6 6 7 8 9 10 10 10 9 8 11 15 16 16 12 13 15 16 16 15 14 13 15 15 14 11 12 12 12 12 14 15 21 27 32 39 40 36 91 100 100 100 100 100 100 100 100 98 94 92
4 5 5 6 6 6 7 9 9 10 10 10 10 11 14 19 18 16 16 17 17 19 18 18 17 16 18 19 18 15 14 16 16 18 18 18 19 18 16 19 21 26 55 100 100 100 100 100 100 100 99 90 92 89
6 4 5 6 7 7 8 9 9 10 10 11 12 14 18 18 21 19 18 19 18 20 20 20 19 18 20 22 23 22 19 22 25 26 28 27 29 29 27 26 26 25 46 98 100 100 100 100 100 98 92 95 97 90
6 5 5 6 6 7 8 8 9 10 10 11 12 14 17 21 22 21 21 19 21 20 22 22 22 20 22 24 27 29 21 29 42 46 46 45 41 41 40 36 33 33 40 75 99 100 100 100 100 97 99 100 100 99
6 6 5 6 6 7 8 8 9 10 11 12 13 15 18 18 21 20 21 20 23 22 25 25 24 23 24 27 24 27 28 30 52 51 50 53 57 51 48 46 40 35 37 45 82 99 100 100 100 100 100 100 100 100
5 5 5 6 6 7 8 8 9 10 11 12 14 16 18 18 22 22 22 23 24 24 27 29 26 25 25 22 22 30 36 34 33 38 42 40 46 50 46 44 46 42 36 37 43 69 95 98 97 99 100 100 97 94
4 5 5 5 6 7 7 8 9 10 10 12 15 18 19 20 22 24 24 24 25 26 28 31 30 27 21 21 32 35 29 33 36 30 24 26 38 45 52 55 50 45 43 39 37 38 49 76 91 96 100 100 100 94
4 5 5 4 6 6 7 8 9 10 10 12 15 18 18 18 22 26 26 26 28 29 30 33 26 22 24 28 26 28 32 28 29 40 52 54 46 38 34 32 36 52 57 52 45 42 40 39 41 50 65 77 86 97
4 5 5 4 6 6 8 10 9 10 11 13 16 18 18 20 22 25 26 28 34 34 27 24 26 27 27 25 25 30 32 34 30 27 28 30 40 49 60 65 50 34 42 54 54 59 56 51 45 42 42 42 43 45
4 5 6 5 6 7 9 10 10 10 12 13 16 19 20 22 24 27 31 35 34 27 22 25 29 28 26 25 26 26 30 33 36 35 32 29 28 27 27 29 34 42 53 49 37 36 48 57 62 66 67 62 56 54
5 5 5 6 7 8 10 10 10 10 12 13 18 19 20 23 26 29 32 33 28 24 24 27 27 26 25 23 23 25 25 26 30 32 34 34 33 30 29 29 29 28 28 30 33 38 46 51 47 40 38 43 51 60
4 5 5 6 7 10 11 9 9 10 12 13 18 20 21 24 28 32 32 30 29 28 29 28 26 25 24 23 23 25 25 23 24 26 29 31 31 31 30 28 25 24 24 24 25 25 24 23 26 32 38 42 46 37
4 4 5 6 8 11 10 9 9 10 11 14 18 20 21 27 30 30 28 29 30 29 29 28 26 25 23 23 24 24 23 23 24 24 24 25 24 25 27 28 28 26 24 21 19 19 21 22 23 22 22 21 22 25
4 5 6 8 8 10 10 9 9 10 12 16 18 20 23 28 31 28 27 30 30 30 30 29 26 24 25 24 23 24 23 22 22 22 22 22 22 22 23 25 24 23 23 21 20 19 19 19 20 20 21 21 20 19
5 6 6 7 8 9 9 8 8 10 12 16 17 18 24 28 27 28 29 29 29 29 28 28 26 26 24 23 24 23 23 22 21 20 19 20 21 21 20 20 19 19 19 19 20 20 19 17 17 18 18 18 19 20
4 5 6 8 8 8 8 8 9 10 14 15 14 17 23 26 26 28 30 29 28 28 28 27 26 25 25 24 23 24 23 22 21 20 19 19 18 19 19 18 18 18 17 18 17 16 16 16 16 17 18 18 17 16
4 5 6 6 6 6 7 8 9 10 13 14 15 20 24 26 28 28 29 29 26 26 26 25 24 24 24 24 23 22 22 22 20 19 18 17 16 17 17 17 17 17 17 16 14 14 13 14 16 16 16 15 15 16
4 5 5 5 5 6 6 7 8 10 12 14 17 20 22 24 28 26 27 27 27 26 24 23 23 24 24 24 23 23 22 22 20 19 18 17 16 16 16 16 17 17 17 16 14 14 14 14 13 12 12 12 12 12
4 5 5 5 6 6 6 7 8 11 13 17 18 19 20 23 25 26 25 26 27 25 23 23 23 23 23 23 24 24 23 21 18 14 13 13 13 14 15 16 15 15 15 15 15 14 12 11 10 10 11 12 12 13
4 4 4 5 5 6 7 9 10 12 15 16 17 18 19 22 24 24 22 26 27 26 24 23 22 22 22 23 23 22 21 15 10 10 11 13 15 15 14 14 14 14 12 10 10 10 11 12 14 16 19 21 19 18
5 5 4 5 6 6 8 10 12 14 15 15 16 19 21 22 21 20 22 25 23 22 23 22 22 22 21 21 21 19 12 9 9 12 15 15 14 14 14 12 10 10 10 12 19 20 19 17 16 14 13 14 15 16

GFSWCAN_250_rhum_027.txt.gz
RH
8 11 12 15 11 10 12 10 9 7 7 6 4 4 4 4 5 5 6 6 8 8 8 9 12 17 19 19 17 18 24 29 31 28 31 79 99 100 95 93 100 100 100 94 96 99 100 92 93 97 98 98 100 100
8 9 8 10 9 8 9 8 7 6 6 5 4 4 4 5 5 5 5 6 8 8 7 9 10 12 14 20 22 28 27 18 28 35 28 31 83 95 100 100 100 98 100 99 86 88 98 93 100 100 100 96 96 96
5 4 5 6 6 7 7 7 6 5 6 5 5 4 4 5 5 5 5 6 8 8 8 7 10 11 12 14 17 22 26 25 19 22 31 29 36 74 90 100 100 100 94 93 90 79 92 96 96 89 93 89 96 93
4 3 4 4 5 5 7 7 6 6 5 5 5 5 4 5 5 5 5 6 7 8 10 8 9 10 11 13 15 17 15 20 22 18 20 29 27 45 75 92 100 93 71 56 65 87 88 60 71 77 71 75 88 76
4 4 3 4 5 5 6 6 6 5 5 5 5 5 4 5 5 5 5 5 7 8 10 8 9 11 11 9 10 12 13 14 18 18 18 22 26 28 60 83 99 94 68 46 46 70 54 54 74 72 73 85 82 81
6 4 4 4 5 5 6 6 5 5 5 4 5 4 4 5 5 5 4 6 7 7 9 8 9 9 9 9 9 10 9 11 12 16 20 19 24 27 35 76 86 99 67 47 50 56 56 61 62 63 62 74 78 83
8 4 4 5 5 6 5 5 4 4 5 5 4 4 5 6 6 5 5 6 7 9 8 8 9 8 9 8 7 6 8 10 10 14 18 17 20 27 30 58 72 99 73 54 55 67 63 70 63 64 77 80 80 88
12 6 4 4 4 5 5 4 4 4 5 5 5 5 6 7 7 6 5 7 9 11 8 8 7 7 7 6 6 6 7 8 9 13 16 17 20 26 29 31 71 95 86 61 57 67 70 72 80 74 74 86 96 98
12 6 5 4 4 4 4 4 5 5 6 6 6 7 7 7 7 7 7 9 12 12 8 9 8 7 7 6 6 6 6 4 6 11 14 19 21 26 25 26 51 80 90 77 64 67 76 82 86 90 89 88 92 95
8 6 5 4 4 4 4 5 5 7 7 7 7 8 8 8 8 8 9 13 13 10 11 10 10 8 7 7 7 7 5 2 2 8 17 18 20 22 23 24 32 70 86 90 78 76 75 86 100 100 100 100 100 98
7 6 6 4 4 3 4 5 7 8 8 8 8 8 9 9 8 8 12 15 13 12 12 12 10 11 9 8 8 9 6 4 3 6 15 22 23 22 24 27 29 40 78 90 89 84 78 83 98 100 96 90 95 97
6 6 5 4 4 4 4 6 7 9 8 9 9 9 10 9 8 9 16 17 16 15 14 14 13 12 11 10 11 12 10 8 6 6 11 18 21 27 28 27 28 34 48 81 97 95 87 86 100 100 100 98 98 100
5 5 5 4 4 4 4 6 7 8 9 10 10 10 9 10 10 12 20 21 18 18 17 16 17 17 13 12 14 14 14 11 10 9 8 9 17 22 25 30 30 31 39 49 85 100 100 96 100 100 100 100 100 100
5 5 5 4 4 4 5 7 8 9 10 10 10 10 10 11 11 12 18 20 19 20 19 20 19 20 19 17 16 16 17 15 12 14 15 14 15 15 17 22 28 33 36 42 50 93 100 97 100 100 100 100 94 96
5 5 5 5 5 5 6 6 7 9 9 9 10 10 10 10 11 13 18 19 19 20 18 23 22 22 22 20 21 21 20 20 19 17 17 20 20 18 18 18 19 24 32 41 48 50 86 100 100 100 100 100 100 100
5 5 5 6 6 6 6 7 7 8 9 9 9 10 11 11 11 13 16 18 20 23 21 24 26 26 25 24 22 24 24 29 34 39 38 37 38 36 32 31 27 22 19 24 38 51 50 65 100 100 100 99 100 100
5 6 6 6 7 6 6 7 7 8 8 8 9 10 10 10 12 14 16 20 22 24 23 25 32 28 28 26 24 22 23 38 43 39 39 37 38 37 38 38 37 36 34 30 27 26 34 48 75 100 100 100 98 99
6 7 6 5 6 6 6 6 7 8 8 8 8 10 10 11 11 13 17 22 24 24 24 28 30 32 36 29 20 24 30 38 42 36 37 47 52 52 46 48 51 43 40 40 36 34 32 38 48 92 97 95 94 95
6 6 7 5 6 6 7 6 7 8 7 8 8 9 9 10 11 14 18 21 23 24 27 35 38 37 32 22 24 30 33 32 32 36 32 29 28 40 53 52 45 49 46 40 40 41 38 37 40 55 82 91 94 95
5 6 6 5 6 5 6 6 6 8 7 8 8 8 9 10 12 14 18 21 24 28 32 37 31 24 23 26 30 31 30 30 33 33 37 43 44 40 35 34 39 45 50 59 61 52 44 40 38 39 41 50 67 83
6 6 5 5 5 5 6 6 7 8 8 8 8 9 9 11 12 15 19 23 26 27 24 25 23 29 35 34 36 32 27 29 33 36 33 31 36 43 53 60 56 53 44 36 31 39 54 70 74 63 47 42 40 40
6 4 4 4 4 5 7 7 7 8 8 8 8 9 10 11 13 16 20 22 22 22 25 26 34 41 41 35 33 28 26 27 29 32 34 37 36 32 30 31 33 35 41 49 53 59 52 36 32 34 44 56 61 66
3 4 4 4 5 6 7 7 7 8 7 8 9 10 10 12 14 16 19 22 24 23 26 28 32 36 37 34 30 27 25 26 26 27 30 35 36 37 37 36 36 35 34 33 31 31 32 35 38 42 45 47 46 42
4 4 5 5 6 7 8 7 7 8 8 8 9 11 11 12 14 16 19 24 25 27 28 28 32 34 33 31 29 30 29 26 25 26 28 30 32 35 38 41 40 39 38 39 36 33 30 29 27 26 26 25 24 24
5 5 5 6 6 7 7 6 6 7 7 8 10 12 11 12 14 17 22 22 24 27 29 31 31 32 31 31 30 27 26 26 26 26 26 26 26 26 27 28 28 31 34 32 33 34 33 28 24 22 22 21 20 19
4 4 5 5 5 5 5 5 5 5 6 8 10 10 11 12 14 18 21 22 24 29 32 31 31 30 30 29 28 26 26 25 25 24 25 24 23 24 24 25 25 26 28 26 27 27 26 26 25 25 24 22 21 20
4 4 3 3 3 3 4 4 4 5 6 9 10 10 11 13 15 18 20 23 25 28 31 31 30 28 28 28 27 26 25 24 24 23 23 23 22 22 22 22 21 22 24 23 22 20 19 19 20 20 20 19 19 20
2 2 2 3 3 3 3 4 4 4 6 10 10 10 11 12 14 17 20 24 27 29 30 30 30 28 27 27 26 25 24 24 24 23 22 22 22 23 22 21 20 20 18 18 18 18 18 17 17 17 17 18 18 18
2 2 2 2 3 3 4 4 4 5 7 10 10 10 11 11 14 18 20 24 27 29 30 31 30 28 27 27 26 25 24 24 24 23 22 22 23 23 21 20 18 17 17 17 16 16 15 15 16 17 18 17 16 16
2 2 2 2 3 4 3 4 4 5 8 9 9 11 11 11 15 18 20 24 26 28 29 29 30 30 28 27 25 24 23 22 22 22 22 22 22 21 20 19 18 17 16 14 14 14 14 15 16 16 15 15 15 15
2 2 2 3 3 3 4 5 6 6 8 8 9 10 10 13 17 18 20 23 25 26 27 28 28 28 28 28 25 24 24 24 23 23 22 22 21 20 19 16 12 11 11 13 15 16 16 15 14 14 14 13 12 11
4 4 4 4 4 4 5 5 6 7 8 8 9 9 11 15 17 18 18 23 26 27 25 24 24 24 24 24 25 25 25 24 22 22 22 21 20 17 12 9 10 13 15 15 14 14 13 12 11 11 10 10 10 11
3 3 4 4 5 5 6 6 7 8 9 10 10 11 13 15 15 17 22 25 23 20 20 22 22 22 22 23 23 23 23 23 23 21 20 17 12 8 9 12 14 14 14 13 11 11 11 13 15 17 18 19 19 19

GFSWCAN_250_rhum_030.txt.gz
RH
11 6 13 11 10 10 9 10 9 7 7 6 7 6 6 5 5 5 5 5 5 6 7 8 8 10 14 16 15 19 21 22 22 20 23 37 88 94 98 100 99 100 99 86 93 98 99 98 100 100 99 98 99 98
14 9 9 14 10 7 8 8 7 6 6 6 5 5 4 4 4 5 5 5 5 5 6 8 8 9 11 14 14 18 22 18 22 25 24 23 39 83 97 96 100 100 98 98 93 80 88 98 100 100 96 96 96 100
16 10 7 7 5 6 5 6 7 6 6 6 5 4 4 4 4 4 5 5 5 5 6 8 8 10 14 13 16 15 16 19 22 21 26 30 25 36 85 83 99 100 100 93 95 92 85 86 92 94 93 91 95 100
21 17 8 6 5 6 6 6 6 6 5 6 5 4 4 4 4 4 5 5 5 6 6 8 10 10 10 11 13 14 13 16 18 20 22 24 26 26 32 77 92 88 98 93 92 98 92 88 85 94 97 90 97 96
35 38 15 6 5 4 6 6 6 6 6 6 5 4 4 4 4 4 5 6 6 6 6 8 9 9 10 11 12 13 12 13 15 15 18 24 24 27 27 32 84 89 84 88 84 90 93 89 91 87 94 87 84 83
46 35 19 16 6 5 5 5 6 6 5 5 5 4 4 4 4 4 5 6 7 7 7 9 10 12 9 9 11 10 9 10 13 14 14 20 24 21 24 33 29 77 88 80 77 66 60 78 100 90 92 68 75 74
38 27 24 14 10 5 5 6 6 6 5 5 4 4 4 5 5 5 6 7 6 6 8 10 12 10 10 10 9 8 8 8 8 10 12 14 20 18 25 29 23 35 81 81 68 55 51 53 79 95 64 63 69 63
36 26 23 16 11 5 5 5 6 6 5 5 5 4 5 5 6 7 7 7 7 7 11 14 12 10 10 9 8 8 7 7 7 8 11 12 16 20 26 22 24 30 51 81 71 51 51 61 64 64 65 71 60 58
33 28 26 17 12 6 4 5 6 6 5 5 5 5 5 6 6 7 8 8 7 10 12 13 12 11 11 9 8 7 7 6 7 8 10 12 16 18 20 17 22 30 29 69 75 54 48 58 63 68 65 57 57 64
24 20 22 19 11 6 5 4 6 6 6 5 6 6 6 7 7 8 8 8 9 11 16 15 12 12 12 9 8 7 7 7 7 5 5 9 15 17 16 16 21 27 28 41 74 67 50 59 66 69 72 61 61 70
19 19 20 18 8 8 6 5 5 6 6 7 8 8 8 8 8 8 8 8 10 14 16 16 15 13 13 11 9 8 8 8 7 3 3 6 12 15 18 19 21 26 29 29 64 76 56 53 67 70 74 77 78 77
15 15 17 14 8 7 8 6 5 5 6 8 8 8 10 9 8 8 9 9 11 16 16 16 16 14 15 13 12 10 10 10 9 6 4 6 14 17 19 20 22 25 29 29 33 74 76 55 59 75 88 92 89 89
14 13 13 10 8 7 7 7 5 5 7 8 9 9 10 9 8 9 10 9 13 16 16 17 19 18 16 16 17 13 12 14 12 9 6 10 22 27 26 26 27 26 27 28 29 36 73 77 61 68 92 100 100 99
15 13 10 8 6 6 6 7 7 6 7 9 9 9 9 9 9 9 10 10 13 16 17 18 21 24 21 18 18 19 16 16 16 14 12 10 12 15 16 17 19 22 27 30 30 30 38 77 84 72 79 97 100 94
12 10 8 6 5 5 6 7 8 8 8 9 9 9 9 9 9 9 10 10 13 16 16 18 22 27 27 25 21 19 18 20 22 21 18 15 14 14 13 14 16 20 24 31 32 31 33 42 74 88 88 92 98 100
10 8 6 6 5 5 6 9 9 9 8 8 8 9 10 9 9 10 10 10 13 15 16 18 25 29 30 32 30 25 21 20 20 26 26 23 22 22 21 18 16 16 19 26 35 38 34 39 45 68 91 99 100 98
8 7 6 5 5 5 7 9 9 9 8 7 8 9 9 9 9 10 10 10 13 14 17 20 27 28 33 37 30 26 27 24 26 30 31 27 27 29 37 42 41 33 25 19 20 26 35 39 45 49 57 84 99 100
7 6 5 6 6 7 7 10 9 8 8 7 8 8 9 8 9 10 10 10 11 13 16 21 28 31 32 34 26 26 30 33 33 34 37 34 29 30 42 44 44 44 49 43 39 31 24 26 36 45 53 54 58 80
7 7 7 7 7 7 7 9 8 7 7 8 8 8 8 8 8 9 10 10 10 12 14 18 25 25 20 22 23 28 34 41 35 33 32 31 31 29 32 34 45 48 47 50 54 48 45 41 32 28 30 42 51 53
8 8 8 7 7 7 7 9 9 8 7 8 7 7 7 7 7 8 9 10 10 11 14 18 20 20 20 27 28 37 41 44 38 30 30 33 40 42 39 36 34 35 40 49 55 56 62 60 49 46 43 38 35 36
8 9 8 7 7 7 8 8 9 8 7 7 6 6 7 7 7 8 9 9 10 12 15 18 20 22 28 33 33 41 44 39 37 32 30 35 41 38 45 50 51 48 39 31 28 30 40 53 60 63 66 62 55 48
7 7 7 7 7 6 7 8 7 6 6 6 5 6 7 7 7 7 8 9 10 14 15 15 19 24 32 30 31 34 37 30 26 29 31 33 34 37 34 33 37 40 40 40 43 47 55 65 60 48 42 49 58 63
7 7 6 6 6 6 6 6 5 5 5 5 5 6 7 7 8 8 8 9 12 13 14 16 20 25 32 30 29 30 32 30 30 35 31 28 29 35 36 37 37 35 34 33 34 34 34 34 33 35 38 44 47 47
4 4 4 4 5 5 5 5 4 4 4 5 5 6 8 7 7 8 8 11 12 13 14 18 22 25 29 29 29 33 35 34 32 32 32 34 32 28 29 32 34 36 37 34 33 34 33 32 31 30 28 28 28 28
3 3 4 4 5 4 4 5 5 5 5 5 6 6 8 7 7 9 8 10 12 13 16 20 23 24 28 30 32 33 32 31 31 31 30 30 28 26 26 26 27 28 28 28 29 31 32 34 35 33 31 28 26 24
3 4 4 5 4 4 4 4 4 4 4 4 5 6 7 7 7 9 9 10 12 14 16 20 24 26 27 29 32 32 33 31 30 28 27 25 24 23 24 24 25 26 25 24 25 25 26 26 26 25 24 25 25 26
4 4 3 3 3 3 3 3 3 3 3 4 5 6 6 6 7 8 9 11 12 14 18 20 24 28 28 29 30 30 31 30 28 27 25 24 24 24 24 24 23 23 24 23 22 21 21 22 22 22 20 19 19 20
2 2 2 2 2 2 2 2 2 3 3 4 5 6 6 6 7 9 9 11 12 15 18 21 24 28 28 29 31 31 31 30 28 27 26 25 24 24 24 24 23 23 23 23 22 21 20 18 18 17 17 17 17 17
2 2 2 2 2 2 2 2 2 2 3 4 5 5 5 6 8 9 9 11 13 16 18 21 24 26 28 29 30 31 31 31 29 27 26 26 26 25 24 24 23 22 22 20 20 20 19 17 16 16 16 15 15 16
2 2 2 2 2 2 2 2 3 3 4 5 6 6 6 6 8 9 9 11 13 16 19 22 25 28 30 29 29 29 29 28 28 27 26 26 25 25 24 23 22 22 21 20 19 18 17 16 14 13 12 13 14 14
3 3 3 4 3 3 3 3 4 4 5 6 6 6 6 7 8 8 9 11 14 17 20 24 26 27 28 29 29 28 27 26 26 26 25 24 23 23 23 23 23 22 20 18 17 16 14 11 10 11 14 15 15 15
2 2 2 2 2 3 4 4 4 5 6 6 7 7 7 8 9 9 9 12 16 19 21 22 23 26 27 28 28 27 26 26 24 24 23 22 21 20 20 20 19 18 18 16 13 9 9 11 13 13 13 13 12 11
3 2 2 2 2 2 3 4 4 5 5 6 7 7 8 8 8 8 10 15 17 19 20 22 24 26 26 26 27 27 26 25 24 23 22 21 20 19 18 17 17 15 12 9 10 12 13 12 11 11 10 10 12 15

GFSWCAN_250_rhum_033.txt.gz
RH
40 27 16 14 14 12 14 15 13 9 10 10 7 6 5 4 4 4 4 4 4 5 6 7 7 9 10 12 16 19 20 16 18 20 22 26 37 66 74 74 81 89 91 82 83 90 96 96 97 93 89 84 87 94
40 29 21 18 8 9 8 8 8 9 8 9 7 5 5 4 4 4 4 4 4 5 7 8 7 9 11 11 13 14 20 25 27 22 23 26 33 38 74 80 83 84 84 96 96 92 87 92 98 99 100 98 89 100
46 47 29 21 10 5 8 6 10 7 6 7 6 5 5 4 4 4 4 4 4 4 7 8 8 10 11 12 14 14 14 18 31 28 31 34 28 30 42 71 82 81 79 82 82 90 96 94 90 92 91 96 97 88
47 39 21 22 12 4 5 7 7 6 5 7 6 6 5 4 4 4 4 4 5 5 7 8 8 10 11 12 17 19 17 14 16 24 31 32 33 30 30 38 58 85 88 76 86 91 88 91 94 94 90 91 88 94
44 48 32 30 29 14 7 6 4 6 5 6 7 6 5 4 4 4 4 5 6 6 7 8 8 10 13 13 14 18 18 16 15 16 20 25 28 26 26 27 34 50 77 85 75 85 92 96 94 91 96 90 88 88
60 70 42 32 32 19 18 7 4 6 6 6 7 6 5 5 5 5 5 6 7 7 8 9 11 13 13 15 14 14 14 13 12 14 15 18 19 20 20 26 38 29 42 71 84 76 88 87 100 86 89 95 90 85
53 45 45 34 35 22 27 20 6 5 6 5 6 7 6 6 5 5 6 6 7 8 9 10 12 15 15 12 12 12 12 12 12 11 11 13 14 13 17 25 34 21 30 42 78 77 84 87 85 88 82 86 91 95
62 43 47 32 31 32 25 16 9 6 6 6 7 8 7 6 6 6 7 7 8 9 9 11 13 15 16 14 13 10 11 10 9 9 10 11 10 10 16 29 24 21 27 29 39 73 82 91 85 71 76 90 89 94
64 53 39 37 29 28 30 27 12 6 6 6 8 8 8 7 7 7 8 8 8 10 11 12 15 16 16 13 12 12 10 10 8 8 8 8 8 8 16 19 17 19 25 27 29 37 72 86 89 67 47 56 89 95
62 60 48 39 39 32 29 34 19 8 6 6 8 8 8 7 8 8 9 9 9 10 12 13 14 16 15 14 12 12 11 9 7 7 8 8 8 10 14 17 19 18 21 24 28 31 37 73 88 73 45 43 64 95
65 53 41 34 32 34 41 30 15 13 6 6 8 8 7 8 9 10 10 9 9 10 12 14 14 16 14 15 15 13 13 10 9 8 7 7 6 8 10 12 15 16 19 22 26 29 29 49 85 77 48 55 72 70
46 56 41 42 37 29 30 21 15 12 10 7 7 8 8 9 10 10 10 10 9 10 12 14 15 17 14 15 16 14 14 12 10 10 9 7 4 3 6 12 16 18 20 22 25 26 27 32 69 81 52 52 60 76
84 51 47 47 36 30 22 17 10 11 11 10 7 6 8 9 11 11 10 9 10 10 12 14 16 18 16 17 18 17 15 15 14 13 12 10 7 7 9 14 18 20 22 23 25 26 27 30 38 75 66 53 62 73
67 66 62 48 32 30 20 12 10 9 10 11 9 7 8 10 11 11 10 9 9 10 11 13 16 18 17 17 21 22 18 17 18 16 16 13 11 9 9 15 21 24 28 27 26 28 29 30 31 41 76 69 63 68
61 40 34 28 29 24 15 11 8 10 10 10 10 9 8 10 11 11 10 9 10 10 10 13 15 18 19 18 21 23 22 21 22 19 20 21 17 14 12 11 11 15 22 26 27 26 26 29 29 29 39 80 83 69
51 33 32 25 21 16 10 9 8 10 10 10 12 9 8 9 10 10 9 9 9 10 11 12 14 16 20 21 19 22 23 24 26 24 24 25 24 20 15 15 15 15 15 16 17 22 28 31 30 29 31 40 78 94
32 25 20 18 15 11 10 10 8 10 10 10 12 10 9 10 9 9 8 9 9 10 10 11 13 14 17 20 19 19 24 25 27 30 31 29 29 28 23 24 25 21 20 18 17 17 19 25 32 34 31 32 38 58
25 19 13 10 9 8 8 10 9 9 11 11 10 9 8 10 9 7 8 8 8 8 10 11 13 14 14 15 15 21 25 26 26 30 30 28 25 29 29 31 39 41 45 44 36 25 22 21 28 35 37 33 33 34
14 13 11 9 8 8 10 10 10 11 12 12 10 8 7 8 9 7 7 7 7 8 8 10 12 12 13 16 19 26 30 32 34 37 35 31 27 24 30 32 31 39 48 50 54 57 49 38 33 29 30 35 38 40
12 10 9 7 8 9 10 10 11 13 14 14 10 8 6 6 9 8 6 6 6 7 7 9 11 12 12 13 17 22 27 29 35 37 37 35 32 28 28 33 32 32 35 40 50 58 62 63 61 53 42 36 32 33
10 10 9 8 9 9 9 10 12 14 14 12 9 7 6 6 8 8 6 6 6 6 8 8 9 10 12 13 19 23 27 29 32 36 33 29 25 28 30 33 36 34 30 31 30 33 43 50 50 50 52 49 47 47
9 9 9 9 8 7 8 11 11 13 11 8 7 6 6 6 6 6 5 5 5 6 8 7 9 10 12 14 16 21 24 28 28 36 39 30 27 28 30 31 30 29 32 37 44 50 48 43 40 39 37 42 45 47
10 10 10 9 8 7 9 11 10 8 6 6 5 5 5 4 4 5 5 5 5 6 7 8 9 11 12 14 16 19 23 29 33 36 37 35 31 32 32 29 28 32 33 32 33 31 29 28 29 31 35 41 47 47
10 9 7 7 7 8 8 7 6 4 4 4 4 4 4 4 4 5 5 5 6 7 7 8 9 11 12 14 16 20 24 28 32 34 32 35 36 32 32 30 32 34 36 37 37 35 35 34 33 31 30 28 27 27
7 6 5 6 6 5 4 3 2 3 3 3 4 4 5 4 5 6 5 5 7 8 8 8 10 11 12 14 16 20 24 28 33 35 35 35 37 32 28 28 29 30 29 28 29 28 29 29 30 30 31 31 31 30
5 4 4 4 3 2 2 2 3 3 3 4 5 5 5 6 7 6 4 6 7 8 9 9 10 11 12 14 17 20 25 29 32 34 36 34 33 32 30 28 26 25 25 24 24 24 24 24 24 25 25 25 25 26
3 3 2 2 2 2 2 3 4 4 4 4 4 5 5 6 6 5 5 7 7 8 9 9 10 11 12 15 17 20 25 29 32 34 35 35 34 31 29 28 27 25 24 23 23 23 23 23 22 22 22 21 21 21
2 2 2 2 3 3 4 4 3 3 3 3 4 4 4 4 4 4 5 6 6 7 9 9 10 11 13 15 18 20 24 28 30 32 34 34 33 31 29 27 25 24 23 23 22 22 22 22 22 22 21 20 19 20
2 2 3 3 3 3 3 3 3 3 3 3 3 3 3 4 3 4 4 5 6 7 8 9 10 12 14 17 20 22 24 29 32 33 32 33 32 30 29 28 27 26 24 23 22 22 22 22 21 21 21 20 20 19
3 3 3 3 4 4 3 3 3 2 2 3 3 3 3 3 3 4 5 6 7 8 9 10 10 12 15 18 20 23 26 30 32 32 32 29 28 28 28 26 25 23 22 22 21 21 20 20 20 21 21 20 19 18
3 4 4 4 3 2 2 2 2 2 2 2 3 3 3 3 4 4 5 6 8 9 9 10 11 12 15 18 20 23 26 29 28 29 29 28 28 27 26 25 24 23 22 21 20 19 20 20 20 19 19 19 17 14
3 3 2 2 2 2 2 1 1 1 2 2 2 3 4 4 4 4 5 7 9 10 10 10 11 13 16 18 21 23 25 26 27 27 26 26 26 25 25 24 22 22 21 20 19 19 19 18 18 16 13 10 9 10
2 2 2 2 2 2 2 2 2 2 2 2 2 3 3 3 4 5 6 8 9 8 9 10 12 14 17 20 22 23 24 25 24 24 24 24 24 24 23 22 22 20 20 20 21 20 17 14 10 8 9 10 11 11

GFSWCAN_250_rhum_036.txt.gz
RH
53 46 36 44 37 35 28 34 25 19 11 12 13 12 10 7 6 5 4 4 4 4 4 5 6 8 10 11 12 12 16 13 20 24 24 24 25 29 32 46 59 55 53 58 83 90 93 79 78 91 72 70 75 83
69 71 51 53 39 32 26 20 21 12 8 11 8 8 8 6 6 4 4 4 4 4 4 5 6 8 11 12 14 14 16 24 32 21 26 27 30 29 33 49 68 73 68 66 66 82 88 94 94 91 95 87 87 97
90 82 70 48 46 33 26 10 13 11 9 10 7 8 8 5 5 5 4 4 4 4 5 6 7 9 10 12 13 14 16 17 26 32 38 36 33 30 34 33 50 66 74 79 81 80 76 83 92 96 92 88 96 88
86 83 79 58 45 31 21 17 9 9 9 9 8 6 8 6 6 5 5 4 5 5 5 7 8 9 10 12 14 14 15 20 28 32 47 56 47 39 36 37 40 45 70 75 83 83 88 84 93 96 96 93 91 96
89 83 80 69 50 34 24 16 9 8 7 8 6 5 6 7 5 5 6 5 5 5 6 8 9 10 12 14 17 17 17 16 25 26 31 39 42 38 38 35 51 45 38 46 69 86 89 93 89 94 98 96 94 88
95 81 73 60 52 42 30 27 25 17 10 11 6 5 5 6 6 6 6 6 6 6 7 8 10 11 12 14 16 18 20 18 19 21 23 31 31 17 20 30 42 26 28 35 39 58 86 95 88 98 99 94 94 93
84 75 71 55 44 40 34 30 27 26 17 18 6 6 5 7 8 7 7 7 6 6 8 9 10 12 12 14 17 19 18 16 16 19 20 18 18 12 14 23 35 21 22 25 38 37 59 92 94 90 92 96 96 92
89 83 75 62 53 44 37 38 35 31 22 13 7 5 5 7 7 9 8 8 8 8 8 9 11 12 13 16 19 19 19 18 15 13 13 13 13 8 13 28 23 23 21 22 24 31 37 48 84 89 92 92 95 91
86 77 76 65 60 51 38 44 39 37 29 20 8 5 6 8 9 11 10 9 9 9 10 10 12 13 14 16 18 19 18 16 12 13 13 13 11 10 12 10 14 19 19 22 28 29 31 34 41 66 90 91 85 92
93 86 84 78 70 56 59 53 48 39 31 25 9 5 6 7 10 11 10 10 10 11 10 10 12 12 13 14 18 18 16 15 14 14 11 10 9 8 9 11 13 13 19 24 27 30 31 34 34 42 62 91 90 84
100 100 96 81 83 67 61 69 50 46 34 24 17 9 5 6 12 12 11 11 11 11 11 10 12 12 12 14 15 14 14 16 14 13 12 10 9 8 8 9 11 15 20 23 24 29 32 32 32 36 43 56 80 87
100 100 100 97 88 86 77 57 37 44 31 30 21 15 8 6 11 11 12 11 11 11 11 10 11 12 12 14 14 14 14 17 16 16 13 11 10 9 7 6 8 13 16 19 20 24 28 30 33 31 34 37 50 80
100 100 100 90 78 71 64 54 44 39 34 27 20 15 13 13 10 9 11 12 11 11 11 11 11 12 12 14 14 14 14 18 18 18 14 13 12 11 8 6 4 10 16 19 21 21 25 25 26 28 29 33 38 62
100 100 93 84 86 78 64 51 48 48 39 26 20 17 20 14 10 8 10 12 11 10 11 11 11 12 13 13 14 14 14 17 20 22 19 16 16 14 12 9 6 6 11 18 22 22 23 24 26 30 30 31 34 52
100 100 94 84 88 65 54 47 40 40 30 28 14 16 16 12 11 10 9 10 11 10 9 11 10 12 13 14 14 14 14 16 20 22 22 21 18 19 16 13 10 8 10 16 20 23 25 28 29 32 34 32 33 37
95 86 88 84 81 59 60 38 44 36 30 22 16 12 10 10 12 11 9 8 9 10 10 9 10 11 12 14 14 14 16 17 19 24 24 25 22 22 20 19 16 14 15 15 16 18 21 24 27 28 30 31 32 36
88 81 67 62 70 80 53 44 36 33 34 19 13 10 10 10 10 12 10 8 8 8 9 10 10 10 10 12 14 13 15 17 20 28 30 30 26 26 25 26 25 21 18 18 19 18 18 20 26 31 32 30 31 32
80 81 66 72 65 49 39 40 38 19 13 14 12 11 10 10 10 9 10 9 8 8 9 10 10 10 10 11 12 13 15 17 21 25 33 34 32 30 30 28 34 38 34 32 30 27 23 19 17 17 21 28 33 34
54 54 62 59 51 37 33 30 17 10 12 13 13 12 12 9 7 8 9 10 10 8 8 9 10 9 9 9 11 13 16 16 17 21 26 32 32 32 30 31 32 38 40 48 56 53 50 47 37 27 22 25 31 34
36 43 47 28 22 20 15 12 11 10 13 14 13 13 11 8 7 7 7 8 10 10 7 8 9 9 8 8 10 12 14 14 15 18 23 31 33 31 28 27 28 34 37 37 46 56 62 59 57 54 49 40 30 30
26 22 18 15 12 12 10 10 10 13 14 14 14 13 9 8 7 7 6 6 7 8 7 6 8 7 7 7 9 10 12 13 14 18 19 26 30 37 36 29 25 25 29 34 35 36 40 47 53 58 58 57 53 49
15 14 12 10 9 9 9 11 12 14 13 12 12 10 8 8 8 7 6 6 6 6 6 6 6 6 6 7 8 9 11 13 14 16 17 24 29 32 32 31 28 26 30 33 34 34 34 34 34 40 46 48 47 44
12 11 8 8 9 9 10 12 12 12 10 10 9 8 7 7 7 6 6 5 5 4 5 4 5 5 6 7 8 9 10 12 13 13 15 22 29 32 30 29 32 31 28 28 32 34 38 43 48 49 49 49 46 44
9 8 9 9 10 10 11 10 9 8 7 6 5 5 6 5 4 4 4 4 3 4 4 4 5 5 6 7 8 9 9 10 11 13 16 24 28 29 31 32 33 32 28 26 25 27 30 31 30 29 29 29 29 29
8 8 9 10 11 12 10 8 7 6 5 4 4 4 4 3 4 4 4 3 4 4 4 5 5 6 7 8 8 9 9 10 11 13 18 25 26 26 28 30 32 33 30 27 26 26 24 26 29 30 31 32 32 32
9 8 9 10 8 6 6 5 4 4 4 4 3 3 3 3 3 4 4 5 5 5 5 6 6 6 7 8 7 8 9 10 11 14 20 24 23 23 27 32 33 33 34 29 26 26 24 23 24 25 26 26 27 27
9 9 9 6 4 3 3 3 3 3 3 3 3 3 4 4 4 4 4 5 5 4 5 5 5 6 7 8 8 9 9 10 12 15 21 23 22 23 27 31 33 34 34 32 29 28 26 25 25 24 24 24 24 24
6 4 3 3 3 3 2 3 3 3 3 3 4 4 3 3 3 3 3 4 4 4 4 5 5 6 7 8 8 10 10 11 13 18 22 23 23 25 27 29 30 30 30 29 28 27 26 25 23 23 23 23 23 22
3 3 3 3 2 3 3 3 4 4 4 3 3 2 2 2 2 3 3 3 3 3 4 4 5 7 8 9 9 10 11 12 15 20 23 25 25 26 28 28 28 28 28 28 27 26 24 24 24 23 22 21 21 21
2 2 3 3 3 4 4 3 3 2 2 2 2 2 2 2 2 2 2 2 2 3 4 5 6 7 8 8 9 10 11 14 17 20 21 22 23 26 28 28 27 26 26 25 24 24 24 23 22 22 22 22 22 22
3 3 3 3 3 2 2 2 2 2 2 2 2 2 2 2 2 2 2 2 2 3 4 5 5 6 8 8 10 11 12 15 18 20 21 22 24 25 25 25 25 26 26 26 25 24 23 22 22 21 21 21 21 21
3 3 2 2 2 2 2 3 3 3 2 2 2 2 2 2 2 2 2 3 3 4 4 4 5 6 8 8 10 11 13 15 18 20 20 21 23 24 25 26 26 25 24 23 23 22 22 22 22 21 21 20 19 19
2 2 2 3 3 2 2 3 2 2 2 2 2 2 2 2 2 3 3 4 4 4 5 5 6 7 8 9 10 11 13 15 17 19 21 22 23 24 24 24 23 22 22 21 22 22 21 20 18 17 16 15 14 13

GFSWCAN_250_rhum_039.txt.gz
RH
74 63 47 36 37 36 31 35 38 38 42 32 31 22 19 15 17 14 10 13 8 5 4 4 4 5 6 8 9 10 12 12 16 16 16 19 21 24 24 28 29 40 64 66 73 65 64 61 58 57 56 59 74 84
79 70 54 47 38 35 28 30 37 36 36 31 23 20 18 12 15 12 11 12 9 5 4 4 5 5 6 8 9 10 14 14 16 20 23 24 24 26 28 28 32 38 48 73 70 69 68 74 68 64 68 64 66 70
75 73 70 56 56 48 37 38 26 29 35 26 17 22 11 11 10 16 17 12 10 6 5 5 5 6 7 9 10 11 13 14 14 16 27 38 28 32 34 33 36 37 44 52 71 71 70 80 79 81 77 78 78 72
90 84 85 80 67 58 53 36 28 28 24 19 17 16 10 9 8 11 17 12 9 6 5 5 5 7 8 9 10 12 14 15 15 17 29 37 38 40 36 37 46 38 42 43 58 72 81 86 79 84 84 80 81 87
99 97 98 88 85 76 63 46 40 24 23 16 17 12 7 8 8 8 17 15 10 8 5 5 6 7 9 10 12 14 15 18 20 20 22 29 38 43 50 48 71 53 43 44 38 53 68 79 85 77 82 84 88 87
100 100 99 97 95 86 73 60 51 33 30 24 17 10 10 7 7 8 15 16 11 12 6 6 7 8 10 11 12 14 16 17 18 19 23 29 22 28 45 62 82 51 40 37 50 52 51 61 86 90 83 84 85 86
100 100 100 100 92 87 80 72 57 55 48 36 22 11 7 7 7 7 13 13 13 15 8 7 8 9 10 12 13 14 17 17 17 17 17 17 17 21 31 58 74 46 43 55 37 50 58 48 54 74 92 90 86 90
100 100 100 100 100 99 95 86 83 69 48 38 26 16 8 8 7 6 14 13 12 14 8 8 8 9 12 13 13 14 17 18 16 17 19 16 14 14 19 28 44 31 21 18 25 33 34 40 50 48 55 78 93 91
100 100 100 100 100 100 98 88 89 75 59 42 34 28 11 7 8 9 14 13 16 14 10 9 9 10 12 13 14 14 14 15 17 16 15 16 14 14 15 17 18 15 18 18 17 17 33 33 38 46 48 44 51 77
100 100 100 100 100 96 96 92 85 65 56 44 48 30 23 16 8 8 13 12 13 15 12 10 10 10 11 14 15 15 16 16 16 18 18 14 13 13 14 13 12 13 12 14 15 16 21 30 31 37 39 47 46 47
100 100 100 100 100 95 93 77 71 66 61 50 55 43 35 30 14 11 12 12 11 13 12 12 10 10 11 12 14 15 16 16 15 17 18 16 16 14 13 11 11 11 11 13 17 18 20 23 35 38 38 36 38 42
100 100 100 99 93 81 72 75 67 68 58 57 60 55 42 28 30 23 14 12 11 11 12 12 11 11 12 12 13 13 14 16 17 19 17 15 17 16 15 13 11 10 10 12 15 18 22 24 31 40 39 36 35 39
100 95 82 79 73 74 81 81 71 69 64 64 64 59 44 37 33 21 15 12 10 8 11 12 12 12 13 13 13 13 13 15 16 16 17 16 16 19 16 13 12 9 7 9 13 18 22 27 31 35 35 34 36 38
98 88 95 98 88 83 84 92 82 82 75 91 81 81 47 34 26 15 15 13 12 9 8 12 12 11 12 12 13 13 13 14 15 15 15 18 18 20 19 16 13 11 8 6 8 13 19 24 27 27 28 30 34 35
96 100 100 100 100 100 90 79 90 87 93 86 77 68 54 42 26 16 12 11 12 11 10 8 12 11 12 11 12 13 14 14 13 12 15 20 23 23 23 19 16 15 12 9 7 11 19 23 25 26 27 26 28 32
100 100 100 100 100 100 100 97 100 86 91 91 83 66 37 29 28 16 11 11 11 12 12 9 10 12 11 12 12 12 14 11 11 13 18 18 24 23 25 23 20 18 17 13 13 12 13 19 24 25 26 28 31 35
100 100 100 100 100 94 91 95 83 98 88 84 88 57 26 28 17 13 9 10 10 12 12 8 8 10 13 11 11 12 12 13 14 15 18 17 21 29 28 26 21 21 22 20 17 16 16 18 21 24 26 27 28 29
100 100 100 100 100 100 90 92 76 73 81 81 65 40 23 16 13 10 9 9 10 12 12 11 8 8 10 14 12 11 12 12 14 15 14 15 16 26 30 31 27 20 21 24 26 23 19 18 18 19 18 20 23 27
100 100 100 100 100 94 82 75 58 61 64 56 35 26 16 13 9 9 9 9 11 11 11 10 9 8 8 11 13 11 11 11 12 14 14 16 17 19 31 35 33 27 22 24 26 32 32 31 28 25 22 20 18 18
100 100 100 96 92 84 83 56 43 59 73 47 19 14 12 10 9 9 10 11 11 10 8 6 7 9 8 7 9 10 9 10 11 11 12 13 16 17 20 30 34 34 31 25 27 30 34 37 42 43 42 41 36 27
100 100 93 95 78 54 34 45 64 61 38 21 13 11 9 8 10 10 12 12 11 8 5 5 6 6 6 6 7 8 8 8 9 10 9 11 14 16 17 21 31 35 34 34 32 32 37 36 35 41 43 45 47 50
83 85 71 62 33 28 30 38 23 17 14 11 9 8 9 10 11 14 12 13 10 5 3 4 4 4 4 5 5 6 6 7 7 8 8 10 12 14 16 18 24 31 34 34 31 28 31 38 42 42 41 44 52 52
62 42 25 18 21 28 23 16 16 12 9 8 8 9 10 11 14 12 11 10 6 3 4 3 3 3 4 4 4 5 5 5 6 6 7 8 10 13 15 16 20 27 32 32 34 32 29 30 32 36 39 37 36 36
17 16 15 13 15 16 15 12 10 8 7 8 9 10 10 11 9 9 8 4 3 3 3 3 3 3 3 4 4 4 5 5 5 6 7 8 9 11 14 15 18 24 28 31 33 33 31 29 27 29 34 38 40 40
13 13 12 14 14 12 9 7 7 7 8 10 9 9 9 8 6 5 4 3 3 3 3 3 3 3 4 5 4 4 5 5 5 6 7 8 9 11 12 14 17 22 27 29 31 35 33 30 29 28 28 29 30 30
13 12 13 10 8 7 7 7 8 9 10 9 7 6 5 4 3 3 2 2 2 3 3 4 4 4 5 5 5 5 6 6 6 6 8 8 10 11 12 14 17 21 26 28 30 32 32 31 30 30 28 27 27 28
10 9 8 9 8 7 6 6 7 6 6 5 4 3 3 2 2 2 2 2 3 3 3 3 3 4 5 6 6 6 6 6 7 7 8 9 10 11 12 14 16 22 25 28 31 32 32 33 30 29 28 27 26 24
13 12 10 7 6 5 4 5 5 5 4 3 3 2 2 2 2 2 3 3 3 3 3 3 3 4 4 5 5 6 6 6 7 8 8 9 10 11 13 16 18 22 24 28 30 31 32 32 30 29 29 28 27 25
10 8 6 5 4 4 5 4 4 3 2 2 2 2 2 2 2 3 3 3 3 2 2 3 3 4 4 4 5 5 6 7 8 8 8 10 11 12 14 16 19 22 25 26 27 28 29 30 29 28 28 27 25 23
4 4 4 4 4 4 3 3 2 2 2 2 2 2 2 2 2 3 2 2 2 2 2 2 3 3 3 4 5 5 6 7 8 8 8 10 11 13 15 18 20 22 23 25 26 27 28 28 28 27 26 24 23 23
3 3 3 3 3 3 2 2 2 3 2 2 2 2 2 2 2 2 2 2 2 2 2 3 3 3 4 4 5 6 7 7 8 8 9 11 13 15 16 18 20 22 24 25 25 25 26 26 25 24 23 23 22 22
3 3 3 3 2 2 2 2 3 2 2 2 2 2 2 2 2 2 2 2 2 3 3 3 3 3 4 5 5 6 7 7 8 9 11 13 15 16 18 20 22 23 24 25 25 25 25 24 23 23 23 22 22 22
3 3 2 2 2 2 2 2 2 2 2 2 2 2 2 2 2 2 3 3 3 3 3 4 4 4 5 5 6 7 7 8 9 10 12 14 16 18 20 22 23 23 23 22 22 23 23 22 22 22 21 20 19 18

GFSWCAN_250_rhum_042.txt.gz
RH
70 62 61 53 56 54 53 58 50 50 50 40 44 37 32 29 25 20 22 22 15 18 18 12 6 4 4 5 6 7 9 10 14 15 15 16 19 21 21 23 24 25 32 52 61 60 73 67 56 44 50 54 60 55
68 70 72 66 62 53 59 63 55 47 44 37 41 39 34 32 24 18 20 21 19 19 17 10 6 5 5 5 7 8 9 11 13 16 19 20 25 24 26 29 29 27 26 35 50 64 71 76 72 68 56 62 67 71
79 78 74 64 65 58 63 60 48 44 40 29 40 30 37 32 22 18 25 20 20 15 16 11 7 5 5 6 7 8 10 12 14 15 20 22 25 28 27 29 40 39 35 32 38 48 64 75 82 88 82 72 60 67
82 92 95 82 72 61 54 57 52 45 34 28 32 28 23 27 21 19 31 18 17 18 26 13 8 6 6 6 8 9 11 12 14 16 20 20 20 35 38 44 52 54 56 42 42 40 58 63 80 82 91 98 92 83
72 81 83 86 77 72 65 73 64 54 44 30 33 23 27 22 25 26 26 16 14 28 25 16 9 7 7 7 8 10 11 13 15 16 18 19 23 48 42 46 72 43 48 56 56 46 55 55 60 71 86 89 99 100
100 100 96 100 100 88 87 80 76 63 56 48 33 19 23 26 20 21 23 11 14 25 24 23 11 8 8 8 9 10 12 13 15 17 18 18 21 36 43 50 59 58 44 45 61 51 66 62 59 66 82 90 96 93
100 100 100 100 99 100 92 94 84 76 66 56 46 33 30 23 22 31 16 12 13 24 34 29 20 9 9 9 10 11 12 14 14 17 20 20 21 27 35 37 44 38 25 33 48 44 53 56 49 46 49 72 88 97
100 100 100 100 100 100 90 86 94 82 76 72 56 49 40 33 28 18 9 9 15 19 36 46 39 13 10 10 10 11 12 13 14 16 18 21 23 23 22 27 34 28 32 33 39 50 54 46 39 55 57 53 52 64
100 100 100 100 100 97 99 100 100 99 100 81 71 58 54 48 42 17 10 7 10 18 25 26 40 19 12 10 10 10 12 13 14 14 16 18 20 18 21 19 21 26 35 24 11 15 24 36 42 50 44 49 47 52
100 100 100 100 100 100 100 100 98 100 95 88 82 77 74 55 40 22 16 20 10 16 22 19 19 19 14 12 12 11 11 13 13 13 14 16 14 14 15 15 15 17 21 16 15 18 19 20 27 38 45 46 51 44
100 100 100 100 100 100 100 98 92 100 96 89 90 83 63 49 35 31 30 24 28 29 16 12 18 16 16 14 13 12 12 12 14 14 14 12 11 12 13 14 14 14 15 15 15 14 14 18 21 29 38 43 44 48
100 100 100 100 100 100 100 100 100 100 94 83 70 55 50 42 43 35 39 34 32 30 24 19 13 12 16 15 14 13 13 13 14 14 14 12 14 14 15 17 15 15 14 14 13 13 14 17 22 26 32 37 40 43
100 100 100 100 100 100 100 100 100 92 83 72 52 56 44 47 52 38 45 45 40 23 20 22 17 11 13 16 16 13 13 12 14 14 12 13 14 13 15 17 17 18 16 13 12 11 14 16 19 21 25 32 34 40
100 100 100 100 100 100 99 90 77 73 67 72 67 51 52 62 65 55 50 46 42 29 17 16 12 11 12 13 16 15 13 12 11 10 12 13 14 15 16 15 18 21 19 16 14 10 8 13 18 21 20 24 30 36
100 100 100 100 100 96 81 79 78 68 73 67 62 70 52 68 68 55 52 52 42 33 21 20 14 11 10 12 13 17 14 12 11 10 10 12 14 18 16 18 17 21 22 17 16 11 7 7 12 20 23 25 27 30
100 100 100 100 95 93 86 100 95 76 76 70 70 61 70 60 66 58 61 48 48 31 28 19 12 11 10 12 13 13 16 13 12 10 11 13 14 15 14 17 18 20 23 22 19 17 12 10 8 12 19 25 28 29
100 100 100 98 100 100 93 73 79 83 80 82 83 79 62 58 55 54 49 59 41 50 23 16 12 10 8 10 14 12 12 14 12 11 10 14 14 13 14 15 17 19 20 24 22 20 18 13 13 12 14 19 24 27
100 97 97 99 100 93 86 83 81 72 79 81 79 84 76 68 65 55 57 52 50 18 14 13 10 9 8 8 10 12 11 10 12 13 10 10 12 12 13 15 16 16 19 24 29 26 23 22 18 16 16 17 19 20
96 100 100 100 100 87 85 88 90 99 100 92 84 86 78 65 62 68 68 89 38 13 13 12 9 8 8 8 8 9 8 8 8 10 10 8 10 11 11 14 15 15 16 21 31 31 27 25 26 23 20 20 20 20
100 100 100 94 89 99 100 100 100 100 100 100 86 80 75 72 62 70 82 52 17 12 11 9 8 7 6 7 6 6 6 6 6 8 8 7 9 10 10 11 13 15 14 16 26 33 32 31 28 30 33 33 32 28
100 100 100 100 100 100 100 100 100 100 100 100 79 77 73 74 68 56 48 26 15 13 10 7 6 5 6 5 4 4 4 5 5 6 6 7 8 9 8 9 11 13 14 14 17 26 30 30 32 35 40 40 40 44
100 100 100 100 100 100 100 100 100 98 88 92 90 74 73 68 67 51 19 13 14 12 8 7 5 5 4 4 3 3 4 4 4 4 6 6 6 8 8 9 10 11 13 15 16 19 30 34 32 30 28 31 36 40
100 100 100 100 99 95 100 96 93 86 61 76 68 65 63 64 43 13 13 14 14 7 6 5 5 4 3 3 2 3 3 4 4 4 4 4 5 7 7 8 8 10 11 13 16 20 23 31 34 36 35 33 34 34
99 99 100 100 98 92 96 89 80 72 75 73 66 56 52 24 12 12 13 12 6 5 5 4 3 3 3 2 2 3 3 4 4 4 4 4 4 5 6 7 7 9 10 12 15 16 21 29 34 34 34 32 32 36
100 100 100 100 100 98 83 69 69 59 56 54 47 28 12 10 10 12 10 4 4 3 3 3 3 2 2 2 3 4 4 4 4 4 4 4 4 5 6 6 7 8 10 11 13 15 20 27 31 33 35 34 31 31
99 96 96 98 87 73 65 63 49 38 33 18 10 8 9 10 9 5 3 3 3 3 3 3 2 2 3 3 4 4 4 4 5 5 5 4 5 5 6 6 7 8 10 10 12 14 18 24 29 31 33 35 34 32
100 100 100 85 48 30 19 12 10 9 9 8 8 10 8 6 4 3 2 2 2 3 3 3 3 3 3 3 3 4 4 4 5 5 5 5 6 6 6 7 8 9 10 11 12 14 17 24 28 31 32 33 33 32
40 28 18 12 10 8 8 8 8 8 7 7 7 5 4 3 3 2 2 3 3 3 3 3 3 3 3 3 3 3 3 4 5 5 5 6 6 6 7 7 8 8 9 10 12 14 18 22 25 27 28 30 32 31
11 9 7 7 7 7 8 7 5 5 5 4 4 4 3 2 2 2 3 3 3 3 3 2 2 3 2 3 3 3 3 4 4 5 5 6 7 7 7 7 8 9 10 11 13 17 20 22 24 25 26 28 30 30
9 8 9 10 8 7 6 5 4 4 3 3 3 3 2 2 3 2 3 3 3 3 3 2 2 2 2 2 3 3 3 3 4 4 5 6 7 7 8 8 9 10 11 13 16 18 20 21 23 24 26 27 28 28
8 7 7 7 6 6 5 4 3 3 3 2 2 2 3 3 2 2 2 3 4 4 3 2 2 2 2 2 2 3 3 4 4 5 6 7 8 8 8 9 10 12 14 16 18 19 20 22 24 25 26 26 26 25
6 6 6 5 5 4 3 3 3 3 2 2 2 2 2 2 2 2 2 4 4 2 2 2 2 2 2 2 2 3 3 4 5 5 6 7 8 8 9 10 11 13 15 16 18 19 20 21 22 23 23 23 23 23
5 4 4 4 4 3 3 2 3 3 3 2 2 2 2 3 2 2 3 3 2 1 1 2 2 2 2 2 3 3 4 5 6 6 7 7 8 8 10 11 13 14 15 16 18 19 20 20 20 21 21 21 21 21

GFSWCAN_250_rhum_045.txt.gz
RH
100 100 100 99 88 83 80 68 63 58 61 66 66 57 49 39 38 33 31 26 24 23 35 36 26 12 6 5 6 6 8 9 12 13 14 15 17 18 23 26 27 24 25 30 36 48 51 52 64 74 71 52 42 47
100 93 86 86 87 81 73 64 62 68 67 64 65 56 56 46 43 35 33 30 24 31 28 30 24 15 8 6 6 8 8 10 12 14 16 17 20 20 26 30 37 37 33 31 31 36 49 57 59 63 77 72 50 47
100 98 92 85 68 67 64 71 68 62 68 64 59 54 55 48 49 37 38 32 26 22 23 28 20 26 11 7 7 8 9 11 13 15 16 18 20 27 27 32 38 36 32 28 29 27 35 51 63 64 64 76 82 78
79 77 77 92 84 89 88 72 71 73 78 64 54 57 56 58 48 41 50 32 25 21 24 26 20 25 21 8 8 9 10 11 13 16 17 17 20 22 22 26 32 46 50 44 48 37 45 51 73 86 78 72 85 96
95 99 100 100 100 100 100 100 92 77 67 52 49 59 59 59 43 42 40 32 28 26 24 25 28 31 37 15 9 10 10 11 13 15 17 19 21 27 24 25 23 37 44 52 56 50 54 41 49 65 78 88 83 85
100 100 100 100 100 100 100 100 92 90 79 60 56 50 52 53 43 34 40 25 25 19 21 25 31 35 46 29 12 11 11 10 12 15 16 18 22 26 27 24 29 31 34 27 40 44 57 54 54 39 40 58 79 91
100 84 100 100 100 98 100 100 100 100 89 61 62 47 43 44 31 27 24 30 27 20 22 23 36 46 45 46 22 12 12 11 11 13 15 17 21 22 23 20 24 25 22 22 32 46 56 77 74 63 52 51 57 68
100 100 100 100 100 100 100 100 97 100 71 78 77 64 49 40 30 26 25 25 19 19 20 20 33 44 51 59 64 15 12 12 12 13 14 16 17 18 19 20 22 21 23 22 24 42 62 51 55 72 57 59 58 65
100 100 100 100 100 100 100 100 100 94 92 100 91 67 60 51 49 34 30 25 19 15 18 22 32 41 49 57 77 22 13 13 13 13 13 14 15 16 18 19 20 21 22 23 36 50 50 45 30 34 42 66 65 60
100 100 100 100 100 100 100 100 100 100 100 98 79 79 83 69 56 39 37 43 32 20 17 16 15 33 35 42 59 25 19 14 13 13 13 13 13 16 17 17 17 17 16 22 28 30 20 13 15 18 20 36 53 52
100 100 100 100 100 100 100 100 100 100 96 87 94 99 87 78 62 62 59 47 36 29 33 26 22 21 19 32 48 47 23 17 15 13 12 11 12 13 16 16 16 15 15 14 18 19 18 16 18 19 22 28 39 46
100 100 100 100 100 100 100 100 100 100 100 100 99 85 88 85 88 77 68 53 40 36 26 25 29 27 29 18 35 51 24 18 15 14 12 12 14 12 14 15 14 14 14 13 16 16 16 16 15 16 18 21 28 38
100 100 100 100 100 100 100 100 100 100 100 100 97 88 90 95 93 78 70 48 41 41 39 41 38 29 44 40 28 19 17 18 16 14 12 12 12 12 13 13 14 14 13 13 14 16 16 15 14 15 17 19 23 29
100 100 100 100 100 100 100 100 100 100 100 100 100 98 92 100 87 77 60 50 46 53 46 51 57 52 51 49 40 26 16 14 17 16 14 12 12 12 12 14 13 15 14 14 14 14 15 16 14 13 16 19 22 24
100 100 100 100 100 100 100 100 100 100 100 100 100 100 100 93 85 71 59 46 58 52 50 59 65 54 66 56 49 21 29 17 15 16 17 14 11 12 13 13 13 14 14 14 15 14 16 16 14 12 11 15 20 23
100 100 100 100 100 100 100 100 100 100 100 100 100 100 100 89 79 66 54 58 59 52 58 63 64 62 61 50 37 50 14 15 16 20 16 14 12 11 12 13 12 12 13 14 15 15 16 19 17 14 9 8 11 18
100 100 100 100 100 100 100 100 100 100 100 100 100 100 98 83 68 59 60 67 64 66 65 61 62 62 48 80 24 18 11 12 13 15 19 13 10 12 11 12 11 12 12 13 14 15 19 21 19 18 16 11 10 10
100 100 100 100 100 100 100 100 100 100 100 98 95 94 84 74 60 57 63 75 66 70 69 59 57 68 61 43 47 11 10 10 11 11 10 10 7 7 9 11 10 10 12 13 13 14 16 22 22 21 20 18 14 13
100 100 100 100 100 100 100 100 100 100 97 84 89 75 75 73 56 77 80 69 62 74 73 56 52 69 44 28 12 11 9 8 8 8 7 5 5 5 7 8 9 9 11 12 12 13 15 20 22 23 23 22 22 19
100 100 100 100 100 100 100 100 100 93 94 79 62 60 71 70 77 76 76 75 78 78 70 54 50 55 30 13 8 7 7 6 6 6 5 4 3 4 5 6 7 8 10 11 11 11 14 18 20 23 26 28 28 29
100 100 100 100 100 100 100 100 100 96 89 73 61 78 93 79 74 70 67 66 80 86 46 30 45 34 19 9 8 6 5 4 4 4 4 4 3 3 4 4 6 7 8 10 10 10 12 16 18 22 25 27 30 30
100 100 100 100 100 98 100 100 92 82 62 67 70 75 93 87 85 68 70 81 80 45 29 43 36 15 8 8 6 5 3 3 3 3 3 3 3 3 4 4 5 6 7 8 9 10 11 15 18 20 25 28 29 30
100 100 100 100 96 100 100 100 95 86 69 68 72 77 78 76 80 70 82 85 56 29 39 27 16 9 7 7 6 4 3 2 2 3 3 3 3 3 4 4 5 5 6 8 9 9 10 12 15 17 21 28 32 35
96 81 89 100 100 100 100 100 100 78 76 76 80 75 82 80 75 74 81 51 32 36 23 14 9 8 7 5 4 3 2 2 2 2 3 3 3 4 4 4 4 4 5 6 8 9 9 11 13 16 19 24 28 31
84 81 84 100 100 100 100 86 75 73 86 86 79 76 77 74 59 62 51 30 39 23 9 8 7 6 4 4 3 2 2 3 3 3 3 4 4 4 5 5 5 4 5 5 7 8 8 10 12 13 16 20 27 30
100 100 100 100 100 100 85 79 82 79 75 65 65 69 67 74 59 40 31 25 8 7 6 5 4 4 4 3 2 2 3 3 3 3 3 4 4 5 5 5 5 5 5 5 6 7 7 9 11 13 14 17 22 28
100 100 100 100 100 83 69 71 73 77 70 55 60 65 60 47 32 16 7 6 6 5 4 4 4 4 3 2 2 3 3 3 3 3 3 3 4 4 5 5 5 6 6 6 6 6 7 8 10 12 14 16 19 25
100 100 87 68 65 64 72 71 65 59 58 46 43 35 20 12 9 6 6 6 5 3 3 4 4 3 2 2 3 3 3 3 2 2 3 3 3 4 4 5 5 6 6 6 6 7 7 8 10 11 12 14 18 22
94 79 58 71 67 61 76 72 54 26 15 15 17 13 9 7 6 6 4 3 2 2 4 6 4 2 2 2 2 2 3 2 2 2 3 3 3 4 5 6 6 6 7 7 7 7 8 9 10 11 12 14 17 21
66 60 54 37 27 20 14 13 13 10 10 9 6 5 6 5 4 3 2 2 2 4 6 5 2 2 2 2 2 2 2 2 2 2 3 3 3 4 5 6 6 7 7 7 8 8 9 10 11 12 13 15 17 20
15 16 17 14 13 10 8 9 10 8 6 5 4 4 4 3 2 2 2 2 3 6 4 2 2 2 2 2 2 2 2 2 2 2 3 3 4 4 6 7 7 7 7 8 8 9 9 10 12 14 16 18 20 21
9 9 8 8 9 9 8 6 5 5 4 4 4 3 2 2 2 3 2 3 4 3 2 2 2 2 3 2 2 2 2 2 3 3 3 4 4 5 6 7 7 7 7 8 9 10 11 12 13 14 15 16 17 18
11 10 8 6 5 5 4 4 4 4 4 3 3 3 2 2 2 3 4 3 2 2 2 3 3 3 3 2 2 2 2 3 3 3 4 4 4 6 7 7 8 8 8 9 10 11 12 13 14 15 16 17 18 18

GFSWCAN_250_rhum_048.txt.gz
RH
78 94 90 100 100 96 92 92 97 100 89 90 84 76 66 72 60 55 54 43 43 32 39 42 45 48 60 33 10 6 5 6 8 10 12 15 18 19 22 26 32 34 33 33 31 28 33 52 57 64 67 70 66 60
72 95 92 95 88 98 100 100 100 80 81 74 77 76 87 76 62 46 54 38 40 36 33 38 45 38 56 36 21 9 7 7 8 10 11 14 17 20 23 25 28 29 30 31 34 30 32 41 52 66 67 73 78 72
91 100 100 93 88 96 99 100 90 74 64 64 79 80 91 72 62 48 44 40 42 35 32 34 42 35 47 39 43 32 7 8 9 11 12 14 17 19 20 21 26 28 41 51 57 39 43 39 43 64 68 75 72 84
82 92 95 82 81 99 100 92 92 69 66 78 93 100 100 80 65 42 44 40 52 32 32 34 36 33 38 46 46 46 16 8 8 11 12 15 17 18 19 22 25 41 46 41 42 46 46 40 36 31 32 54 75 77
88 99 98 96 99 100 100 100 83 88 95 93 82 100 100 86 67 53 44 43 47 40 44 37 35 36 34 45 51 54 29 12 11 11 13 14 16 18 17 19 21 32 33 44 49 54 57 46 50 51 49 44 50 63
96 94 88 86 96 100 95 83 100 100 100 78 100 100 95 86 58 55 46 53 42 33 33 35 35 38 33 36 47 60 64 59 10 10 13 14 16 18 16 15 26 31 36 37 41 44 55 48 51 61 62 51 52 64
100 98 94 100 100 98 91 91 94 92 81 100 100 95 86 75 71 60 45 49 40 36 31 31 29 37 35 40 50 62 64 61 29 11 11 13 15 16 17 21 23 25 28 29 37 40 44 42 55 54 77 71 70 61
100 100 100 100 100 100 99 92 83 97 100 100 100 95 86 63 65 49 46 42 44 37 25 29 24 33 38 37 49 54 60 60 58 19 11 12 13 16 17 19 21 25 25 25 30 33 41 45 42 44 46 78 76 78
100 100 100 100 100 100 100 99 85 100 100 100 95 100 89 85 65 37 46 40 31 31 22 26 18 28 33 34 46 56 58 62 55 59 12 12 14 16 16 17 18 20 23 21 22 23 32 37 37 35 40 41 50 63
100 100 100 100 90 85 100 100 100 100 100 100 100 100 82 94 65 46 47 52 46 37 34 28 22 21 25 30 42 40 61 74 58 56 21 14 15 15 15 16 17 17 18 21 19 19 24 24 26 28 25 21 16 21
100 100 100 100 98 100 100 100 100 100 100 100 100 99 83 87 69 74 63 66 54 56 40 43 48 28 26 30 33 35 56 57 53 54 42 20 17 15 16 16 16 16 16 18 20 19 20 29 24 17 14 15 21 26
100 100 100 100 100 100 100 100 99 100 100 100 100 100 97 79 96 92 86 74 62 70 62 56 53 46 36 33 38 32 40 56 47 48 45 16 20 17 15 15 16 15 15 15 17 18 17 22 22 16 16 17 18 16
100 100 100 100 100 100 100 100 100 100 100 100 100 100 100 97 81 88 86 81 81 76 70 70 70 52 40 41 47 39 43 43 34 38 30 16 17 18 18 16 14 14 14 13 13 15 16 15 18 19 16 18 19 19
100 100 100 100 100 100 100 100 100 100 100 100 100 100 98 91 81 77 100 91 86 81 82 74 67 54 40 35 47 55 58 43 46 46 69 14 15 16 17 16 14 14 14 12 12 13 15 16 14 17 20 20 19 17
100 100 100 100 100 100 100 100 100 100 100 100 100 97 98 100 100 100 100 91 93 92 92 77 71 64 40 41 54 57 73 81 60 45 57 16 17 18 16 13 12 13 12 12 12 11 12 14 15 15 20 20 18 15
100 100 100 100 100 100 100 100 100 100 100 100 96 100 100 100 100 96 94 87 93 100 80 87 69 60 42 48 64 59 60 49 80 52 25 12 13 15 17 14 8 8 10 10 10 11 11 12 14 14 17 22 20 16
100 100 100 100 100 100 100 100 100 100 100 100 100 100 100 100 100 98 81 87 96 95 82 69 65 45 48 72 61 67 60 68 82 36 14 11 11 11 10 8 8 6 7 8 8 10 10 11 11 13 15 20 21 19
100 100 100 100 100 100 100 100 100 100 100 100 98 100 100 100 100 100 93 87 98 84 79 70 36 50 62 64 66 54 43 44 47 18 13 10 8 7 6 6 5 4 5 5 5 6 9 11 11 12 14 17 22 22
100 100 100 100 100 100 100 100 100 100 100 100 100 100 100 100 100 95 84 97 99 95 78 39 44 53 59 56 64 50 30 28 17 12 11 9 6 4 4 4 3 3 4 4 4 5 8 10 11 12 14 14 19 22
100 100 100 100 100 100 100 100 100 100 100 100 89 79 93 95 85 73 80 93 96 91 48 51 55 48 53 69 42 36 43 14 8 7 8 6 4 3 3 3 3 3 3 3 3 4 7 10 10 11 13 14 16 22
100 100 100 100 100 100 100 100 100 100 100 100 89 86 87 93 89 86 78 94 90 60 51 53 54 64 70 40 31 28 12 10 6 5 4 3 3 3 3 3 2 2 3 3 3 4 6 8 9 11 12 13 14 20
100 100 100 100 100 100 100 100 100 100 90 97 98 93 100 98 93 85 83 80 60 44 62 61 68 69 52 36 33 13 9 6 4 4 3 2 2 2 3 2 2 2 3 3 4 4 5 7 9 10 12 12 12 16
100 100 100 100 100 100 100 100 100 100 94 93 90 95 100 95 84 80 60 56 46 55 54 58 77 46 33 47 18 11 8 4 3 2 2 2 3 2 2 3 3 3 3 3 4 4 5 6 8 9 11 12 13 14
100 100 100 100 100 100 100 100 100 92 78 80 79 87 87 73 61 65 80 59 60 59 66 72 48 51 49 16 11 8 4 3 3 2 2 3 3 2 3 3 4 4 4 4 4 4 4 6 7 8 10 12 13 14
100 100 100 100 100 100 100 100 87 67 69 69 65 74 69 60 61 72 60 48 57 87 57 50 32 29 8 9 7 4 2 2 3 2 2 3 3 3 3 3 4 4 4 4 4 4 4 5 6 8 9 11 12 12
100 98 100 100 100 93 76 58 60 65 63 65 72 65 56 66 75 68 52 62 61 58 28 36 19 7 8 6 5 3 2 2 3 2 2 3 3 3 3 3 3 4 4 4 4 4 4 5 5 7 8 9 11 12
80 98 100 100 91 71 63 60 60 69 77 78 69 68 69 72 75 66 58 53 30 17 9 6 6 6 6 4 3 2 2 3 3 2 2 3 3 2 2 3 3 4 4 4 5 4 5 5 5 6 7 8 9 11
94 90 75 69 65 61 68 81 83 84 81 79 74 76 76 74 70 58 36 30 12 6 5 6 5 5 4 3 2 2 2 3 3 2 3 3 3 2 2 3 3 4 4 5 5 5 5 6 6 6 7 7 8 9
99 77 56 62 77 95 93 75 59 60 64 74 69 70 67 48 39 41 12 6 5 4 4 5 6 4 3 2 2 2 3 3 3 3 3 3 2 2 2 3 3 4 4 5 5 6 6 6 6 6 7 7 8 9
80 79 84 87 85 77 69 62 58 58 72 69 54 48 61 45 23 11 7 4 3 4 5 6 5 3 2 2 2 3 3 3 2 2 2 2 2 2 2 3 3 4 4 5 5 6 6 6 6 6 7 8 8 10
82 81 78 68 61 60 56 50 42 48 68 37 15 17 16 12 10 6 5 3 3 4 5 4 3 2 2 3 3 3 2 2 2 2 2 2 2 2 3 4 4 4 5 5 6 6 6 6 6 7 8 8 8 9
83 85 68 60 47 27 20 20 21 12 8 9 10 9 8 6 6 5 4 3 4 5 3 2 2 3 2 3 3 2 2 2 2 2 2 2 3 3 4 4 4 5 5 6 6 7 7 7 7 8 8 9 10 10
19 16 14 13 11 11 11 11 11 10 9 7 6 5 5 4 4 3 3 5 4 3 2 2 2 3 3 3 2 2 2 2 2 2 3 3 3 4 4 5 5 6 6 6 6 7 8 9 10 10 11 12 12 12

GFSWCAN_250_rhum_051.txt.gz
RH
56 47 49 57 67 99 100 100 94 100 100 100 100 100 100 86 69 53 59 48 50 44 36 37 31 32 38 48 54 77 61 28 12 8 7 9 11 12 16 18 20 22 23 32 38 36 36 40 38 50 65 64 70 73
69 62 54 60 73 100 100 100 96 96 92 99 100 100 100 82 57 49 59 58 56 42 35 35 36 36 37 43 49 69 86 68 25 12 8 8 10 11 15 18 21 24 29 35 39 45 44 45 42 39 41 48 60 65
72 73 60 54 77 92 97 100 88 100 100 98 94 100 89 70 74 81 71 75 65 45 43 44 36 38 41 45 45 46 65 69 48 21 11 8 9 11 12 16 21 30 46 42 39 38 42 44 43 38 36 35 46 63
76 76 66 58 74 77 86 87 100 100 100 90 100 96 82 95 84 100 93 83 65 59 49 51 38 39 39 43 48 47 48 57 55 30 18 11 9 10 12 15 21 30 37 40 46 54 70 58 63 65 57 48 41 46
80 72 70 61 72 70 78 91 99 100 100 100 100 89 86 88 97 100 99 92 79 69 55 54 45 37 43 43 49 53 43 53 52 52 39 23 11 9 11 14 21 31 39 42 48 62 59 53 71 85 84 72 66 55
81 81 79 67 67 71 83 100 99 100 100 100 93 83 92 77 100 88 84 83 80 73 67 56 54 49 49 50 55 56 55 49 59 52 48 56 20 12 10 14 15 21 27 39 44 41 51 54 59 74 92 86 97 96
92 97 90 81 74 73 89 97 100 100 100 100 95 94 97 100 100 84 73 86 86 64 67 73 53 50 46 45 51 58 51 54 57 80 76 66 28 16 12 10 13 16 19 24 39 44 42 40 46 48 64 92 92 94
100 100 100 93 91 90 98 100 100 100 100 97 100 91 81 100 81 71 94 100 93 86 99 67 54 61 42 52 53 55 53 51 60 72 82 68 37 24 13 12 12 14 15 17 22 31 38 37 42 41 40 46 77 99
100 100 100 100 99 97 100 100 100 100 100 100 100 92 89 93 91 100 88 71 74 88 63 68 54 52 41 43 53 53 42 42 52 60 68 73 58 26 16 13 12 13 15 15 15 19 23 28 30 32 30 35 43 45
100 100 100 100 100 100 100 100 100 100 100 100 100 90 84 93 100 94 67 77 86 67 79 64 52 41 34 41 50 52 47 40 55 50 64 74 95 33 18 14 12 12 14 16 16 16 19 21 25 29 28 27 33 37
100 100 100 100 100 100 100 100 100 100 100 89 100 100 100 99 87 82 81 72 67 87 74 62 58 44 41 46 56 58 49 42 54 38 50 45 67 42 20 18 14 14 12 13 15 16 16 16 17 20 23 24 20 20
100 100 100 100 100 100 100 100 100 96 90 100 100 100 100 100 100 100 69 91 90 82 75 62 56 57 66 57 63 64 66 62 56 58 38 30 20 64 27 24 27 20 14 12 12 13 14 16 16 16 17 19 19 16
100 100 100 100 100 100 100 100 95 99 100 100 100 100 100 93 96 82 99 78 82 89 79 81 77 68 69 68 78 63 61 76 58 66 62 41 34 69 23 20 19 22 19 14 11 11 12 12 14 15 15 15 17 16
100 100 100 100 100 100 100 100 99 100 100 100 100 100 86 95 100 100 89 84 96 85 84 81 73 75 80 73 76 70 72 92 62 77 92 82 31 42 18 13 17 23 17 12 11 8 9 11 11 12 13 14 15 16
100 100 100 100 100 100 100 99 100 100 100 100 100 100 100 98 96 100 100 100 87 87 91 78 76 81 82 68 78 68 81 65 70 92 79 81 47 47 14 10 11 11 10 9 8 7 6 7 9 10 12 12 13 14
100 100 100 100 100 100 100 100 100 100 100 100 100 100 100 100 100 100 98 83 88 100 100 81 76 84 76 79 76 75 84 78 60 70 86 92 53 27 10 9 8 8 6 5 4 4 4 5 6 8 10 12 12 12
100 100 100 100 100 100 100 100 100 100 100 98 100 100 100 100 100 100 100 95 87 97 98 75 96 93 84 89 73 80 81 67 79 96 87 83 39 15 7 8 6 5 4 3 3 3 3 4 4 6 7 10 11 12
100 100 100 100 100 100 100 100 100 100 100 100 100 97 91 100 100 100 100 100 100 100 85 89 94 88 83 73 77 71 67 72 80 83 76 87 29 8 5 6 4 3 3 3 2 2 3 4 3 4 6 8 11 12
100 100 100 100 100 100 100 100 100 97 100 100 100 98 100 100 100 100 100 100 100 100 94 98 88 82 72 71 70 63 74 76 91 100 74 49 13 5 4 4 3 3 2 2 2 2 3 3 3 4 5 6 10 11
100 100 100 100 100 99 100 100 100 100 100 100 100 100 100 100 100 100 100 100 100 95 86 88 81 70 69 64 60 79 78 94 90 79 68 16 5 4 4 3 3 2 2 2 2 2 2 3 3 3 4 6 8 11
100 100 100 100 100 100 100 100 100 100 100 100 100 100 100 100 100 100 100 100 99 88 90 81 70 70 75 65 66 84 94 89 70 50 16 5 4 4 3 2 3 3 2 2 2 2 3 3 3 3 4 6 8 10
100 100 100 100 100 100 100 100 100 100 100 100 100 99 100 100 100 100 94 92 88 87 78 65 65 62 55 64 72 86 73 84 55 26 5 3 3 3 2 2 3 3 3 2 3 3 3 3 3 4 4 5 8 9
100 100 100 100 100 100 100 100 100 100 99 100 90 90 100 100 100 94 92 97 89 81 71 68 66 63 66 84 83 77 60 49 27 6 3 3 3 2 2 2 3 3 3 3 3 3 3 4 4 4 4 5 6 9
100 100 100 100 100 100 100 100 100 94 94 97 100 100 100 100 91 93 98 94 79 57 52 66 65 68 86 73 80 30 34 18 6 4 2 2 3 3 3 3 3 3 3 2 3 3 4 4 4 4 4 5 6 8
100 100 100 100 100 100 100 100 100 100 100 100 100 100 100 87 88 93 83 65 44 44 48 58 65 78 80 59 35 30 9 5 4 3 2 2 3 3 3 3 2 3 2 2 3 3 4 4 5 4 4 5 6 7
100 100 100 100 100 100 100 100 100 100 100 100 100 96 82 81 81 77 55 38 46 54 61 72 70 64 60 40 14 5 4 4 3 3 2 2 3 4 2 2 2 2 2 2 3 3 4 4 5 5 5 4 5 7
100 100 100 100 100 100 100 100 100 100 100 98 89 82 76 74 50 38 44 53 70 72 69 61 63 46 20 9 5 4 3 2 2 3 2 2 3 3 2 2 2 2 2 2 3 3 4 5 5 5 5 5 5 5
100 100 100 100 100 100 100 100 100 100 89 77 70 77 58 40 46 51 56 63 64 64 46 23 10 10 7 5 4 3 2 2 3 3 2 2 3 2 2 2 2 2 2 2 3 3 4 5 5 5 5 5 5 5
100 100 100 100 100 100 100 100 99 86 80 74 57 48 51 59 60 59 62 54 42 20 11 7 8 6 4 4 3 2 2 3 4 3 2 2 3 2 2 2 2 2 2 2 3 4 5 5 5 6 6 6 6 6
100 100 99 98 97 94 88 76 61 49 43 48 54 59 63 66 72 55 38 29 9 5 6 6 5 4 4 5 3 2 3 3 2 2 2 3 2 2 2 2 2 2 2 3 4 4 5 5 6 6 6 6 6 6
65 61 60 57 52 46 42 44 48 51 52 51 58 67 61 72 72 39 11 5 6 5 5 4 4 4 4 2 2 3 4 3 2 2 3 2 2 2 2 2 3 3 3 3 4 5 5 6 6 6 6 6 6 6
54 58 58 54 54 60 61 58 53 61 70 62 57 64 58 54 31 12 7 5 4 3 3 4 4 3 2 2 3 3 3 3 2 2 2 3 3 3 3 3 3 3 3 4 5 6 6 6 6 6 6 6 7 7
83 75 68 57 50 50 60 70 59 58 52 48 45 26 13 11 10 8 6 5 3 3 4 4 3 3 3 3 3 3 3 2 2 2 2 3 3 3 3 3 3 3 4 4 5 6 6 6 6 7 7 7 8 9

GFSWCAN_250_rhum_054.txt.gz
RH
100 84 68 49 45 40 57 91 100 100 100 100 95 100 99 99 100 85 79 65 36 37 47 42 51 48 46 44 54 56 64 61 61 43 33 27 18 12 10 12 16 21 24 26 31 33 42 42 49 43 42 42 49 59
88 77 64 46 46 42 49 82 100 100 100 95 100 100 100 96 94 78 76 60 42 45 48 41 53 62 62 42 49 50 57 57 56 43 35 26 24 17 12 12 14 18 22 27 29 32 35 40 44 47 45 42 41 38
84 76 60 48 48 52 56 97 100 100 100 100 100 100 94 100 88 85 83 59 48 53 56 42 67 72 67 61 49 49 60 56 64 61 49 33 22 21 15 12 12 14 17 20 22 26 34 34 38 52 57 43 45 43
71 69 62 52 52 57 55 89 96 100 100 100 100 97 100 100 95 98 85 62 55 57 55 61 72 68 75 62 53 49 59 59 62 68 51 42 30 26 23 16 12 12 14 17 20 26 32 36 48 62 65 62 53 48
74 73 64 54 66 65 62 78 97 100 100 100 100 100 99 100 100 100 84 74 60 63 52 66 73 78 78 60 50 52 61 60 61 71 57 47 50 41 30 23 16 14 15 17 16 25 26 28 44 52 53 67 77 60
75 72 81 68 76 70 63 77 100 100 100 100 100 100 100 100 100 95 84 84 64 64 58 73 69 83 58 62 59 55 59 59 65 69 62 50 43 46 44 29 20 14 14 18 20 20 24 26 36 54 60 55 68 79
61 61 66 70 72 72 65 84 100 100 94 93 98 100 100 100 100 100 98 78 68 57 83 73 74 73 53 60 66 54 62 62 78 73 73 54 41 49 40 52 28 18 14 16 21 22 21 26 30 38 58 64 66 69
82 82 61 67 76 81 76 84 87 86 91 98 100 100 100 100 100 95 99 84 61 66 68 89 91 92 58 66 71 55 58 66 64 71 77 68 56 53 47 40 37 21 17 17 18 25 24 20 22 27 30 34 41 61
79 88 83 83 94 88 79 84 84 98 100 100 100 100 100 100 100 100 92 82 66 69 77 100 93 87 71 85 80 65 58 65 61 76 70 70 77 72 68 61 68 42 18 14 15 17 21 27 28 26 26 27 27 29
79 85 95 100 100 94 91 94 100 100 100 100 100 100 100 100 100 100 100 97 80 66 100 100 84 80 90 66 71 54 65 61 60 71 66 61 70 64 66 74 69 69 28 16 15 13 17 18 19 21 22 23 25 28
91 93 100 100 100 99 100 100 100 100 100 100 100 100 100 100 100 100 100 78 73 84 82 77 78 78 74 72 60 67 78 63 66 76 70 67 58 65 55 54 41 67 53 24 15 15 16 15 15 20 20 18 17 16
100 100 100 100 100 100 100 100 100 100 100 100 100 100 100 100 100 98 78 82 82 74 82 93 88 80 82 60 74 63 75 68 69 79 80 63 48 67 60 53 48 29 42 32 25 18 14 13 13 12 13 14 20 18
100 100 100 100 100 100 100 100 100 100 100 100 100 100 100 100 100 87 79 77 77 75 95 84 75 70 70 65 85 74 89 72 78 93 81 68 66 63 83 68 65 25 18 15 16 20 16 13 10 9 8 10 11 13
100 100 100 100 100 100 100 100 100 100 100 100 100 100 100 100 100 100 98 79 84 93 85 73 77 73 67 81 86 87 78 88 94 93 85 83 80 75 73 88 73 38 18 10 9 8 9 11 9 7 6 6 7 9
100 100 100 100 100 100 100 100 100 100 100 100 100 100 100 100 96 74 100 100 94 93 82 77 82 63 71 86 91 88 83 86 83 96 77 87 73 86 67 77 36 34 20 8 6 6 5 5 5 5 4 5 5 7
100 100 100 100 100 100 100 100 100 100 100 100 100 100 100 95 99 98 93 97 92 87 80 83 81 86 83 93 86 90 82 80 88 83 90 67 68 63 77 58 27 16 9 6 6 4 4 3 3 3 3 3 4 5
100 100 100 100 100 100 100 100 100 100 100 100 100 100 100 100 100 100 91 93 96 86 74 94 90 70 90 98 88 93 88 98 93 93 81 50 58 83 69 32 20 12 6 5 4 3 3 3 3 3 3 3 3 3
100 100 100 100 100 100 100 100 100 100 100 100 100 100 100 100 100 100 100 94 80 85 85 83 81 89 82 87 93 92 91 87 95 93 78 58 80 59 29 20 9 6 4 4 3 2 2 2 2 2 2 2 3 3
100 100 100 100 100 100 100 100 100 100 100 100 100 100 100 100 100 98 100 100 100 100 100 85 77 86 94 97 92 89 100 97 95 74 61 71 54 33 24 12 6 4 3 3 2 2 2 2 2 2 2 2 3 3
100 100 100 100 100 100 100 100 100 100 100 100 99 100 100 100 98 98 100 100 96 87 89 84 91 98 99 97 89 100 97 89 67 56 63 66 38 24 13 6 4 3 3 3 2 2 2 2 2 2 2 2 2 3
100 100 100 100 100 100 100 100 100 100 100 99 90 90 100 100 98 100 100 100 94 90 92 96 100 100 89 86 97 93 72 84 57 59 53 55 24 9 7 4 3 3 3 3 2 2 3 3 3 3 3 3 2 3
100 100 100 100 100 100 100 100 100 100 100 100 100 100 100 100 100 100 100 100 90 92 96 98 100 100 86 85 82 70 75 63 59 37 35 18 10 6 4 3 3 3 3 2 2 2 3 3 3 3 3 3 3 3
100 100 100 100 100 100 100 100 100 100 100 100 100 100 100 100 100 99 100 100 100 100 98 98 90 79 76 71 69 78 79 61 50 38 16 8 5 4 4 3 2 3 3 2 2 2 2 3 3 3 3 3 4 4
100 100 100 100 100 100 100 100 100 100 100 100 100 100 100 100 92 94 97 88 77 75 82 76 67 70 66 68 79 83 59 54 54 20 6 4 5 5 3 2 2 3 3 2 2 2 2 2 2 3 3 4 4 4
100 100 100 100 100 100 100 100 100 100 100 100 100 100 100 100 100 96 89 79 85 90 77 64 67 64 81 78 75 58 50 44 17 6 4 3 3 3 3 2 2 3 3 2 2 2 2 2 2 3 3 4 4 4
100 100 100 100 100 100 100 100 100 100 100 100 100 100 99 98 95 96 88 86 89 70 59 64 77 78 77 68 59 56 36 12 5 3 3 2 3 3 3 2 2 2 3 2 2 2 2 2 3 3 3 4 5 5
100 100 100 100 100 100 100 100 100 100 100 100 100 100 91 88 91 87 86 82 61 56 58 68 68 72 62 62 58 30 10 5 4 3 3 3 3 2 3 3 2 3 2 2 2 2 2 2 3 3 3 4 5 5
100 100 100 100 100 100 100 100 100 100 100 100 100 93 89 89 74 67 72 64 59 61 66 68 61 48 50 47 22 10 4 4 4 3 3 3 2 3 4 3 2 2 2 2 2 2 2 2 3 3 4 4 4 5
100 100 100 100 100 100 100 100 100 100 100 100 93 84 83 74 67 69 64 56 57 71 73 53 42 41 26 14 6 3 4 4 3 2 3 3 2 3 3 2 2 3 2 2 2 2 2 3 3 3 4 4 5 5
100 100 100 100 100 100 100 100 100 99 83 82 79 71 61 63 60 57 56 64 71 62 40 48 37 26 12 5 4 5 3 2 2 2 3 3 3 2 2 2 2 3 2 2 2 3 3 3 3 4 4 5 5 5
100 100 100 100 100 100 95 92 92 88 82 72 67 68 65 59 56 58 65 59 43 36 35 24 17 6 4 4 5 5 4 2 3 3 3 2 2 2 2 2 3 3 3 3 3 3 4 4 4 4 5 5 5 5
100 100 100 100 100 98 92 83 75 74 74 76 74 62 55 61 63 58 46 38 29 13 8 5 3 3 4 4 3 2 2 2 2 2 2 2 2 2 3 4 4 3 3 3 3 4 4 4 5 5 5 5 5 6
100 100 100 100 97 92 86 84 83 79 68 64 66 61 50 48 40 37 27 17 12 8 4 3 3 4 5 3 2 2 2 2 2 2 2 3 3 3 4 4 4 3 3 3 4 5 5 5 5 5 6 6 6 6

GFSWCAN_250_rhum_057.txt.gz
RH
49 90 100 96 94 83 83 68 68 98 100 100 100 100 99 99 100 100 83 75 81 80 58 48 50 44 52 48 47 42 46 53 62 80 77 62 42 30 25 20 18 16 15 17 21 24 28 34 42 42 43 45 48 40
66 81 97 100 93 95 73 60 79 100 100 100 100 98 99 100 100 100 79 75 67 75 70 54 54 49 54 57 53 49 45 48 53 66 84 74 60 56 31 23 21 19 17 16 19 25 33 36 41 48 53 51 49 46
54 60 93 90 77 90 78 57 84 99 100 100 100 100 100 100 100 97 78 75 68 77 68 65 64 57 52 58 66 54 50 49 49 60 70 88 66 55 47 32 30 22 19 17 17 17 22 28 38 44 51 52 54 62
53 74 88 74 81 73 63 48 66 79 100 100 100 100 100 100 100 90 93 82 73 86 81 71 64 59 67 73 80 75 58 53 50 55 65 75 75 54 47 44 40 30 23 17 17 18 18 20 30 41 50 52 50 53
75 100 92 82 90 75 58 46 60 82 100 100 100 100 100 100 97 98 97 85 78 84 87 80 72 62 61 82 69 78 61 58 58 60 60 67 69 70 49 40 44 31 30 26 18 17 17 20 28 38 39 42 55 54
90 84 57 73 71 73 55 49 68 88 100 100 100 100 100 100 100 100 97 79 86 76 84 81 76 58 77 75 88 71 75 75 65 62 59 65 70 63 60 43 37 38 33 37 30 18 18 18 19 27 39 42 46 55
51 51 54 62 50 62 50 56 79 85 100 100 100 100 100 100 100 99 91 91 86 88 78 78 78 62 79 78 95 85 86 68 63 65 61 69 83 72 66 56 40 43 37 46 42 38 19 17 18 19 23 39 49 45
81 79 72 82 71 59 50 68 74 80 97 100 100 100 100 100 100 100 97 100 89 88 80 76 89 71 71 91 96 98 80 79 65 70 66 72 96 90 72 74 59 46 38 33 34 44 32 19 17 19 21 21 26 38
84 77 68 68 74 70 74 65 69 82 93 100 100 100 100 100 100 100 100 91 85 89 76 78 88 75 75 96 86 84 88 78 68 70 79 69 89 97 90 96 65 76 51 39 41 33 34 22 16 16 17 19 22 23
71 60 53 60 68 72 74 67 69 81 88 100 100 100 100 100 100 100 100 100 98 69 79 74 73 70 86 97 77 86 96 66 72 72 65 70 85 74 80 89 64 64 60 46 43 46 45 31 16 15 15 16 18 17
67 73 70 66 62 66 81 76 77 86 100 100 100 100 100 100 100 100 100 100 92 96 92 66 67 67 96 100 91 91 78 71 79 78 68 70 75 73 82 99 92 63 58 46 33 25 35 42 22 13 12 13 14 15
93 84 76 89 80 82 92 90 97 100 100 100 100 100 100 100 100 100 100 100 100 94 71 67 71 82 100 100 100 96 73 69 72 74 66 78 69 80 82 89 90 75 55 45 36 23 21 16 14 20 15 9 8 9
99 87 89 96 100 100 100 97 99 100 100 100 100 100 100 100 100 100 100 100 100 84 70 78 82 97 100 100 100 93 78 76 85 71 70 75 76 90 71 83 86 80 59 42 30 25 16 9 7 7 8 10 7 5
100 98 100 100 100 100 100 100 100 100 100 100 100 100 100 100 100 100 100 100 96 75 80 87 84 100 99 100 83 75 80 77 88 68 76 71 89 88 88 77 90 86 57 38 26 19 9 6 5 5 4 4 5 5
100 100 100 100 100 100 100 100 100 100 100 100 100 100 100 100 100 100 100 100 99 85 77 94 96 92 87 90 86 84 79 72 80 63 72 71 82 81 87 78 93 75 48 30 19 13 6 5 4 4 3 3 3 3
100 100 100 100 100 100 100 100 100 100 100 100 100 100 100 100 100 100 100 100 94 79 85 81 92 98 100 99 81 88 72 81 80 68 75 68 78 73 93 81 89 63 35 19 16 8 4 4 3 3 2 2 2 2
100 100 100 100 100 100 100 100 100 100 100 100 100 100 100 100 100 100 100 90 90 88 87 100 100 100 92 87 91 78 86 75 75 66 72 75 77 83 74 96 84 55 28 17 10 5 4 3 2 2 2 2 2 2
100 100 100 100 100 100 100 100 100 100 100 100 100 100 100 100 100 100 99 81 83 81 98 100 99 91 100 100 94 90 78 72 70 65 64 74 66 77 76 82 66 32 19 12 4 4 3 2 2 2 2 2 2 2
100 100 100 100 100 100 100 100 100 100 100 100 100 100 100 100 100 97 89 94 86 73 90 92 96 100 100 98 84 95 92 86 70 69 64 71 69 76 74 72 49 24 14 6 3 3 3 2 2 2 2 3 3 2
100 100 100 100 100 100 100 100 100 100 100 100 100 100 100 100 100 95 96 100 90 100 100 100 100 100 88 83 80 66 86 69 72 72 66 60 77 68 69 60 30 16 8 4 3 3 2 2 2 2 2 2 3 3
100 100 100 100 100 100 100 100 100 100 100 100 100 100 100 100 100 99 98 96 91 91 100 100 100 88 93 83 75 69 81 89 69 58 66 65 65 73 70 42 16 9 4 3 4 2 2 2 2 2 2 2 3 3
100 100 100 100 100 100 100 100 100 100 100 100 100 100 100 98 99 97 100 100 100 94 97 93 87 72 80 78 73 88 78 65 60 62 59 60 67 72 45 18 10 6 4 3 3 2 2 2 2 2 2 2 2 3
100 100 100 100 100 100 100 100 100 100 100 100 100 100 94 94 100 100 100 100 100 100 99 93 80 84 78 65 67 66 60 56 52 51 56 65 71 51 25 10 6 4 3 3 3 2 2 2 2 2 2 2 2 2
100 100 100 100 100 100 100 100 100 100 100 100 100 95 100 100 100 100 98 89 94 100 100 88 77 77 57 52 49 53 47 51 49 55 57 67 53 22 9 6 4 3 3 4 3 2 2 2 2 2 2 2 2 3
100 100 100 100 100 100 100 100 100 100 100 100 98 100 100 100 100 100 100 99 100 100 90 80 73 62 51 47 54 46 46 55 58 70 64 34 13 8 6 4 3 2 3 3 3 2 2 2 2 2 2 2 2 3
100 100 100 100 100 100 100 100 100 100 100 100 100 100 100 100 100 100 96 97 96 86 80 69 63 59 52 50 51 48 48 53 61 75 55 18 7 6 3 3 3 3 2 2 2 2 2 2 2 2 2 2 3 3
100 100 100 100 100 100 100 100 100 100 100 100 100 100 100 88 84 92 97 97 86 80 75 77 57 47 48 53 53 52 57 63 74 56 29 11 7 3 2 3 2 3 2 2 2 2 2 2 2 2 2 2 3 3
100 100 100 100 100 100 100 100 100 100 100 100 100 100 100 100 100 100 100 95 92 81 66 50 45 44 49 48 54 63 74 73 51 26 11 7 4 3 2 2 3 3 2 2 2 2 3 3 2 2 3 3 3 4
100 100 100 100 100 100 100 100 100 100 100 100 100 100 100 94 88 93 98 88 74 63 50 43 45 50 48 54 68 77 67 37 18 9 7 4 3 2 2 2 2 2 2 2 2 3 3 3 3 3 3 3 4 4
100 100 100 100 100 100 100 100 100 100 100 100 100 99 100 98 89 80 68 65 59 47 43 47 48 55 64 76 81 66 28 14 8 5 4 3 3 3 3 2 2 2 2 3 3 3 3 3 3 3 3 4 4 5
100 100 100 100 100 100 100 100 100 100 100 100 97 91 90 90 73 65 66 58 53 54 52 55 70 80 83 76 54 30 15 8 5 4 3 2 3 3 2 2 2 3 3 3 4 3 3 3 3 4 4 4 5 5
100 100 100 100 100 100 100 100 100 100 100 100 91 82 71 65 66 61 58 54 51 57 71 77 80 80 52 25 15 9 5 4 3 3 3 3 2 2 2 3 3 4 4 3 3 3 3 4 4 4 4 5 5 5
100 100 100 100 100 100 100 94 89 87 85 81 74 69 64 60 59 60 58 63 73 77 83 84 72 38 19 11 6 4 4 3 3 3 3 2 2 2 3 4 4 4 3 3 4 4 4 4 4 4 5 5 5 5

GFSWCAN_250_rhum_060.txt.gz
RH
4 3 7 48 100 94 100 100 100 100 100 100 100 100 100 100 100 93 100 100 100 88 80 76 59 58 58 46 45 38 44 42 50 51 58 64 68 73 67 54 35 21 28 25 23 22 22 23 24 23 27 37 48 53
4 5 16 100 100 100 100 100 100 100 95 100 100 100 100 100 100 91 100 100 99 88 77 75 70 69 62 48 48 50 46 42 43 46 51 56 59 64 58 57 58 59 48 42 29 24 20 20 23 26 39 36 35 45
4 8 34 82 100 100 100 100 98 85 91 100 100 100 97 100 94 97 100 100 95 85 69 73 69 83 74 53 56 48 52 42 43 46 49 52 53 55 58 58 57 64 41 43 41 38 34 22 20 23 24 26 31 42
6 22 62 98 100 100 100 100 95 74 89 100 100 100 100 99 91 100 100 100 92 84 69 68 75 86 75 57 58 60 58 55 52 58 51 47 51 54 56 62 59 62 70 49 49 46 36 32 31 18 20 25 29 31
10 43 90 100 99 100 74 77 92 80 86 98 100 100 98 100 100 100 100 98 91 86 79 70 75 76 80 70 64 60 58 56 59 58 51 66 53 52 54 59 57 58 65 60 49 43 34 33 32 30 20 19 22 28
27 79 100 99 97 100 91 79 71 80 80 93 100 98 95 100 100 100 100 96 92 97 92 81 80 76 96 80 69 67 67 79 72 71 65 70 60 57 50 52 57 66 66 44 52 44 36 32 36 29 27 23 20 24
45 98 93 100 100 100 97 100 80 87 80 91 99 88 96 100 100 87 94 87 92 98 98 80 79 87 98 77 71 72 76 83 71 73 69 68 73 67 60 51 56 68 61 60 47 49 36 29 31 35 25 24 20 20
44 100 100 100 100 93 97 88 92 81 71 83 96 76 90 100 98 88 88 87 99 100 98 85 73 88 95 81 74 80 83 86 79 84 75 64 91 84 78 66 71 64 85 74 74 62 39 28 28 34 26 24 23 18
76 100 99 76 70 67 70 72 69 76 72 77 65 85 100 100 83 81 90 94 97 100 98 73 69 85 95 81 80 85 77 90 83 78 88 72 87 82 74 71 72 68 91 82 81 92 72 62 44 40 27 16 18 17
95 69 63 78 78 71 71 63 61 74 73 66 60 91 100 100 92 99 98 97 81 99 95 77 86 94 98 71 85 79 87 92 83 88 91 89 74 73 72 77 83 71 67 95 76 96 84 65 52 39 26 19 20 13
59 88 90 100 91 66 66 63 61 68 58 62 80 99 100 100 100 100 100 94 89 90 83 89 99 100 95 78 88 88 86 95 98 100 88 84 77 78 72 64 71 66 64 88 67 92 81 69 47 36 17 10 12 16
98 100 100 100 88 66 67 64 78 79 75 76 84 99 100 100 100 100 100 87 91 93 88 94 100 100 97 82 93 98 98 100 100 100 94 83 86 86 70 58 62 60 68 72 74 82 65 48 34 23 12 8 7 7
92 96 96 98 82 68 66 80 93 81 67 70 83 100 100 100 100 100 99 91 100 100 99 100 100 100 99 93 92 85 100 100 97 98 96 98 87 68 53 59 71 64 86 69 64 61 59 44 37 14 8 6 6 6
100 100 100 99 81 66 72 82 76 80 80 80 99 100 100 100 100 100 93 92 100 100 99 100 99 97 100 94 99 96 100 100 99 89 96 88 69 68 80 67 70 61 68 75 75 60 50 33 18 8 5 5 4 4
100 100 100 99 73 66 76 82 94 95 91 95 100 100 100 100 100 100 100 100 100 100 100 100 100 100 97 95 92 84 85 86 86 96 86 75 65 67 69 66 64 68 64 54 76 49 32 17 8 5 4 3 3 3
100 100 100 99 83 83 85 100 100 100 100 100 100 100 100 100 100 100 100 100 100 100 98 100 98 100 98 87 82 82 90 80 88 70 79 82 61 64 58 60 60 55 63 60 64 33 24 12 5 4 4 3 2 2
100 100 100 100 95 92 100 100 100 100 100 100 100 100 100 100 100 100 100 100 98 100 100 100 100 100 87 94 92 80 68 67 82 100 77 71 54 57 64 57 60 66 64 51 51 22 16 6 4 4 3 2 2 2
100 100 100 100 98 95 100 100 100 100 100 100 100 100 100 100 100 100 100 100 100 100 100 100 100 88 88 81 77 87 97 99 85 73 75 55 61 56 56 56 58 57 64 44 31 20 8 5 4 3 2 2 2 2
100 100 100 100 100 100 100 100 100 100 100 100 100 100 100 100 100 100 100 100 100 100 100 100 95 89 96 80 81 70 78 69 63 64 56 60 67 60 56 60 64 56 45 41 20 14 6 4 3 3 3 2 2 2
100 100 100 100 100 100 100 100 100 100 100 100 100 100 100 100 100 100 100 100 100 100 100 95 90 91 83 76 61 62 65 59 68 78 69 63 57 55 60 63 52 48 46 24 22 6 4 4 3 3 3 3 2 2
100 100 100 100 100 100 100 100 100 100 100 100 100 100 100 100 100 100 100 100 99 100 97 93 98 92 81 60 63 67 65 72 69 62 70 70 49 59 54 52 40 40 28 13 11 5 4 4 3 3 3 3 2 2
100 100 100 100 100 100 100 100 100 100 100 100 100 100 100 100 100 100 100 99 100 98 92 93 91 90 63 68 63 62 59 68 76 82 82 58 59 48 52 39 46 41 13 12 5 4 4 3 3 3 3 2 2 2
100 100 100 100 100 100 100 100 100 100 100 100 100 100 100 100 100 100 100 97 100 95 94 94 84 62 64 57 63 61 64 77 90 82 57 54 46 50 44 51 36 16 9 7 4 3 3 3 3 3 2 2 2 2
100 100 100 100 100 100 100 100 100 100 100 100 100 100 100 100 100 100 100 99 98 94 95 77 76 79 75 80 67 70 65 68 80 68 52 45 48 46 47 44 30 11 6 4 4 3 3 2 3 2 2 2 2 2
100 100 100 100 100 100 100 100 100 100 100 100 100 100 100 100 100 99 97 92 92 100 94 84 82 77 73 75 73 64 60 73 73 62 59 45 47 48 52 35 16 8 5 4 3 3 2 3 2 2 2 2 2 2
100 100 100 100 100 100 100 100 100 100 100 100 100 100 100 99 88 90 87 94 91 85 88 85 78 88 83 74 70 75 73 77 70 64 43 51 45 46 32 13 8 5 4 3 3 3 2 2 3 2 2 2 2 2
100 100 100 100 100 100 100 100 100 100 100 100 100 98 85 78 89 96 99 100 97 91 86 80 84 80 76 75 75 78 81 81 68 44 56 50 44 36 12 6 4 3 3 3 3 3 2 2 3 3 3 3 3 3
100 100 100 100 100 100 100 100 100 100 100 96 94 96 96 100 98 100 100 100 100 100 83 79 72 80 74 72 69 81 82 60 48 53 51 50 39 17 11 5 3 3 3 3 3 2 3 4 4 4 3 3 3 3
100 100 100 100 100 100 100 100 99 96 96 98 100 100 100 99 99 100 100 100 99 94 86 85 84 66 62 60 61 69 54 48 50 52 58 42 18 14 6 4 3 3 3 2 2 3 3 4 4 3 3 3 3 3
100 100 100 100 100 100 100 100 100 100 100 100 100 100 100 100 99 97 96 92 92 94 81 76 62 57 55 57 56 47 47 48 48 38 24 8 7 5 4 4 3 3 3 3 4 4 3 3 3 3 3 3 4 4
100 100 100 100 100 100 100 100 100 100 100 100 100 100 98 97 97 93 85 85 85 83 71 61 55 60 62 57 49 50 56 54 37 29 10 7 5 4 4 3 3 3 4 4 4 3 3 3 3 3 4 4 4 4
100 100 100 100 100 100 100 100 100 100 100 100 100 92 99 100 89 81 84 82 75 70 67 63 62 62 57 56 58 58 50 31 29 9 5 5 5 4 3 3 3 4 4 4 4 4 4 4 4 4 4 4 4 4
100 100 100 100 100 100 100 100 100 100 100 98 98 94 88 86 87 86 79 72 67 62 63 61 62 59 61 57 52 39 39 22 8 6 6 5 4 3 3 4 4 4 4 4 4 4 4 4 4 5 5 5 5 5

GFSWCAN_250_rhum_063.txt.gz
RH
3 5 6 5 4 10 49 100 100 100 100 100 100 98 100 100 100 98 98 96 100 100 97 88 79 64 51 50 45 43 44 49 45 40 42 45 50 51 54 57 54 50 50 57 65 57 48 43 42 32 24 25 33 42
4 5 8 7 10 24 79 95 100 100 100 100 100 100 100 100 98 98 94 100 100 100 100 93 74 64 62 68 51 48 44 47 56 48 42 44 44 46 48 56 55 53 53 52 47 65 53 50 47 39 38 32 22 26
5 6 9 16 25 37 66 99 100 100 100 100 100 100 93 100 100 100 100 100 100 100 98 95 68 65 70 70 60 52 46 49 57 48 47 39 41 44 50 52 58 51 55 57 62 50 55 57 44 42 34 31 34 24
6 6 10 22 26 67 91 96 100 100 100 100 100 93 98 99 98 100 100 100 100 99 93 88 71 68 77 73 75 66 56 51 55 74 63 51 47 45 52 49 51 57 57 46 50 57 55 64 66 52 47 36 27 33
6 7 13 26 45 73 100 100 100 100 100 100 100 98 100 90 93 100 100 100 100 97 93 89 76 67 80 75 82 70 68 64 73 75 81 66 49 44 47 47 50 56 56 62 47 49 42 65 53 54 50 46 29 22
6 18 30 50 59 93 100 100 100 100 100 97 78 70 86 97 95 100 100 100 100 100 96 89 75 65 79 81 87 78 73 63 60 74 85 75 70 60 58 55 51 55 52 61 58 58 60 50 58 48 40 34 35 21
6 10 34 50 73 100 98 100 100 100 90 82 88 79 84 91 91 100 100 100 100 100 95 87 78 71 74 75 84 94 84 69 69 74 83 83 75 77 82 71 60 55 56 60 62 56 60 59 68 65 42 27 27 26
7 18 51 86 97 95 89 100 100 100 94 96 100 86 79 91 99 100 100 100 100 100 92 87 88 76 74 75 84 98 94 72 71 78 83 80 83 78 91 86 69 58 61 57 56 62 60 64 67 66 50 38 27 15
9 24 48 74 92 98 100 100 100 100 100 100 93 76 90 95 100 96 100 100 100 91 84 85 92 81 85 81 98 98 98 79 78 87 94 94 84 91 93 77 76 62 58 60 68 68 89 69 84 92 78 52 33 19
11 26 83 77 96 98 100 100 100 94 86 83 92 83 93 96 99 100 100 99 97 82 84 92 82 93 90 82 100 98 100 90 83 84 88 87 84 89 90 76 64 55 61 51 63 57 77 77 91 88 61 39 23 14
14 51 80 98 100 100 100 100 100 95 72 81 92 91 85 100 98 92 94 91 79 78 87 93 84 94 84 85 100 100 100 99 95 84 96 89 73 86 96 75 70 59 63 55 61 60 64 74 80 75 49 32 17 9
29 62 80 100 100 100 100 93 90 92 86 89 84 78 74 88 85 92 90 80 73 86 96 95 82 92 100 94 97 100 100 100 94 90 89 84 85 80 91 78 64 62 62 58 53 76 60 68 71 53 32 21 10 7
46 82 84 96 100 100 96 83 87 81 82 76 80 79 80 92 96 98 94 77 86 100 100 95 85 100 100 98 100 100 100 99 85 86 84 85 90 82 74 70 60 74 62 77 52 64 64 70 68 35 21 12 6 5
49 70 80 100 97 84 87 83 83 68 65 69 77 78 97 100 100 100 95 90 95 99 91 100 98 100 90 92 98 98 100 93 100 94 79 94 80 64 64 56 63 70 56 64 59 59 58 71 64 29 17 8 5 4
73 94 100 100 96 100 90 78 70 64 60 65 78 98 100 100 100 100 100 93 80 84 100 100 99 99 96 96 100 100 100 100 100 88 80 82 70 70 62 60 48 49 57 55 67 56 61 70 43 28 11 5 4 3
82 91 100 100 100 98 92 77 67 60 66 94 100 100 100 100 100 100 99 94 89 100 100 100 99 99 98 95 100 100 100 98 95 81 79 79 68 63 56 52 48 42 61 52 56 62 58 62 36 15 7 4 3 3
59 86 94 98 100 100 100 93 72 61 83 98 100 100 100 100 100 100 100 100 100 100 100 100 99 94 96 100 100 100 100 97 97 80 73 68 63 68 51 47 57 46 53 58 51 63 63 49 22 7 4 3 2 2
95 100 93 100 100 100 100 90 69 76 100 100 100 100 100 100 100 100 100 100 100 100 100 99 97 99 100 100 100 100 94 86 94 71 68 62 56 54 58 46 43 59 52 58 47 60 57 37 12 5 3 2 2 2
100 100 100 100 100 100 99 100 91 100 100 100 100 100 100 100 100 100 100 100 100 100 100 100 100 98 100 97 100 98 85 85 76 65 60 50 55 55 50 48 53 55 53 47 55 54 37 20 6 3 2 2 2 2
100 100 100 100 100 100 100 100 100 100 100 100 100 100 100 100 100 100 100 100 100 100 100 100 100 99 100 99 85 91 80 80 66 62 58 58 64 56 50 50 59 47 50 52 49 37 16 10 4 3 2 2 2 3
100 100 100 100 100 100 100 100 100 100 100 100 100 100 100 100 100 100 100 100 100 100 100 100 99 89 89 84 96 94 84 71 73 61 64 61 52 50 46 56 48 51 49 50 49 23 12 4 3 3 2 2 2 2
100 100 100 100 100 100 100 100 100 100 100 100 100 100 100 100 100 100 100 100 100 100 100 100 81 75 75 83 100 82 76 72 68 65 59 63 49 49 58 46 48 51 52 39 26 10 5 3 3 2 2 2 2 2
100 100 100 100 100 100 100 100 100 100 100 100 100 100 100 100 100 100 100 100 100 100 99 76 70 74 76 79 76 70 77 82 75 55 60 57 54 54 53 51 50 47 46 39 13 5 3 3 2 2 2 2 2 2
100 100 100 100 100 100 100 100 100 100 100 100 100 100 100 100 100 100 100 100 98 100 79 70 76 87 79 76 81 72 70 77 63 66 56 57 56 58 54 54 47 46 33 14 6 4 3 2 2 2 2 2 3 3
100 100 100 100 100 100 100 100 100 100 100 100 100 100 100 100 100 100 96 99 96 81 79 81 86 81 83 81 73 72 65 68 66 60 56 53 55 57 57 49 46 36 19 9 4 3 2 2 2 2 3 3 4 4
100 100 100 100 100 100 100 100 100 100 100 100 100 100 100 100 97 100 99 86 82 88 90 90 87 83 76 76 67 69 68 68 65 60 53 49 51 52 47 48 44 32 16 5 3 3 2 2 3 3 3 3 4 4
100 100 100 100 100 100 100 100 100 100 100 100 100 100 100 100 100 100 97 92 92 97 90 85 89 88 76 65 70 75 77 70 63 52 53 53 54 51 41 41 23 8 5 3 3 2 2 3 4 4 3 3 3 3
100 100 100 100 100 100 100 100 100 100 100 100 99 100 100 100 100 98 97 100 100 93 89 91 85 72 65 68 72 69 69 63 57 57 58 56 52 43 40 23 7 5 3 3 3 2 3 4 4 4 4 4 3 3
100 100 100 100 100 100 100 100 100 100 100 100 100 100 100 100 100 100 100 98 89 90 91 76 60 65 68 71 72 68 67 59 56 62 54 55 55 51 35 12 6 3 3 3 3 4 4 4 4 4 4 4 4 3
100 100 100 100 100 100 100 100 100 100 100 100 100 100 100 99 98 100 98 93 87 75 70 71 75 76 75 68 68 63 56 57 55 53 51 50 49 39 12 7 4 3 3 3 4 5 5 4 4 4 4 4 3 3
100 100 100 100 100 100 100 100 100 100 100 100 100 99 100 100 98 99 93 88 85 81 80 81 77 66 66 65 61 58 53 54 54 50 46 44 39 11 7 4 3 3 3 4 5 5 5 5 5 4 4 4 4 4
100 100 100 100 100 100 100 100 100 97 97 95 96 99 98 100 100 100 98 88 85 86 82 74 67 64 65 62 58 51 52 54 53 52 45 42 10 10 4 4 3 3 4 6 6 6 6 5 5 5 5 5 5 5
100 100 100 100 100 100 100 100 100 100 100 100 100 100 96 93 97 94 94 92 86 80 73 67 62 62 61 57 52 52 57 52 51 46 42 11 11 5 4 4 4 4 6 6 6 6 5 5 5 5 4 5 5 4

GFSWCAN_250_rhum_066.txt.gz
RH
2 2 4 6 10 8 8 8 13 37 61 90 100 90 100 100 88 100 100 100 100 100 97 100 85 68 58 48 48 48 45 39 39 41 45 42 44 43 44 46 52 46 42 54 51 59 70 73 73 74 64 54 45 34
3 3 5 9 9 10 14 27 20 29 73 100 96 100 100 98 94 100 100 100 100 100 100 100 89 71 62 59 52 55 57 51 43 42 46 50 45 42 43 47 46 49 50 50 53 46 53 64 73 67 70 48 45 36
3 4 9 9 13 17 17 27 36 51 100 99 100 100 100 93 100 96 100 100 100 100 100 100 100 76 69 67 60 62 66 66 53 47 50 49 46 44 41 41 46 48 46 46 50 47 61 61 70 72 67 57 45 35
4 7 10 11 24 21 23 38 64 98 91 91 100 100 96 96 98 100 100 100 100 100 100 100 98 73 73 65 64 62 67 78 71 59 51 52 49 43 38 43 48 42 47 48 50 52 60 62 70 74 68 60 53 52
4 8 10 14 23 25 39 65 81 79 90 100 100 100 100 95 89 100 100 100 100 100 99 100 99 77 72 68 66 62 62 81 84 77 66 59 61 64 48 44 47 50 41 48 44 49 54 61 69 74 81 64 66 38
6 8 8 12 21 34 45 81 77 100 100 100 100 99 100 100 79 100 100 100 100 100 100 100 100 83 66 68 72 71 67 76 84 82 84 83 78 72 60 57 50 49 47 48 51 56 52 61 74 81 93 95 82 72
6 8 10 12 23 41 70 76 90 88 100 100 100 100 100 94 88 100 100 100 100 100 99 100 100 86 69 70 84 76 65 68 74 79 91 87 77 81 71 60 61 53 50 49 51 49 57 74 78 91 86 95 76 72
9 11 10 20 44 44 66 69 90 94 100 99 100 95 95 92 93 95 100 100 100 100 100 100 100 93 80 81 88 76 72 83 84 78 79 82 83 88 78 69 64 62 58 52 45 55 65 74 73 88 79 86 93 84
11 12 15 24 44 58 76 85 90 83 100 100 99 93 90 89 100 90 100 100 100 100 100 100 100 93 84 88 89 89 80 81 78 90 79 86 94 95 90 79 77 64 56 57 53 56 71 67 78 84 86 77 82 87
9 9 21 45 44 72 66 97 91 99 98 96 92 91 100 93 100 99 100 100 100 100 100 100 99 93 89 95 95 92 89 80 79 86 91 89 85 95 91 86 78 70 55 55 57 59 62 77 83 90 95 74 77 81
11 8 22 46 57 69 76 86 89 92 84 87 92 99 100 100 100 98 96 95 100 100 98 100 100 95 98 100 88 88 92 86 77 86 88 87 85 100 99 92 79 63 55 57 64 55 60 70 78 90 95 66 68 48
11 11 38 74 86 75 84 87 94 98 97 100 94 80 89 97 99 97 99 99 100 99 100 100 88 85 95 99 97 93 96 87 89 87 81 84 88 100 97 87 90 62 60 64 58 57 58 71 69 90 80 59 64 30
12 18 50 57 53 79 92 92 89 100 98 95 95 61 87 93 95 92 100 100 99 97 92 84 72 80 93 100 100 98 94 92 96 92 81 99 97 99 98 100 92 63 59 57 52 59 63 77 67 78 57 54 39 15
14 24 43 53 68 80 100 100 99 95 90 92 89 80 81 92 100 100 99 98 93 88 87 83 76 78 97 100 100 98 100 96 93 94 94 97 94 99 95 94 88 63 61 54 53 72 64 69 79 64 48 53 17 7
16 35 46 47 71 86 100 100 99 92 96 100 95 74 90 100 95 97 99 99 93 98 100 95 89 88 100 100 100 96 100 94 99 94 96 100 99 95 88 82 77 66 56 57 55 66 66 74 78 80 39 36 8 4
27 35 68 56 84 100 100 100 96 97 96 100 98 100 100 96 99 100 100 100 100 99 100 100 100 100 100 95 94 98 97 100 97 96 96 91 87 94 90 87 74 62 58 54 57 56 68 67 72 73 32 22 6 4
15 25 41 55 87 100 100 100 87 93 99 96 100 99 93 99 97 100 100 98 100 100 100 100 100 100 95 94 92 100 97 96 84 92 93 82 93 99 94 84 58 60 60 48 54 58 68 69 62 45 28 12 4 3
23 28 48 61 86 96 100 100 98 86 85 85 94 84 94 97 100 100 100 100 100 100 100 100 98 96 94 94 97 99 90 87 94 91 79 77 75 85 80 67 59 57 52 50 60 65 68 71 46 36 16 6 4 3
18 24 65 84 100 100 100 100 100 95 88 90 78 82 100 97 97 99 100 100 100 100 98 97 96 98 100 100 98 97 88 83 80 79 77 70 72 72 70 64 58 56 51 58 58 74 75 57 35 20 6 4 3 3
33 59 94 99 100 100 100 96 98 100 99 97 90 99 100 100 100 100 100 100 100 100 95 98 100 100 100 100 100 91 87 81 76 76 67 65 65 59 62 60 55 51 54 59 64 72 61 53 21 9 4 3 2 3
61 86 100 100 100 99 100 96 100 100 100 100 100 100 100 100 100 100 100 100 100 98 100 100 100 100 100 100 100 96 82 80 75 69 66 57 60 60 56 51 50 52 52 60 62 70 54 26 12 5 3 3 2 2
75 100 100 100 100 100 100 100 100 100 100 100 100 100 100 100 100 100 100 100 100 100 100 99 100 100 100 100 100 98 93 82 75 70 60 66 58 58 57 48 48 51 54 51 66 64 44 11 5 3 3 3 2 3
100 100 100 100 100 100 100 100 100 100 100 100 100 100 100 100 100 100 100 100 100 100 95 97 100 100 94 97 100 97 85 76 77 62 70 66 63 60 47 48 46 46 54 60 69 56 11 7 4 3 3 3 4 4
100 100 100 100 100 100 100 100 100 100 100 100 100 100 100 100 100 100 100 100 100 100 100 97 99 94 90 92 88 91 86 88 78 69 69 62 62 45 47 49 50 52 47 57 45 16 8 4 3 3 3 4 4 3
100 100 100 100 100 100 100 100 100 100 100 100 100 100 100 100 100 100 100 100 100 100 94 97 97 86 87 87 94 95 91 84 72 61 62 54 49 49 51 49 47 47 53 59 36 11 7 3 3 3 4 4 4 3
100 100 100 100 100 100 100 100 100 100 100 100 100 100 100 100 100 100 100 100 100 100 100 100 95 98 92 98 100 92 85 74 69 66 51 49 49 46 47 58 50 55 60 39 14 10 4 3 4 4 4 4 4 4
100 100 100 100 100 100 100 100 100 100 100 100 100 100 100 100 100 100 100 100 100 100 100 98 100 92 91 91 91 84 75 73 60 50 51 48 44 51 51 47 48 53 34 20 7 4 3 3 4 4 4 4 4 4
100 100 100 100 100 100 100 100 100 100 100 100 100 100 100 100 100 100 100 100 100 100 100 100 96 90 85 94 87 81 74 58 55 50 44 46 48 52 39 41 42 32 19 8 5 3 3 4 5 5 5 5 5 5
100 100 100 100 100 100 100 100 100 100 100 100 100 100 100 100 100 100 100 100 100 100 97 96 90 84 88 80 74 72 62 54 53 47 52 48 50 47 42 51 46 24 13 5 4 3 4 5 5 5 6 5 5 5
100 100 100 100 100 100 100 100 100 100 100 100 100 100 100 100 100 100 94 96 100 100 97 90 86 81 77 75 71 61 58 56 50 48 49 52 50 46 54 59 27 16 7 4 3 3 5 5 6 6 5 5 5 5
100 100 100 100 100 100 100 100 100 100 100 100 100 100 100 100 100 100 100 100 100 100 87 82 81 79 76 69 60 58 56 50 45 47 52 53 49 54 61 34 18 9 4 4 3 4 5 6 6 6 6 6 6 6
100 100 100 100 100 100 100 100 100 100 100 100 100 100 100 100 100 100 100 99 94 86 87 78 77 70 64 58 54 49 48 47 49 51 50 50 57 54 32 18 10 5 4 3 4 5 6 6 6 6 6 5 4 4
100 100 100 100 100 100 100 100 100 100 100 100 100 100 100 100 100 100 97 90 83 78 71 70 65 60 56 48 50 50 50 50 50 49 54 60 48 32 19 10 5 4 4 4 5 6 6 6 6 5 4 4 4 3

GFSWCAN_250_rhum_069.txt.gz
RH
2 3 2 4 10 15 14 12 10 9 12 13 30 50 86 92 99 100 99 100 100 99 91 93 81 67 50 44 45 45 48 48 50 44 41 39 43 44 42 40 43 46 45 49 54 59 66 62 66 65 64 79 79 75
2 3 4 8 11 16 17 19 16 16 16 37 46 74 76 99 100 89 100 100 100 98 85 93 86 72 61 53 51 48 47 52 57 58 54 53 55 49 40 39 39 40 42 42 49 55 60 54 68 75 58 53 55 56
3 4 6 12 15 17 22 20 17 19 41 60 79 89 85 100 97 84 100 100 100 91 88 98 100 82 74 59 52 50 48 50 52 50 54 59 62 62 70 60 53 44 42 40 47 53 58 63 72 83 85 65 63 57
3 4 5 10 13 16 29 23 22 32 44 84 100 93 100 100 84 100 100 100 100 93 94 100 100 90 78 67 59 55 54 51 55 53 58 54 59 54 60 73 72 60 53 50 48 57 56 59 80 92 95 79 80 71
4 5 7 9 10 15 23 29 32 36 56 97 100 88 100 97 85 100 100 100 100 100 100 100 100 95 86 70 66 71 60 58 58 52 63 59 61 66 61 64 80 68 69 71 52 53 54 62 72 88 98 93 92 89
4 5 9 12 13 17 22 26 54 56 67 100 100 95 100 98 100 100 100 100 100 100 100 100 99 100 98 73 74 74 66 61 62 58 61 67 65 67 68 68 82 83 73 79 72 58 55 64 73 80 81 100 94 96
4 7 10 12 14 22 31 44 64 66 92 100 90 100 100 100 99 100 100 100 100 100 100 100 100 100 100 87 85 79 70 62 65 66 66 72 67 66 67 64 72 80 77 95 86 67 60 70 64 68 85 100 99 100
4 6 10 15 15 24 35 52 58 69 96 100 100 100 99 99 89 100 100 100 100 100 97 100 100 100 100 100 97 89 85 68 66 63 69 71 68 62 60 62 73 78 86 83 87 86 66 80 63 77 86 100 100 100
4 7 11 14 16 20 32 36 57 82 97 96 94 100 100 100 93 96 100 100 100 100 100 100 100 100 100 100 98 96 97 75 73 70 69 68 71 66 68 70 75 85 86 78 90 90 96 66 75 77 95 100 100 88
4 6 10 15 17 22 38 58 60 92 94 100 98 100 100 91 100 88 100 100 100 100 100 100 100 100 100 100 100 100 100 87 73 74 72 68 73 69 70 73 82 87 87 92 99 91 92 69 74 66 86 100 100 86
4 6 7 14 15 30 42 70 79 92 100 100 97 100 100 99 100 99 90 90 100 100 100 98 100 100 100 100 100 100 100 93 82 79 78 73 80 74 78 76 86 90 95 100 96 99 95 77 71 74 90 99 95 77
4 7 9 13 18 34 57 78 82 96 100 100 97 100 100 100 100 100 94 85 100 100 82 82 98 100 100 100 100 96 94 89 81 79 80 80 78 78 82 79 93 100 90 86 80 98 79 71 70 82 87 100 81 63
4 7 8 12 18 39 74 78 81 93 89 88 99 98 100 100 100 100 100 99 100 100 92 83 100 100 97 100 96 87 89 81 78 82 70 79 83 84 79 79 99 93 80 71 74 80 69 65 69 86 94 93 60 44
4 7 8 14 23 56 82 78 91 94 89 88 100 100 98 100 100 100 100 100 99 94 92 95 97 100 100 100 98 98 95 88 84 82 75 76 79 78 81 90 92 81 77 71 72 64 63 65 80 87 99 70 48 27
4 7 9 18 35 72 82 94 93 100 95 97 100 100 99 100 100 100 100 100 99 92 92 99 100 98 100 100 97 98 95 94 89 80 68 72 80 74 86 86 85 79 77 73 72 71 63 68 90 92 71 44 26 12
5 7 11 21 51 84 93 97 97 100 90 97 97 100 100 100 99 100 100 100 100 99 95 99 100 95 99 98 98 96 96 95 86 72 68 74 75 86 84 85 82 82 78 66 77 70 67 72 80 90 64 35 14 7
4 7 10 33 44 83 94 97 100 98 98 88 100 100 100 94 95 97 91 90 95 100 100 100 98 100 98 95 94 97 94 89 76 63 65 75 84 88 93 97 79 81 77 68 78 63 70 69 69 56 46 21 10 5
4 6 15 31 35 61 87 100 100 94 99 100 100 99 88 92 94 98 99 100 100 100 100 99 100 100 100 98 98 99 93 81 67 60 70 88 100 96 91 92 78 74 71 72 57 60 70 67 65 46 27 13 7 4
4 6 11 26 40 86 92 91 100 100 98 100 100 94 96 96 94 96 100 100 100 100 100 95 94 98 99 98 99 94 86 75 67 68 89 100 98 98 91 76 74 76 67 63 61 58 72 66 62 33 18 8 5 3
4 8 18 39 62 81 83 99 100 100 95 97 100 97 88 87 91 99 100 100 100 100 100 95 92 95 95 99 100 92 86 76 71 84 100 99 95 94 78 69 75 75 63 56 54 66 65 62 41 27 10 5 4 3
5 8 18 51 78 82 84 100 100 100 100 100 100 98 96 91 86 94 99 100 100 100 100 100 100 99 100 98 94 91 88 80 82 100 100 96 90 86 69 76 74 64 61 55 63 57 70 54 31 13 8 4 3 3
5 7 20 68 86 66 93 100 100 100 100 100 100 94 95 99 99 100 100 100 100 100 100 100 100 100 100 100 100 96 81 82 100 100 94 92 83 73 69 66 69 60 56 52 59 62 64 48 19 9 5 3 3 4
5 10 34 78 67 59 95 100 100 100 100 100 94 92 99 100 100 100 100 100 100 100 100 100 100 100 100 100 100 98 91 92 90 95 97 86 76 72 76 64 62 57 52 55 60 60 48 21 10 6 4 3 4 4
10 35 56 73 64 53 78 96 100 100 100 91 91 100 100 100 100 100 100 100 100 100 100 100 100 100 100 100 93 89 91 87 88 92 89 79 83 68 67 58 56 52 52 60 60 57 29 15 6 4 3 3 5 5
15 33 66 83 57 60 90 100 100 100 95 100 100 100 100 100 100 100 100 100 100 100 100 100 100 100 94 86 96 94 88 91 90 83 80 79 70 64 54 56 51 51 57 57 68 55 27 9 4 4 3 4 6 5
8 22 60 97 96 84 100 100 100 100 100 100 100 100 100 100 100 100 100 100 100 100 100 100 98 92 91 100 95 88 95 94 86 78 74 69 64 56 55 51 52 52 56 62 68 37 16 6 4 3 4 5 6 5
19 45 97 100 100 100 100 100 100 100 100 100 100 100 100 100 100 100 100 100 100 100 100 100 94 99 100 98 96 100 92 87 81 76 65 59 57 52 49 51 52 52 60 67 44 19 8 5 4 3 4 6 6 5
36 89 100 100 100 100 100 100 100 100 100 100 100 100 100 100 100 100 100 100 100 100 100 100 100 100 100 100 100 90 81 78 70 60 56 56 47 48 51 52 54 58 65 53 28 9 5 4 3 3 6 6 5 5
86 100 100 100 100 100 100 100 100 100 100 100 100 100 100 100 100 100 100 100 100 100 100 100 100 100 100 98 84 76 73 64 62 56 52 46 46 49 52 52 60 66 56 27 9 6 4 4 3 4 6 6 5 5
100 100 100 100 100 100 100 100 100 100 100 100 100 100 100 100 100 100 100 100 100 100 100 100 100 98 84 77 71 67 61 59 51 48 48 48 50 54 52 61 66 57 41 12 6 4 4 4 4 6 6 6 6 4
100 100 100 100 100 100 100 100 100 100 100 100 100 100 100 100 100 100 100 100 100 100 100 100 94 82 68 70 64 62 56 50 47 48 50 51 53 54 61 63 66 36 16 7 5 4 4 3 5 6 6 6 5 4
100 100 100 100 100 100 100 100 100 100 100 100 100 100 100 100 100 100 100 100 100 100 98 83 74 74 72 64 61 58 48 49 52 51 51 51 55 60 64 68 44 20 8 4 4 4 3 4 6 6 6 5 4 4
100 100 100 100 100 100 100 100 100 100 100 100 100 100 100 100 100 100 100 100 100 91 81 76 74 64 59 59 54 54 56 52 50 47 54 57 64 64 62 37 18 9 5 4 4 3 4 5 6 5 5 4 4 3

GFSWCAN_250_rhum_072.txt.gz
RH
4 3 3 4 8 11 15 13 16 14 12 12 24 43 81 100 95 96 100 98 94 80 72 68 60 50 51 46 42 43 45 44 42 45 47 49 44 41 43 47 54 56 54 54 56 61 64 63 69 74 71 68 58 57
4 4 4 6 10 12 14 16 21 23 18 26 39 75 100 99 100 100 100 100 100 97 83 68 59 54 52 52 44 42 42 40 41 41 41 45 46 51 51 49 50 54 52 56 70 62 72 68 72 70 70 77 92 62
4 4 5 7 10 12 14 16 25 18 31 40 72 81 100 94 100 93 100 100 100 99 91 80 69 69 60 53 52 49 47 44 41 41 44 45 52 53 56 53 53 59 60 64 76 76 77 68 81 88 77 86 88 100
4 4 5 8 10 15 15 15 18 22 39 46 74 96 97 100 96 100 100 100 95 98 100 91 76 75 69 62 60 54 46 44 50 50 51 54 57 59 58 58 54 65 69 64 66 74 74 70 92 100 99 81 90 98
5 4 6 10 14 14 13 16 23 32 43 69 93 96 99 98 100 100 100 100 97 100 100 100 99 92 82 71 67 58 54 51 50 53 55 58 61 63 62 59 62 66 66 81 78 81 87 77 92 100 92 82 88 100
7 5 6 13 21 19 20 29 33 43 61 83 78 100 100 95 100 100 100 100 99 100 100 99 100 95 94 88 76 69 62 59 58 57 58 61 61 59 61 67 66 71 72 79 81 94 86 88 87 97 99 91 99 100
9 5 6 12 18 19 23 49 51 55 66 89 97 100 99 94 100 100 100 100 100 100 100 100 99 94 93 97 98 84 73 64 66 65 67 68 63 65 68 63 65 67 71 85 98 92 86 92 94 99 95 89 100 93
19 6 6 12 19 22 23 44 53 55 72 86 98 100 100 94 98 100 100 100 100 100 100 98 99 98 96 92 95 94 87 75 74 70 71 66 64 64 69 68 69 66 78 82 92 94 85 91 95 100 100 95 85 90
36 7 5 7 16 22 24 42 48 65 88 82 96 100 100 99 80 100 100 100 100 100 100 100 91 89 95 92 97 99 92 86 79 76 71 66 64 64 64 64 68 71 75 84 94 97 80 100 97 100 90 93 100 79
56 10 4 5 12 19 21 32 47 78 98 85 100 100 100 100 93 100 100 100 100 100 100 100 99 95 100 99 97 100 96 91 82 79 74 72 71 72 68 63 65 66 75 86 93 97 96 100 97 100 94 87 99 77
63 48 5 5 10 19 29 33 65 78 92 98 95 100 100 100 100 87 98 100 100 100 100 99 100 100 98 100 100 100 94 94 98 87 80 80 75 70 64 59 60 73 76 93 96 97 95 99 99 99 85 87 86 74
83 54 7 6 10 19 35 47 70 72 89 100 84 99 99 100 100 100 98 92 100 100 100 100 97 89 92 94 100 100 100 100 99 86 80 71 70 70 64 58 64 76 86 96 98 95 97 91 94 96 80 76 94 72
45 79 9 6 10 24 33 31 57 70 97 98 82 89 94 98 100 100 100 95 99 100 100 100 100 93 97 93 85 100 98 99 90 86 75 70 69 68 60 58 68 86 94 97 93 95 99 92 90 82 72 75 82 74
38 48 8 5 7 16 19 24 68 87 96 100 97 91 88 95 100 100 100 100 100 100 100 100 100 98 92 93 97 89 96 88 84 78 73 66 65 61 59 65 87 92 88 93 98 94 96 84 91 77 82 76 66 50
37 44 10 6 6 11 21 25 59 79 95 100 90 88 93 100 100 100 100 100 100 100 100 100 96 90 95 96 94 95 99 92 82 73 65 62 59 64 70 73 91 94 81 89 91 96 92 85 74 69 68 73 56 29
37 20 9 6 5 9 20 20 53 70 94 100 100 92 97 100 100 100 100 100 100 100 100 100 96 93 96 96 99 95 90 82 79 67 59 58 60 70 79 83 94 91 84 84 86 83 88 72 75 72 69 63 52 22
36 9 8 6 5 7 16 18 41 55 76 99 100 97 100 100 100 100 100 100 100 100 100 100 98 96 98 100 89 84 82 80 73 64 60 57 67 75 81 98 95 84 83 81 81 71 74 66 67 72 77 69 38 15
38 7 8 6 5 6 11 16 42 48 78 100 100 100 100 100 100 100 100 100 100 100 100 95 89 96 99 90 95 93 90 86 80 68 67 73 78 88 100 100 88 74 90 78 75 70 66 66 66 69 69 51 22 12
32 7 7 5 4 6 8 13 27 69 92 100 99 100 100 100 100 100 98 100 100 100 99 100 100 100 100 98 98 100 100 97 89 86 79 81 89 100 99 83 74 85 93 75 66 71 63 67 71 69 48 28 11 8
10 6 7 5 4 6 8 14 31 81 98 100 100 100 100 100 100 100 100 100 100 100 100 100 100 100 99 100 100 100 94 96 97 93 82 91 95 99 83 67 77 93 80 62 68 67 70 62 70 63 39 16 8 6
6 6 6 4 4 6 7 14 37 98 100 100 100 100 100 100 100 100 100 98 95 95 98 100 100 100 100 100 100 100 97 93 94 94 93 96 98 86 64 72 78 84 64 70 65 65 60 61 71 49 27 10 8 4
5 5 4 4 4 5 7 13 45 100 100 100 100 100 100 100 100 100 100 100 100 100 100 100 100 100 100 100 100 100 89 94 97 90 98 96 86 60 68 74 72 66 60 67 62 55 57 64 64 36 17 9 6 4
4 3 3 3 3 4 6 12 35 98 100 100 100 100 100 100 100 100 100 100 100 100 100 100 100 100 100 100 100 99 91 96 96 97 90 86 64 64 65 65 65 61 64 60 56 56 65 61 41 27 12 8 4 3
3 2 3 3 3 4 6 11 35 76 100 100 100 95 99 100 100 100 100 100 100 100 100 100 100 100 100 100 100 100 99 92 81 78 82 74 60 67 61 64 63 61 61 54 57 60 59 46 35 18 10 6 4 3
2 2 2 2 3 4 7 17 49 81 99 100 97 99 100 100 99 100 100 100 100 100 100 100 100 100 100 100 100 91 86 80 82 81 76 67 61 54 64 64 61 58 51 54 65 72 57 44 26 11 8 4 3 3
2 2 2 2 3 5 10 23 64 86 97 100 100 100 100 96 98 100 100 100 100 100 100 100 100 100 100 100 100 86 75 88 89 76 68 57 57 63 68 64 49 48 52 58 62 77 50 37 16 8 5 4 3 3
2 2 2 3 4 9 24 55 100 99 96 100 100 100 100 97 93 100 100 100 100 100 100 100 100 100 100 100 89 78 90 95 80 66 61 59 64 69 63 50 54 46 54 64 63 57 41 26 10 6 4 4 3 5
2 3 3 5 9 24 54 82 100 100 92 100 100 100 100 100 100 100 100 100 100 100 100 100 100 100 100 98 92 94 91 76 72 70 67 66 66 66 53 48 47 51 59 59 64 45 29 13 7 4 4 3 4 6
3 3 5 8 19 38 64 97 100 100 100 100 100 100 100 100 100 100 100 100 100 100 100 100 100 100 100 98 96 86 73 77 79 81 68 58 59 51 45 46 46 58 62 58 53 38 16 9 5 4 3 3 5 6
4 4 8 16 30 57 100 100 100 100 100 100 100 100 100 100 100 100 100 100 100 100 100 100 100 100 100 95 89 81 80 81 83 68 57 60 48 42 45 47 56 59 50 62 31 20 10 6 4 4 4 4 6 6
5 7 15 36 67 100 100 100 100 100 100 100 100 100 100 100 100 100 100 100 100 100 100 100 100 100 100 99 93 91 93 79 66 62 60 45 43 45 51 54 55 58 54 52 24 10 6 4 3 3 4 6 6 6
8 14 29 52 94 100 100 100 100 100 100 100 100 100 100 100 100 100 100 100 100 100 100 100 100 100 100 95 91 87 70 65 67 60 43 45 49 52 57 53 59 48 46 44 14 7 4 4 3 3 5 6 6 4
33 54 78 100 100 100 100 100 100 100 100 100 100 100 100 100 100 100 100 100 100 100 100 100 100 100 93 88 76 68 68 72 65 50 49 50 55 54 55 54 49 56 41 21 8 4 4 3 3 4 6 6 5 4

GFSWCAN_250_rhum_075.txt.gz
RH
38 12 4 7 8 10 15 22 29 28 31 48 73 79 75 90 82 59 54 55 56 53 48 44 44 47 48 43 41 42 41 42 43 46 46 44 47 50 51 51 52 53 58 68 70 66 64 67 72 75 80 68 85 76
61 15 4 8 9 10 17 22 31 30 41 47 73 67 75 92 82 65 58 61 61 58 51 51 48 50 45 45 43 42 44 47 48 48 48 52 51 53 55 57 56 58 70 65 65 69 75 73 83 84 86 82 95 96
64 21 4 7 10 11 18 26 47 46 56 72 93 85 83 96 95 73 70 80 70 64 57 59 55 52 51 50 49 48 48 50 53 54 53 54 54 56 58 58 58 63 66 71 70 77 88 83 90 93 96 100 99 91
63 26 4 6 10 12 18 26 76 62 82 94 98 78 94 98 99 100 100 87 82 83 80 79 66 56 54 53 51 53 53 54 57 59 56 54 52 53 56 58 59 62 66 72 81 84 74 96 98 98 100 94 100 99
65 46 7 5 9 12 18 32 62 63 87 100 100 85 95 100 100 100 100 95 94 97 95 89 86 75 65 61 58 63 62 60 64 65 64 60 54 51 55 56 58 63 66 79 77 94 99 88 98 96 100 100 100 100
80 72 27 5 10 15 20 23 44 55 89 100 100 97 95 97 100 100 100 100 100 97 89 88 99 91 84 72 70 76 71 66 65 67 64 60 58 56 54 63 60 61 67 76 89 97 99 100 98 100 100 100 100 100
79 71 57 12 8 16 24 26 48 63 92 100 100 99 90 85 93 100 100 96 100 98 100 99 97 100 98 88 79 72 74 75 72 72 71 70 66 63 59 59 59 61 66 76 83 93 97 99 100 100 100 100 100 99
66 68 68 33 10 13 22 32 36 54 74 100 100 95 92 97 88 99 100 100 100 100 94 100 100 100 98 95 85 80 79 79 74 78 83 83 79 72 63 64 64 65 67 73 87 95 100 99 100 100 95 100 100 100
74 75 75 61 39 8 17 36 44 49 69 98 100 100 100 95 86 96 100 100 100 100 99 100 100 100 100 92 92 91 89 84 80 87 79 76 73 72 70 65 63 62 67 79 91 100 99 90 99 99 84 93 98 96
68 65 64 64 41 9 13 26 35 42 73 97 100 100 100 100 91 91 99 100 100 100 100 100 100 100 96 96 98 99 95 90 96 92 73 69 71 74 75 68 61 64 71 80 90 99 84 88 100 92 98 90 89 91
69 61 66 73 46 11 7 19 36 48 54 91 100 100 100 100 100 81 75 91 100 100 100 100 100 100 100 99 90 89 82 82 82 77 71 68 74 79 77 69 61 65 75 82 88 98 84 91 94 85 98 82 82 79
64 68 72 64 46 21 6 10 28 52 60 79 87 100 100 100 100 94 81 81 91 100 100 100 100 89 94 94 93 88 94 95 85 71 70 71 76 77 74 64 61 64 72 75 82 91 84 92 84 83 82 75 79 76
61 75 82 64 64 64 16 6 14 26 62 48 75 100 100 100 100 100 100 100 98 100 92 91 100 100 100 83 80 77 80 84 84 85 79 71 75 76 69 65 61 64 69 77 79 88 85 91 89 80 64 74 88 72
64 77 69 71 75 50 77 36 9 17 38 50 72 100 97 100 100 100 100 100 100 100 98 86 93 80 94 99 82 71 78 82 90 90 76 74 80 84 80 71 60 64 66 72 84 85 76 80 81 78 72 71 78 68
64 71 61 62 74 64 66 47 8 11 23 40 59 82 99 100 100 100 100 100 100 100 100 100 100 99 100 94 84 84 87 88 95 96 83 80 88 91 91 73 62 58 70 71 88 74 64 76 81 64 66 66 65 60
60 71 73 63 72 68 56 42 9 7 10 20 56 78 100 100 100 100 100 100 100 100 100 100 100 100 100 95 97 96 91 95 92 95 94 91 90 92 92 72 62 59 71 86 79 64 64 82 65 63 66 65 61 57
70 84 75 96 51 62 52 59 39 6 10 14 59 96 100 100 100 100 100 100 100 100 100 100 100 100 100 100 100 98 97 91 94 100 100 91 97 96 90 70 61 62 77 84 67 59 69 75 57 64 65 66 60 46
72 66 70 43 50 41 42 41 16 6 7 16 70 100 100 100 100 100 100 100 100 100 100 100 100 100 100 100 94 100 100 100 100 100 99 100 99 89 84 72 62 75 85 76 58 59 67 60 54 68 59 60 58 44
69 63 72 92 86 38 40 28 11 6 6 18 49 82 95 97 100 100 100 100 100 100 100 100 100 100 98 94 100 100 100 100 100 100 96 100 99 93 90 74 79 84 82 58 52 64 61 56 53 69 60 55 56 35
54 64 67 83 100 42 23 39 13 7 5 16 41 83 100 92 99 100 100 100 100 100 100 100 100 100 96 100 100 100 100 100 100 99 99 100 100 93 87 86 80 79 67 54 55 66 60 56 59 58 57 59 46 28
55 63 62 57 56 42 20 24 12 7 6 15 28 48 91 99 93 100 100 100 100 100 100 100 100 100 100 100 100 100 100 100 100 100 100 100 96 89 92 84 79 69 59 51 55 61 60 54 59 60 55 56 36 18
58 67 79 81 57 34 19 13 9 8 6 13 21 24 65 98 100 100 100 100 100 100 100 100 100 100 100 100 100 100 100 100 100 100 100 100 90 87 90 78 72 64 52 54 60 54 58 53 59 55 53 50 30 14
50 87 93 58 33 24 13 10 8 7 5 10 14 18 47 85 100 99 100 100 100 100 100 100 100 100 100 100 100 100 100 100 100 100 100 99 91 91 88 76 64 62 49 53 62 56 54 53 53 57 55 36 24 11
72 61 56 41 22 13 7 8 7 6 5 7 10 16 36 74 100 100 100 100 100 100 100 100 100 100 100 100 100 100 100 100 100 100 100 91 85 90 80 70 63 56 52 56 61 53 50 52 50 51 51 32 17 8
45 48 32 14 10 6 6 6 6 5 5 5 11 14 29 58 83 100 100 100 100 100 100 100 100 100 100 100 100 100 100 100 100 100 96 89 84 79 75 61 54 52 61 62 55 50 47 48 58 51 42 21 11 5
32 13 9 9 6 4 5 5 6 6 5 5 11 19 31 47 86 100 100 100 100 100 100 100 100 100 100 100 100 100 100 100 100 99 91 80 83 77 65 57 54 58 62 58 48 44 50 55 49 53 32 14 9 4
6 6 6 5 4 4 4 4 4 5 4 5 14 26 43 55 89 100 100 100 100 100 100 100 100 100 100 100 100 100 100 100 100 94 88 80 81 73 60 59 58 56 62 52 50 56 52 53 50 47 20 12 6 4
4 4 4 4 3 3 3 3 4 4 4 7 18 30 46 72 99 100 100 100 100 100 100 100 100 100 100 100 100 100 100 100 99 94 84 78 78 62 61 57 55 63 50 53 60 53 50 53 58 32 16 8 4 4
4 4 3 3 2 2 3 3 4 4 6 15 27 65 100 100 100 100 100 100 100 100 100 100 100 100 100 100 100 100 100 100 100 86 76 77 63 62 52 61 60 60 50 55 50 52 58 56 46 22 13 5 4 4
3 3 2 2 2 3 3 4 4 5 10 26 53 94 100 100 100 100 100 100 100 100 100 100 100 100 100 100 100 100 100 100 94 81 80 62 58 66 61 60 66 55 53 52 49 58 54 52 31 17 8 4 4 4
2 2 2 2 2 3 3 4 5 5 15 52 98 100 100 100 100 100 100 100 100 100 89 93 97 100 100 100 100 100 100 98 87 83 69 64 70 67 68 72 61 51 61 48 52 58 52 36 15 9 4 4 4 4
2 2 3 3 3 3 3 4 6 14 53 100 100 100 100 100 100 100 100 100 100 98 87 90 100 100 100 100 100 100 100 93 90 81 76 80 75 72 72 61 58 60 47 52 58 54 42 22 10 6 4 4 4 6
2 2 3 3 3 4 5 6 14 50 86 100 100 100 100 100 100 100 100 100 91 91 100 100 100 100 100 100 100 100 99 99 91 86 84 78 87 77 68 64 60 50 52 57 56 47 25 11 7 4 4 4 5 6

GFSWCAN_250_rhum_078.txt.gz
RH
56 75 25 10 11 24 43 46 47 53 65 56 69 58 43 45 45 47 47 44 40 42 47 46 44 44 46 47 48 47 48 50 50 48 50 50 49 49 51 53 54 61 70 60 55 79 80 65 72 82 86 77 71 78
49 77 49 20 13 19 47 72 64 57 66 74 81 60 48 50 48 48 46 47 47 48 48 47 45 44 45 45 47 49 48 48 48 49 47 49 51 51 52 57 60 57 65 70 71 75 77 80 93 82 80 91 92 90
45 70 63 40 14 17 43 71 70 85 76 93 93 64 51 52 57 56 51 51 53 54 51 48 48 48 48 48 48 49 49 49 50 49 48 48 51 54 56 57 62 66 67 70 84 90 92 100 99 94 77 83 91 88
49 56 78 46 17 16 47 68 71 97 98 100 100 82 57 55 59 60 56 57 56 56 54 52 56 53 56 55 56 55 53 55 56 54 52 56 58 57 54 58 64 66 68 73 87 95 100 99 96 99 98 97 86 92
37 66 81 66 41 18 24 56 69 91 100 100 100 100 83 60 71 75 69 67 66 69 64 61 55 58 64 71 72 65 64 63 64 67 70 70 68 67 64 65 65 64 66 76 80 91 97 95 99 92 95 89 98 88
39 50 67 93 73 42 19 24 55 77 100 100 100 100 100 90 92 90 87 84 81 80 80 74 79 77 79 86 83 79 74 73 77 78 76 76 71 66 66 69 66 61 66 71 83 91 93 96 93 95 97 92 83 79
55 47 63 93 100 60 36 21 40 86 92 100 100 100 100 100 100 99 93 93 96 91 92 92 91 90 92 92 94 87 82 80 88 83 79 73 70 65 69 76 76 67 66 72 78 75 76 89 98 89 88 83 75 84
64 54 53 70 91 100 40 18 30 69 64 100 100 100 100 100 100 100 100 100 100 99 93 94 97 84 93 92 89 86 85 85 80 77 73 70 67 71 76 80 82 73 67 66 70 70 69 97 97 87 78 77 72 84
87 81 51 57 96 100 63 44 18 39 65 84 100 100 100 100 100 100 100 100 100 92 94 86 81 84 78 85 88 85 88 84 78 73 72 72 74 79 80 79 90 84 74 69 67 64 62 96 96 73 66 75 65 76
80 95 46 58 83 96 80 57 36 16 28 83 84 88 100 100 100 99 100 100 100 100 100 99 93 85 79 79 79 76 71 73 83 90 72 74 84 81 83 86 98 89 78 70 69 61 61 95 90 72 65 63 70 72
100 93 63 64 64 80 99 92 74 25 22 32 82 94 87 80 99 99 86 99 100 100 100 100 100 98 84 77 73 69 68 67 76 71 71 76 81 86 85 87 86 85 84 73 71 64 62 89 81 70 63 58 66 66
84 82 78 65 69 80 94 100 92 54 14 19 30 84 92 80 93 100 98 92 99 100 100 100 100 100 100 86 71 69 65 67 74 73 77 86 90 89 95 91 92 82 78 78 72 61 71 85 83 66 60 62 58 66
86 82 69 50 63 92 79 100 86 87 55 33 23 41 92 99 97 100 100 100 99 83 100 100 94 100 100 100 96 80 68 70 72 82 88 93 96 96 100 100 100 87 74 75 73 62 80 80 81 66 55 59 54 65
100 90 97 79 58 81 84 81 94 100 100 88 37 22 40 98 100 100 100 100 100 100 99 98 98 94 87 86 82 77 79 79 80 85 96 93 92 99 100 100 100 96 79 80 74 71 75 77 76 64 53 59 51 62
100 100 78 73 74 58 72 71 91 100 100 98 63 20 20 59 100 100 100 100 100 100 100 100 100 100 95 100 98 94 91 100 96 94 97 100 100 100 100 100 100 93 83 82 74 92 79 78 72 58 52 52 55 62
93 100 78 74 57 62 60 80 79 100 100 96 78 29 10 41 93 100 100 100 100 100 100 100 100 100 100 100 100 100 100 97 96 98 95 100 100 100 100 100 100 94 81 77 92 91 80 75 65 56 49 47 51 73
100 87 75 68 49 77 62 63 77 91 100 100 100 36 11 14 43 99 100 100 100 100 100 100 100 100 100 100 100 100 100 100 99 96 100 100 100 100 100 100 100 92 76 80 94 93 80 72 57 50 49 46 57 59
100 99 95 60 64 84 75 66 65 75 87 100 96 74 18 10 16 40 84 100 100 100 100 100 100 98 100 100 100 100 99 95 100 100 98 100 100 100 100 100 99 92 86 78 92 91 75 68 54 48 51 52 56 57
100 96 83 72 64 54 48 54 79 75 80 93 100 100 83 16 12 16 28 68 94 100 100 100 96 100 100 100 100 100 86 95 100 100 100 100 100 100 100 100 100 90 82 90 88 81 71 62 50 47 45 58 55 55
99 99 84 70 47 48 45 65 75 76 88 94 100 100 74 52 12 13 16 26 60 99 100 100 100 100 100 100 100 95 91 100 100 100 100 100 100 100 100 100 100 93 77 86 88 76 66 56 48 44 49 46 52 50
100 100 81 54 43 49 40 47 51 65 75 96 100 100 81 54 15 10 15 15 26 84 100 100 100 96 100 100 96 93 100 100 100 100 100 100 100 100 100 100 98 86 77 83 82 68 60 50 43 50 48 55 50 49
100 99 74 47 39 45 32 44 45 58 79 99 100 100 91 54 21 8 9 12 25 81 100 100 100 100 100 100 100 100 100 100 100 100 100 100 100 100 100 100 100 86 75 86 79 66 56 49 44 52 47 51 44 44
96 66 48 47 39 30 28 33 48 66 87 100 100 82 71 53 26 9 7 10 28 80 100 99 100 100 98 100 99 100 100 100 100 100 100 100 100 100 100 100 100 94 80 82 71 61 52 48 46 48 48 50 43 34
75 72 65 39 28 23 30 43 50 51 79 100 90 54 46 38 18 9 6 10 31 48 91 100 98 98 100 100 100 100 98 99 100 100 100 100 100 100 100 100 100 78 78 81 66 57 52 46 48 43 49 44 44 32
78 59 33 21 28 33 37 43 49 48 62 60 41 29 24 20 11 7 7 12 24 47 84 100 100 100 100 100 100 100 100 100 100 100 100 100 100 100 100 100 94 76 75 72 61 53 51 43 52 45 48 42 41 27
42 26 22 33 34 40 52 49 31 30 32 27 16 14 12 11 6 5 8 12 23 49 84 100 100 100 100 100 100 100 100 100 100 100 100 100 100 100 100 100 85 74 75 72 60 52 51 46 45 46 44 48 32 24
23 24 26 35 55 50 26 25 21 14 9 8 8 7 7 6 5 7 9 12 21 49 84 100 100 100 100 100 100 100 100 100 99 100 100 100 100 100 100 100 90 72 74 71 58 53 46 48 45 47 43 46 29 21
26 38 44 40 33 29 18 13 11 8 5 5 6 6 6 7 7 7 9 17 32 52 80 99 100 100 100 100 100 100 100 100 100 100 100 100 100 100 100 100 91 79 81 73 58 51 51 48 48 44 50 33 24 18
38 32 22 15 14 12 9 7 6 6 5 5 5 6 6 7 7 7 8 20 42 64 84 100 100 100 100 100 100 100 100 100 100 99 100 100 100 100 100 99 86 86 84 65 52 52 49 50 49 47 43 31 20 18
18 14 11 11 10 7 5 4 4 4 4 4 4 5 5 6 6 6 7 23 51 71 83 92 100 100 100 100 100 100 100 100 100 96 100 99 100 100 95 92 91 87 71 59 50 53 54 51 47 51 35 22 20 11
9 9 9 7 5 4 4 4 3 4 4 3 4 4 4 5 5 6 7 20 52 68 80 88 100 100 100 100 100 100 100 100 100 100 100 100 100 99 99 95 87 75 62 52 56 59 51 50 51 40 30 19 14 6
6 5 4 4 4 4 4 4 3 3 3 3 4 4 4 4 5 5 7 21 52 70 87 96 100 100 100 99 100 100 100 100 92 98 100 99 100 100 100 85 76 63 56 59 63 55 51 50 46 34 21 15 7 4
4 4 4 4 4 4 3 3 3 3 3 4 4 4 4 4 5 5 10 30 65 83 80 87 97 100 100 100 100 100 93 90 99 100 100 100 100 100 89 81 68 58 62 60 60 55 50 51 37 24 18 8 5 4

GFSWCAN_250_rhum_081.txt.gz
RH
79 39 42 59 47 27 55 85 97 100 65 45 40 39 33 34 37 38 41 42 43 43 43 43 40 42 45 45 45 47 47 49 49 49 51 54 55 55 55 59 64 69 68 72 71 69 76 85 87 87 74 81 71 78
98 48 38 64 64 41 30 87 82 100 97 61 50 47 42 38 39 45 47 48 48 46 46 48 46 46 48 48 49 49 47 49 52 52 52 54 56 56 61 64 66 69 74 76 77 77 83 81 83 85 88 87 80 68
100 63 49 44 71 57 30 40 93 100 100 92 62 56 52 47 45 47 51 52 49 48 50 50 51 51 51 51 52 54 54 54 57 58 60 60 61 62 63 60 64 67 69 76 80 79 85 80 90 94 87 84 67 68
96 100 78 49 82 76 49 37 79 100 100 100 95 69 64 62 54 56 57 56 54 56 55 56 54 55 52 52 54 58 58 60 67 70 69 68 70 73 78 75 68 68 70 74 75 76 70 79 95 100 90 81 65 57
50 95 68 46 64 71 82 42 31 75 98 95 100 100 81 70 64 60 58 58 61 64 63 58 64 68 67 68 62 60 65 68 67 66 68 68 69 75 82 87 90 84 78 75 72 71 68 66 92 93 93 83 73 63
58 84 73 46 58 90 88 82 47 33 78 100 87 100 100 92 83 76 67 70 71 73 76 74 71 73 69 66 65 63 67 65 65 64 68 74 81 80 80 90 96 92 89 81 72 69 70 65 70 91 92 92 72 67
70 70 69 46 54 74 67 94 88 65 36 76 100 91 100 100 100 100 98 88 87 93 95 95 89 86 78 79 82 78 72 73 72 72 72 77 83 81 91 89 87 87 92 91 92 85 78 74 76 77 95 87 78 68
88 69 60 58 53 54 76 78 99 99 57 35 70 98 83 100 100 100 100 100 98 92 99 100 97 92 82 78 77 77 76 74 72 78 78 77 82 83 92 92 84 86 90 88 91 94 85 78 70 62 77 83 79 74
92 87 95 49 74 50 66 86 91 100 100 60 33 60 98 82 99 100 100 100 100 100 100 100 100 90 95 90 87 82 72 70 72 76 73 79 87 94 98 100 99 93 87 85 90 87 83 83 75 65 86 86 77 75
100 72 68 38 58 62 55 69 94 88 100 100 60 34 67 89 79 77 100 100 100 100 100 100 100 100 96 94 90 84 76 71 69 72 74 79 87 94 93 100 100 99 87 85 94 86 79 83 87 76 82 87 74 72
85 100 90 66 56 66 66 57 73 86 84 100 93 34 31 65 94 83 72 92 100 100 100 100 100 100 100 100 100 85 77 68 67 68 74 78 85 82 88 92 100 100 99 88 99 85 78 79 91 82 86 82 70 70
67 82 100 91 66 52 62 52 54 73 80 89 100 93 74 45 40 82 99 86 98 89 99 97 100 100 100 100 100 100 96 90 76 69 76 83 97 84 86 91 100 100 100 100 99 87 80 75 92 90 87 83 70 66
80 96 98 100 86 63 55 73 55 69 78 100 100 100 89 100 74 47 97 100 95 85 86 84 85 89 100 100 89 92 100 90 84 96 77 95 100 99 97 97 100 100 100 100 99 92 83 76 96 88 84 78 68 62
91 73 100 98 93 78 39 73 70 59 73 88 88 100 100 100 100 98 52 81 100 100 85 81 81 82 86 92 80 75 72 83 84 100 78 100 100 100 95 97 100 100 100 100 100 97 86 77 90 84 83 74 65 58
100 98 100 100 94 67 57 63 75 69 86 89 74 100 96 100 100 100 100 56 50 88 95 98 91 91 82 87 94 83 79 96 100 79 75 98 100 100 92 100 100 100 100 100 100 97 86 76 74 73 76 67 62 54
100 100 100 96 80 78 72 64 85 60 82 100 75 75 82 99 100 100 100 99 50 26 54 98 97 100 100 95 93 99 93 100 85 84 98 100 100 100 97 100 100 100 100 100 100 100 87 77 66 69 68 62 62 54
100 100 100 94 85 83 64 59 69 57 84 100 94 76 78 79 94 98 100 100 99 45 25 30 79 92 83 99 100 100 100 95 91 100 100 100 100 100 99 100 98 100 100 100 100 100 94 74 69 73 67 62 59 52
100 100 100 100 86 87 82 64 55 64 100 100 87 89 70 83 82 93 100 100 94 72 36 31 26 63 89 100 100 100 100 97 86 92 100 98 88 100 100 100 100 100 100 100 100 100 100 92 72 70 69 64 56 50
100 100 100 94 99 69 70 72 46 59 100 100 100 87 97 89 82 100 100 100 92 75 48 22 30 54 98 99 100 100 100 100 96 88 94 100 100 99 100 99 100 100 100 100 100 100 98 94 76 73 69 64 56 50
100 100 100 100 100 77 64 72 87 63 98 100 100 100 86 92 84 99 100 100 70 70 64 45 27 75 92 90 94 97 95 98 94 99 100 100 100 98 100 99 93 100 100 100 100 100 98 95 86 75 66 63 55 47
100 100 100 100 100 86 60 63 78 69 91 100 100 87 95 86 90 97 99 100 93 76 78 60 24 25 87 94 97 97 90 94 100 99 100 100 100 100 100 99 99 100 100 100 100 100 93 93 86 72 66 62 53 47
100 100 100 100 100 78 62 55 66 80 87 100 100 100 69 77 93 99 91 100 100 100 94 68 48 14 18 73 78 94 100 100 100 100 100 95 96 98 100 100 100 94 100 100 100 95 88 93 89 81 67 59 52 47
73 97 100 100 99 64 41 71 61 91 99 100 99 79 63 69 87 99 100 100 97 100 95 55 46 38 11 18 52 75 96 100 100 100 100 97 90 96 100 100 97 100 100 96 100 86 87 93 89 87 74 62 52 44
37 90 100 85 53 40 54 57 69 79 95 100 78 56 67 78 81 71 77 86 100 87 81 64 29 42 25 8 21 52 92 99 100 100 100 100 99 100 100 100 100 100 100 100 98 85 92 95 89 89 73 61 52 43
37 47 51 40 34 41 47 60 81 70 71 77 60 53 63 59 60 45 47 84 100 91 50 39 23 30 32 13 8 30 74 99 100 100 100 100 100 100 99 100 100 100 100 100 94 91 88 89 92 83 71 59 49 41
22 25 29 24 31 40 46 64 76 71 55 43 51 59 63 56 43 30 67 98 64 59 34 18 19 22 18 14 8 16 69 100 100 100 100 100 100 100 100 100 100 100 100 99 93 100 89 93 92 87 71 55 45 38
14 21 34 45 42 43 44 47 37 35 33 43 44 46 49 36 28 61 55 34 27 33 16 15 16 16 13 11 8 11 58 94 100 100 100 100 100 100 100 100 100 100 100 100 95 94 94 96 90 91 65 50 41 38
28 30 33 27 22 25 25 22 28 39 42 41 33 29 28 28 44 32 18 16 16 18 12 11 11 11 9 9 8 10 49 94 100 100 100 100 100 100 100 100 100 100 100 92 88 89 91 93 93 80 56 44 36 39
24 21 18 17 20 20 23 36 39 30 28 29 26 21 24 23 19 14 11 9 10 8 8 8 8 8 8 8 8 12 56 100 100 100 100 100 100 100 100 100 100 99 96 84 85 87 89 90 89 67 50 37 41 36
17 16 18 21 27 29 25 21 24 31 30 23 20 16 14 12 9 7 6 6 6 6 6 6 7 7 8 8 9 14 60 100 100 100 100 100 100 100 97 97 100 98 92 84 96 88 86 85 75 57 44 41 38 35
14 18 21 24 22 17 22 29 28 24 18 14 10 8 8 7 5 5 5 6 5 5 6 5 6 8 9 10 10 19 62 93 100 100 100 100 97 96 100 100 100 100 87 96 90 80 83 80 62 50 41 40 36 33
16 17 17 20 23 21 18 16 14 12 10 8 7 6 5 5 5 5 5 5 5 5 5 5 7 9 9 10 12 32 60 89 100 100 100 100 94 95 98 100 100 94 87 96 85 83 76 67 54 45 44 37 36 28
21 20 19 17 16 15 13 10 8 7 6 6 5 4 5 5 5 4 4 4 4 4 5 6 8 10 10 12 27 61 77 97 100 100 99 95 99 98 100 98 81 86 97 85 78 76 69 56 49 45 40 39 28 24

GFSWCAN_250_rhum_084.txt.gz
RH
86 100 83 76 57 61 61 32 58 100 89 70 56 51 42 43 44 45 46 44 43 43 44 44 43 42 43 44 44 45 47 50 50 51 53 54 56 59 64 64 64 66 65 66 64 62 60 60 67 70 63 64 63 59
60 100 77 91 58 65 64 48 34 72 100 88 68 59 57 48 48 46 47 52 52 49 48 48 48 48 47 48 51 53 52 53 55 58 60 60 60 60 59 62 65 68 70 69 65 64 62 65 67 73 85 86 82 78
70 71 100 91 63 55 74 68 42 36 64 100 87 65 68 68 53 55 52 56 55 54 54 55 53 55 55 54 56 58 64 68 69 69 74 79 84 84 88 88 82 76 74 71 71 70 71 69 68 82 99 91 93 92
65 51 100 100 80 42 61 77 60 46 37 60 100 99 77 67 77 63 65 61 63 66 63 66 67 62 65 68 66 61 63 67 69 74 77 77 82 85 86 84 87 87 86 85 84 86 84 82 80 73 68 76 80 84
63 66 63 95 100 65 54 66 73 95 74 54 46 84 100 94 75 73 70 68 73 75 74 74 72 72 69 69 68 69 69 73 75 74 77 79 83 83 82 85 88 92 93 90 89 90 90 89 83 77 72 72 80 84
97 66 67 100 98 76 51 62 66 89 98 95 83 56 59 98 99 79 70 79 95 93 92 89 93 92 82 78 83 85 81 75 77 78 80 85 83 91 92 90 86 89 96 93 84 95 99 89 84 78 74 73 75 73
98 71 61 100 74 84 66 52 57 65 92 82 94 64 56 68 97 94 88 73 82 91 100 100 97 90 87 83 83 85 86 88 82 78 73 78 87 91 92 96 96 92 85 91 100 82 81 78 77 79 74 71 68 74
100 92 71 100 96 84 75 87 51 60 73 84 100 92 66 51 78 87 97 98 99 88 92 98 100 98 91 92 90 92 95 98 96 84 84 88 85 85 87 85 93 100 100 99 93 97 94 86 72 73 82 76 70 67
100 65 69 100 98 88 70 87 52 51 62 64 97 100 100 73 48 75 91 90 93 89 100 100 100 100 92 90 90 91 98 96 82 81 80 82 89 83 85 96 96 99 99 100 100 90 100 96 81 73 77 77 66 67
100 82 100 76 100 92 73 88 82 85 63 64 64 86 100 100 55 38 56 100 87 96 100 90 100 92 84 89 91 90 85 89 98 86 86 96 77 100 86 88 100 100 98 100 100 100 100 100 96 85 80 81 66 64
88 92 92 73 88 84 76 57 100 75 56 50 67 68 84 100 100 70 30 50 69 95 93 81 76 78 92 94 92 96 98 95 97 90 76 100 65 100 91 94 91 98 93 98 100 100 100 100 100 98 87 86 75 65
58 96 100 71 59 96 100 98 100 92 99 60 58 61 71 93 100 97 82 95 98 95 90 85 90 92 79 67 69 66 60 68 92 100 100 100 57 74 78 88 82 77 92 100 100 100 100 100 98 100 100 89 81 80
75 69 99 75 59 99 91 92 97 100 100 81 54 57 55 73 95 100 100 100 100 100 100 100 100 96 87 87 88 78 68 66 74 78 100 100 65 78 80 90 84 81 83 100 100 100 100 100 100 100 100 100 83 75
100 86 100 94 73 76 100 91 100 100 100 100 97 56 53 58 70 89 100 100 100 100 99 100 86 73 73 84 73 82 93 93 92 93 100 100 68 69 78 89 76 80 94 100 99 100 100 100 100 100 100 98 86 77
100 100 92 85 100 92 91 100 100 100 100 100 100 87 71 52 58 74 89 90 100 100 100 100 100 88 64 46 60 89 97 100 100 100 93 87 61 67 84 90 86 87 78 87 98 98 97 100 100 100 100 97 92 86
100 98 100 87 81 100 90 100 100 96 100 98 100 100 87 60 52 60 64 74 100 97 98 100 100 79 52 53 28 53 97 100 99 99 99 96 81 87 91 83 91 90 88 86 93 98 95 100 100 98 100 100 92 90
100 100 100 100 100 100 100 100 100 100 100 100 100 100 100 64 44 51 66 80 91 95 94 97 99 99 73 55 40 17 24 71 100 100 100 100 100 99 84 94 100 100 100 100 100 100 98 100 100 97 100 100 99 97
100 100 100 100 100 100 100 100 100 100 98 100 100 100 100 98 62 46 57 70 83 87 91 100 90 84 68 58 50 44 18 16 54 76 99 96 100 100 98 92 100 100 100 100 100 100 99 98 99 98 100 100 100 91
100 100 100 100 100 100 100 100 99 97 100 100 100 100 100 100 92 59 55 64 78 76 89 100 100 98 72 52 64 62 46 31 22 45 78 96 98 100 100 100 100 100 100 98 100 100 98 100 97 100 100 100 98 92
100 100 100 100 100 100 100 93 93 90 100 100 100 100 100 100 100 93 66 65 75 72 100 100 100 91 100 79 59 59 61 58 41 30 38 76 98 100 100 100 100 100 98 100 99 100 99 100 98 100 100 100 98 88
100 100 100 100 100 100 100 96 97 85 82 100 100 100 100 100 100 100 96 70 67 80 100 100 83 86 98 100 95 90 65 57 56 50 26 34 71 98 100 100 100 100 100 100 100 99 100 100 100 100 100 100 94 90
100 100 100 100 100 90 86 86 89 69 71 93 100 100 100 100 100 100 100 90 77 84 90 97 81 75 90 100 97 90 84 62 52 52 58 30 30 50 97 100 100 100 100 100 100 99 96 100 100 100 100 100 97 81
100 100 100 97 92 56 43 59 40 54 69 92 100 100 100 100 100 100 100 100 88 94 90 86 67 68 77 85 95 82 82 74 59 42 44 55 36 23 61 100 100 100 100 100 100 100 100 100 100 100 100 100 98 80
100 100 97 70 68 67 41 34 29 58 60 80 100 100 100 100 100 100 100 100 99 88 94 89 73 74 75 77 88 91 82 68 59 44 33 40 48 30 33 87 100 100 100 100 100 100 100 100 100 95 98 100 99 82
82 75 56 45 50 63 56 31 42 70 74 76 100 100 86 100 100 100 100 100 88 80 79 70 62 69 79 82 75 64 72 73 64 43 33 35 38 41 28 37 77 100 100 100 100 100 100 100 100 100 100 98 99 81
75 56 51 61 66 66 30 15 19 48 54 62 75 89 100 87 63 48 78 84 74 78 62 55 63 78 88 78 79 67 64 60 42 34 31 28 27 31 26 28 68 100 100 100 100 100 100 100 100 98 99 94 97 82
58 68 53 37 43 41 20 13 17 32 27 32 44 64 74 77 58 64 62 54 64 59 44 54 65 66 56 51 61 57 44 36 31 25 22 19 19 25 25 25 60 100 100 100 100 100 100 100 100 100 100 89 86 75
31 40 45 43 26 20 20 13 13 20 35 41 47 43 23 23 38 39 39 38 38 34 43 54 53 42 39 41 42 34 24 21 23 16 13 13 16 21 22 29 70 100 100 100 100 100 100 100 100 97 87 94 85 67
28 26 19 17 16 17 18 15 16 21 29 27 21 16 19 24 21 18 18 19 25 33 34 30 28 28 31 34 26 20 17 16 13 10 10 11 14 16 18 34 69 100 100 100 100 100 100 100 100 100 98 83 70 58
19 14 16 22 23 17 23 23 18 16 15 14 14 14 14 14 14 15 19 26 28 25 25 28 26 23 22 17 14 11 9 8 8 8 9 10 11 12 17 47 83 100 100 100 100 100 100 100 100 98 83 76 62 59
10 17 29 34 28 21 16 13 13 13 12 16 16 12 12 13 15 23 25 22 20 23 25 23 18 14 12 10 7 7 7 7 7 7 8 9 11 13 31 74 100 100 100 100 100 100 100 99 96 86 77 66 60 55
16 16 16 14 14 12 10 10 12 14 16 15 12 12 15 16 18 18 16 17 18 14 12 12 12 9 6 6 6 6 6 6 7 8 9 11 13 27 64 89 100 100 100 100 100 100 96 90 86 82 70 60 57 53
7 8 9 11 13 14 15 15 14 12 12 12 14 14 13 12 16 17 14 12 11 10 10 8 5 5 6 6 6 6 6 7 8 9 10 13 29 60 84 99 100 100 100 100 100 100 84 81 85 72 57 59 57 58

GFSWCAN_250_rhum_087.txt.gz
RH
100 92 100 85 70 60 64 79 77 64 39 34 47 48 45 51 54 61 58 55 52 50 48 50 51 54 55 56 58 62 62 62 62 63 64 64 64 66 67 68 70 69 67 65 64 62 64 67 68 67 64 61 63 65
55 100 100 86 77 80 36 97 68 89 48 38 39 44 52 48 50 55 59 66 65 61 57 57 56 58 65 67 69 67 65 68 70 73 77 79 81 83 84 80 76 74 74 77 78 76 71 69 70 69 68 68 66 70
47 68 65 100 77 86 57 89 92 76 82 53 41 37 43 48 63 54 53 54 66 71 69 68 66 65 63 65 71 74 73 74 74 74 75 78 80 79 78 82 84 82 80 82 82 82 77 79 78 75 73 73 75 77
65 67 100 100 94 99 64 51 81 81 70 84 85 43 40 41 46 56 68 61 61 66 75 78 74 79 80 80 82 84 87 82 79 78 80 82 84 82 82 76 76 84 78 73 73 75 73 74 75 73 70 71 74 69
96 74 77 88 100 76 59 39 46 65 57 80 91 83 48 46 48 45 57 63 80 80 72 64 81 85 84 83 79 82 91 93 89 84 86 83 87 86 85 82 78 89 96 97 88 79 76 86 85 71 74 73 69 70
100 100 98 98 100 90 78 44 57 75 48 56 94 91 92 73 41 54 54 57 68 90 100 100 86 72 71 70 74 78 81 87 89 88 84 92 98 90 91 93 100 99 99 98 93 100 99 95 84 83 90 84 81 74
100 100 100 100 94 92 54 55 34 98 63 53 59 86 88 90 64 38 57 65 73 66 75 89 100 100 96 79 71 67 74 82 78 79 79 83 87 94 94 98 94 96 95 99 99 100 98 100 94 92 97 90 97 81
96 100 100 100 86 74 88 76 52 67 69 56 52 59 89 100 91 60 43 37 55 79 68 69 83 87 92 97 98 87 71 75 83 83 81 84 75 76 74 80 78 79 85 95 93 98 92 96 100 100 98 92 97 93
94 94 96 100 88 88 69 100 58 53 60 54 48 48 57 82 88 86 72 45 24 34 68 74 68 72 67 68 72 84 94 83 91 88 94 100 70 76 93 78 80 79 76 67 70 79 89 92 99 98 88 93 91 93
95 82 83 100 100 71 64 68 83 49 50 87 55 52 39 70 64 98 84 80 64 25 27 52 76 85 86 81 78 76 78 75 81 100 94 100 100 58 100 77 78 79 76 86 92 83 74 85 97 100 100 100 100 100
69 74 79 72 86 68 54 65 96 86 54 62 59 78 66 47 64 60 79 84 84 96 72 52 89 90 88 94 98 99 92 90 100 100 99 98 100 96 65 68 61 63 64 61 72 86 88 84 92 95 90 93 100 100
92 70 69 73 63 56 60 58 72 100 81 72 62 68 59 60 49 67 62 64 86 82 82 98 100 97 70 70 94 94 99 100 98 100 100 100 100 100 86 77 75 77 81 81 73 73 75 88 82 79 76 81 90 100
100 99 76 73 96 53 47 55 96 100 100 98 74 82 88 70 58 73 80 65 94 90 83 82 99 100 100 98 64 45 46 58 51 53 69 99 100 100 100 81 88 100 100 100 94 82 81 79 80 94 96 96 91 96
100 100 99 87 81 74 56 62 90 100 87 100 98 100 98 96 78 65 93 89 100 92 80 70 80 95 100 100 95 66 53 48 48 52 56 54 48 94 100 98 98 99 100 100 100 100 97 95 95 91 90 96 93 96
94 100 100 100 98 71 65 66 98 99 99 91 100 88 100 100 97 69 84 96 100 100 86 93 69 72 84 92 94 88 81 57 42 36 36 38 40 42 46 89 98 100 100 100 100 99 100 100 100 99 100 100 100 100
100 100 100 94 100 84 98 92 98 100 97 99 98 99 100 100 94 86 89 100 100 100 95 94 80 73 91 79 82 88 76 64 50 41 36 35 34 31 40 60 88 98 100 100 100 100 100 100 100 100 92 100 97 100
100 100 100 100 100 100 100 95 100 100 94 98 100 100 100 100 100 97 100 100 100 100 100 100 100 85 87 72 63 84 96 92 66 46 40 38 37 35 32 36 58 83 98 99 100 100 100 100 100 100 100 98 100 100
69 95 100 100 100 100 100 100 100 100 98 100 100 100 100 100 100 100 96 100 100 100 100 100 99 100 100 72 62 77 92 100 90 90 68 45 47 46 47 47 44 50 65 80 95 100 100 100 100 100 100 100 98 100
100 100 100 100 100 100 100 100 100 100 100 100 100 100 100 100 100 100 81 91 100 100 100 100 100 100 100 81 64 70 79 96 99 98 97 73 69 60 55 59 62 58 47 44 76 99 100 100 100 100 100 100 100 100
67 68 100 100 100 100 100 100 100 100 100 100 100 100 100 100 100 97 85 86 100 100 100 100 100 99 84 79 76 71 67 69 96 100 100 97 82 78 71 60 56 61 61 55 48 58 95 100 100 100 100 100 100 100
34 33 60 99 100 100 100 100 98 99 100 100 100 100 100 100 95 98 98 97 100 100 100 100 100 100 88 85 85 79 63 69 91 100 100 100 93 80 78 63 58 54 58 68 56 55 42 74 97 100 100 100 100 100
18 22 33 55 63 58 54 78 100 100 100 100 100 100 100 100 100 100 100 100 100 100 100 100 100 100 90 77 74 73 65 66 82 100 100 100 96 95 93 75 68 62 65 56 53 43 46 48 65 98 100 100 100 100
23 27 28 30 39 44 72 100 100 100 100 84 93 100 100 100 100 98 98 100 100 100 100 100 100 100 100 90 73 81 70 62 79 93 100 100 99 97 94 72 69 63 68 40 41 37 36 40 47 82 100 100 100 100
17 18 25 26 33 46 82 100 100 100 100 96 84 89 88 83 96 91 96 100 100 98 100 96 99 100 100 100 97 89 72 65 86 97 96 99 99 92 90 68 50 47 60 38 33 32 27 34 43 68 99 100 100 100
14 18 18 18 27 66 81 72 71 74 89 100 94 84 91 92 94 84 79 97 100 91 85 76 91 85 100 99 97 78 76 79 92 97 98 97 91 79 79 54 34 40 44 36 28 22 22 30 39 66 100 100 100 100
11 12 16 25 38 53 48 51 66 74 80 67 79 86 90 81 60 76 93 100 82 74 79 89 100 100 84 69 78 81 77 74 76 71 80 83 77 64 48 33 30 35 36 28 21 17 18 27 31 57 100 100 100 100
10 10 14 21 29 38 34 36 48 70 81 86 94 100 93 72 48 50 75 65 59 71 93 96 98 100 98 86 90 90 89 75 69 69 71 68 61 50 34 29 31 30 24 18 14 13 16 23 26 62 94 100 100 99
9 10 11 20 25 37 41 42 52 68 93 94 82 92 95 52 46 48 39 44 49 46 49 61 78 85 83 72 64 57 52 55 46 47 51 44 36 28 24 27 26 20 14 11 11 12 17 20 34 65 81 94 100 92
8 10 12 18 23 29 41 59 68 72 75 68 74 53 27 32 30 32 31 35 42 40 43 55 53 45 44 42 39 45 37 29 33 33 30 26 21 22 23 21 17 12 8 9 10 13 16 18 42 68 78 85 86 91
9 12 14 24 31 34 39 48 54 48 51 34 13 10 16 24 26 28 28 29 32 26 27 27 26 25 30 35 27 22 21 25 27 22 20 21 22 18 16 12 9 7 8 9 11 14 15 34 56 71 77 81 87 86
7 8 12 16 17 17 19 18 14 18 17 12 11 12 15 13 12 16 21 25 26 23 20 21 25 26 24 19 17 22 23 20 16 17 18 15 14 12 9 7 7 8 8 10 13 14 25 52 69 71 72 76 77 68
8 9 10 11 14 15 13 13 14 12 10 10 11 11 11 12 19 29 32 23 22 17 16 18 20 20 16 16 18 17 16 16 16 14 11 10 9 7 6 6 7 8 9 12 13 19 49 62 59 65 68 67 62 59
8 7 7 9 9 9 10 10 9 8 8 10 11 13 15 17 23 34 35 20 14 15 16 16 16 14 16 15 14 15 15 13 11 9 7 7 6 6 6 7 8 8 10 12 23 50 54 54 60 63 61 56 56 60

GFSWCAN_250_rhum_090.txt.gz
RH
90 55 100 83 76 83 71 41 39 34 39 65 77 83 60 41 45 44 48 51 55 62 63 61 59 63 67 67 66 64 63 63 64 64 65 64 62 61 63 63 66 66 68 69 70 71 72 72 70 69 69 69 68 67
86 100 100 100 99 99 92 61 32 32 41 48 71 85 100 67 35 42 51 49 51 53 53 56 67 71 72 72 74 70 68 68 65 63 62 64 65 71 68 65 66 65 65 65 64 66 68 72 70 70 68 64 62 61
99 99 100 100 100 98 100 91 64 47 27 39 47 69 80 100 71 39 40 58 60 54 64 74 69 67 73 74 76 76 71 69 70 75 73 73 73 70 69 69 67 66 65 64 64 62 61 64 64 60 59 57 55 54
100 81 69 99 95 88 100 98 72 73 40 37 38 46 66 83 93 75 46 34 54 71 72 73 90 98 85 79 75 74 74 72 71 76 80 78 76 80 84 79 76 79 85 88 83 74 72 77 72 71 67 66 65 70
100 100 97 77 90 82 97 100 88 69 55 31 50 38 45 57 69 95 93 57 32 38 73 83 76 80 84 84 79 76 75 78 77 79 78 80 88 78 76 74 73 76 83 80 76 76 74 78 76 77 75 76 84 85
100 100 100 100 100 100 73 100 100 81 74 51 42 46 41 41 46 64 67 94 59 33 32 61 86 81 76 81 90 88 81 75 78 83 92 84 78 82 87 89 86 84 79 77 82 83 88 88 78 79 81 84 88 88
100 100 100 100 100 100 98 100 100 100 91 77 46 33 55 51 52 57 68 66 100 84 77 26 32 59 79 83 82 78 74 77 86 90 87 81 71 69 75 86 81 76 77 81 66 65 74 76 80 84 86 87 93 98
100 100 100 100 100 100 90 90 100 100 98 88 61 38 39 64 54 60 63 52 69 90 91 72 30 22 31 53 64 70 85 100 100 100 99 100 100 80 94 96 61 63 67 67 69 73 77 79 86 90 97 98 98 97
100 100 100 100 100 99 100 75 81 87 94 86 88 61 39 42 67 53 61 58 58 60 74 96 94 63 39 32 30 48 74 76 98 100 100 100 100 100 100 100 100 96 89 82 73 64 68 78 87 95 99 98 98 99
100 100 100 100 100 100 96 100 86 72 72 81 91 81 60 42 48 75 65 69 56 54 53 48 86 98 86 69 60 46 45 39 44 56 47 56 51 49 56 53 78 94 100 100 99 94 100 99 100 100 100 99 100 100
100 100 100 100 100 100 95 92 100 76 64 68 77 82 69 61 52 53 84 77 76 68 61 69 52 100 90 97 84 84 86 82 65 54 49 55 63 69 60 60 54 53 57 64 84 99 100 100 100 100 100 100 100 100
100 100 100 100 100 100 100 90 84 93 68 55 65 70 71 77 76 64 81 100 93 89 83 79 69 65 93 83 85 89 95 99 98 91 85 72 62 58 48 45 46 49 47 44 60 87 99 99 98 100 100 100 100 100
100 100 100 100 100 100 100 100 88 76 71 79 89 55 64 79 76 91 67 100 90 100 100 100 96 80 67 89 100 89 91 84 96 99 99 94 82 71 55 40 33 33 32 30 33 52 88 100 100 100 100 100 100 99
76 100 100 100 100 95 92 100 94 82 76 77 82 100 74 89 96 80 77 96 100 96 86 96 96 82 96 72 98 89 78 74 77 88 86 85 96 96 81 64 43 35 31 34 30 27 42 64 90 98 100 100 100 100
100 100 94 95 96 100 91 100 97 90 99 67 76 100 100 100 100 88 93 84 97 100 97 89 100 97 99 89 100 88 92 71 80 74 78 80 82 88 94 99 81 61 50 40 46 55 49 42 49 64 87 96 97 100
100 82 79 96 91 82 98 87 96 88 98 84 57 81 100 100 100 92 83 95 98 100 92 76 100 100 98 100 100 83 100 100 87 77 73 75 79 75 73 94 85 85 71 73 62 58 65 66 64 62 55 52 54 66
100 66 53 62 77 94 90 80 72 100 92 96 95 100 100 100 100 99 69 98 98 100 100 92 94 100 100 99 92 94 98 100 100 84 79 90 91 76 70 84 100 98 95 93 84 81 77 72 80 78 65 59 57 50
46 54 58 63 80 74 59 73 83 74 73 72 100 100 100 100 100 100 99 97 100 100 100 98 86 100 100 100 98 86 83 100 100 100 96 89 84 85 75 71 92 100 100 99 98 89 85 80 62 63 69 66 54 45
26 40 72 73 100 100 63 62 85 97 97 98 100 100 100 100 100 100 100 100 100 100 100 81 93 100 100 100 100 90 93 100 100 100 98 82 76 84 75 89 93 91 100 98 94 94 85 78 67 55 67 60 51 45
22 32 43 59 99 98 94 84 76 64 90 100 100 100 100 100 100 90 93 100 100 100 99 100 100 100 95 86 94 96 97 100 100 96 95 87 79 83 92 97 93 100 95 99 94 94 87 80 62 57 60 57 49 39
15 27 36 41 60 79 81 96 100 100 88 90 97 96 88 80 88 100 100 100 100 100 100 100 100 98 85 91 83 100 92 100 100 100 100 99 98 94 88 93 94 100 98 99 97 96 88 82 63 56 55 66 45 31
15 20 23 23 24 32 38 60 58 60 62 66 88 65 27 38 87 100 100 100 100 100 100 100 100 100 86 82 72 93 100 100 100 100 94 90 92 100 100 97 93 88 88 97 98 87 70 69 54 41 53 58 37 25
11 12 13 16 20 21 21 31 38 43 50 61 56 29 43 70 98 100 100 100 100 100 100 100 87 85 82 79 69 84 99 100 97 100 100 99 98 97 87 85 81 82 84 81 86 81 69 55 42 41 49 41 28 18
10 11 13 12 12 13 15 20 21 26 37 43 38 35 73 92 96 100 88 91 100 100 100 100 100 100 76 82 76 92 92 94 100 100 100 100 100 98 89 74 73 79 72 75 78 58 56 41 38 39 42 29 19 13
8 9 9 9 9 11 17 18 15 19 25 24 26 41 50 51 63 66 63 84 100 100 100 98 97 75 74 87 86 95 92 90 100 100 99 95 99 94 79 72 62 54 57 61 53 42 32 36 36 36 30 21 13 12
6 6 6 7 9 11 12 12 14 16 16 21 39 50 40 31 35 43 73 90 100 97 74 67 64 79 88 86 85 86 91 93 98 100 93 98 97 92 74 74 77 55 53 49 28 27 28 32 32 29 20 13 11 11
4 4 5 7 8 9 10 10 12 12 13 15 25 32 24 20 27 45 93 79 53 48 62 79 89 91 83 73 80 85 89 95 96 95 98 100 99 91 87 80 66 53 45 28 21 23 28 27 26 19 12 10 10 11
4 5 6 7 7 7 8 8 9 10 12 15 17 18 19 20 24 38 22 26 48 66 71 66 61 61 66 78 90 88 88 94 98 92 89 92 62 58 59 54 47 41 24 18 20 23 23 23 18 12 10 10 10 11
4 5 6 6 6 7 7 8 9 10 14 17 18 26 25 25 20 14 14 18 30 40 40 39 45 50 62 72 77 84 84 80 86 78 75 61 45 49 43 38 31 18 16 19 19 18 20 15 11 10 10 10 10 11
5 5 6 6 6 7 8 8 9 10 11 11 11 13 15 18 14 11 13 15 19 22 30 36 35 36 42 54 60 61 62 67 67 68 56 32 37 36 28 24 16 15 17 15 14 16 12 10 9 9 10 10 10 11
5 5 5 6 6 7 8 9 9 10 10 10 10 10 12 10 8 9 11 13 15 18 23 30 30 32 40 53 57 58 59 53 50 40 30 30 26 21 17 14 14 14 13 12 11 9 9 8 9 10 9 10 11 18
5 5 6 6 7 8 8 8 8 8 8 8 8 8 8 8 8 10 12 16 22 29 32 32 34 40 41 45 59 60 55 45 41 31 25 18 14 13 13 13 13 11 9 8 8 8 8 9 9 10 10 11 17 24
6 6 6 6 6 6 7 6 6 6 6 6 7 7 7 8 11 15 24 20 24 30 38 47 52 50 52 53 52 45 35 27 20 17 14 12 12 12 12 11 8 7 8 8 7 7 8 9 10 10 10 16 26 31

GFSWCAN_250_rhum_093.txt.gz
RH
100 100 100 100 100 100 72 74 72 59 33 76 43 38 41 49 60 58 42 45 55 54 59 76 75 63 62 66 64 60 56 55 54 56 56 58 57 56 54 55 55 56 57 57 59 62 64 64 64 65 64 63 62 60
100 100 100 100 100 97 100 98 71 84 51 48 64 37 33 41 52 61 69 57 54 57 61 67 77 79 70 63 68 68 71 72 69 67 66 64 62 60 60 57 54 52 52 51 48 47 48 48 50 52 52 51 47 46
100 100 100 100 100 100 100 87 84 100 95 53 44 52 36 32 48 55 66 70 87 72 68 72 71 69 80 83 69 66 64 62 64 73 76 76 75 73 69 63 59 54 54 52 56 55 55 56 59 55 51 51 53 54
100 100 100 100 100 100 100 100 96 98 95 84 61 56 36 30 37 49 57 65 75 69 73 54 61 71 68 68 74 70 65 63 60 59 64 66 66 66 67 70 74 75 76 78 74 71 65 62 71 66 70 75 76 80
100 100 100 100 100 100 100 100 100 100 100 100 95 71 62 36 31 36 41 53 62 58 56 59 42 38 52 70 74 73 79 92 94 88 84 82 76 74 83 81 82 85 80 80 87 90 90 77 74 84 94 96 92 94
95 100 100 100 100 100 100 100 100 100 100 100 100 97 77 55 37 40 34 35 41 49 60 56 57 64 54 45 52 69 86 92 95 96 100 87 89 86 86 94 100 85 83 86 74 70 78 83 79 93 93 88 87 85
100 99 100 100 100 100 100 100 100 100 100 100 100 100 100 76 55 45 36 43 48 34 45 57 59 68 74 68 39 41 54 56 83 95 78 81 68 73 72 87 83 83 89 98 96 81 69 70 80 88 90 88 88 97
100 81 100 100 100 100 100 100 100 100 98 88 91 98 100 92 68 59 43 44 42 51 42 40 56 63 63 80 89 78 62 56 51 47 58 57 51 51 67 68 68 68 62 63 70 72 72 80 89 83 87 98 100 100
63 68 96 100 100 100 100 100 100 100 100 96 85 79 100 100 88 70 63 48 45 46 50 56 36 53 50 57 65 70 92 92 80 66 70 66 66 66 67 61 62 64 66 63 62 57 53 56 74 86 94 98 100 99
92 60 76 91 100 100 100 100 100 100 100 100 100 100 100 98 100 80 65 60 63 59 60 51 50 38 58 56 64 68 74 70 80 95 96 94 100 100 100 91 78 78 74 59 55 52 52 45 38 46 74 84 94 98
100 100 90 100 100 100 100 100 100 100 100 100 85 88 98 89 83 85 70 66 62 62 76 65 76 66 39 61 55 69 74 65 66 72 68 88 85 81 82 84 87 96 88 86 78 54 44 49 47 41 39 48 59 75
100 100 100 96 100 100 100 100 100 100 100 100 100 83 89 94 83 80 88 91 65 61 65 83 72 68 66 71 74 88 66 65 65 81 78 94 96 89 87 79 67 70 71 72 75 71 56 48 52 61 58 61 68 75
100 100 100 100 100 100 100 100 100 100 100 100 100 100 92 86 100 100 100 100 89 100 65 61 65 89 94 91 77 80 87 74 91 100 82 92 93 92 100 100 100 80 69 66 71 78 78 72 63 49 61 72 79 81
100 100 100 100 100 100 100 100 100 100 100 100 100 100 100 100 98 100 100 100 92 74 71 54 64 63 84 94 99 98 84 83 100 90 78 96 96 99 100 100 96 85 85 73 73 74 82 92 83 81 77 68 71 71
86 75 85 100 100 100 100 100 100 100 100 100 100 100 100 100 100 100 100 100 98 96 95 98 93 81 72 79 94 100 84 94 87 82 68 70 80 99 95 96 97 96 86 80 86 85 84 80 95 89 81 76 78 74
30 33 66 100 100 100 100 100 100 100 100 100 94 99 100 100 100 100 100 100 100 100 100 98 99 88 82 77 93 100 96 100 100 86 90 78 77 86 89 96 100 100 96 91 94 94 92 88 96 96 89 81 81 84
16 27 32 50 100 98 79 90 100 100 100 100 100 95 91 100 100 100 100 100 84 94 100 86 81 81 75 91 100 100 98 100 100 100 100 99 97 85 96 100 94 91 77 95 99 90 82 74 80 88 87 89 82 90
12 14 19 21 20 24 34 50 56 67 93 97 96 100 96 98 100 92 88 89 86 76 93 82 74 71 97 100 100 100 98 87 100 100 100 100 98 92 100 96 100 100 100 98 84 94 92 74 80 90 88 86 77 75
9 11 12 14 17 29 28 29 29 35 45 65 72 76 69 71 86 100 84 67 60 62 68 100 84 92 100 100 100 86 92 95 100 100 100 100 100 100 86 97 99 100 100 87 100 99 90 77 72 70 66 68 67 61
8 9 11 13 14 22 18 18 19 21 38 51 70 81 76 67 81 84 72 69 53 50 54 88 100 100 100 100 100 100 100 98 100 100 100 100 100 100 89 90 100 98 87 100 100 100 96 82 68 54 53 50 46 46
6 8 9 10 12 15 15 15 20 32 39 36 41 46 56 75 67 56 69 66 41 45 70 93 98 100 100 100 98 100 97 96 100 100 100 100 100 84 83 91 89 98 99 99 100 97 98 100 81 70 53 39 38 35
6 7 8 8 11 14 15 12 14 21 23 26 30 29 37 50 44 44 52 49 67 90 100 100 100 100 94 94 67 84 100 100 100 100 100 100 100 96 96 89 92 96 98 95 99 94 97 92 69 64 41 31 31 32
6 6 7 8 9 11 12 13 12 15 18 23 26 24 26 34 30 34 35 59 90 96 100 100 100 100 100 94 68 85 100 100 100 100 100 100 100 100 100 100 95 90 100 90 98 100 98 84 70 54 29 24 31 33
5 6 6 6 8 8 9 11 13 12 12 16 18 18 19 21 24 23 26 40 75 100 100 100 74 72 76 73 68 79 96 100 100 100 100 98 100 100 100 98 88 98 95 94 100 100 93 88 62 39 22 21 29 26
5 4 5 5 6 7 8 9 12 13 12 12 13 14 16 17 25 18 23 32 45 56 70 55 43 60 79 69 79 97 96 100 100 100 100 100 100 100 99 92 99 98 90 88 89 92 84 73 54 26 16 23 27 24
4 4 4 4 5 6 7 8 9 10 10 9 11 13 14 15 15 19 26 32 48 41 26 30 34 53 74 68 76 99 96 97 97 100 100 100 100 100 99 92 93 85 80 88 76 87 75 64 32 15 16 24 23 22
3 3 4 4 4 4 5 7 8 9 9 10 11 11 10 11 13 17 22 30 32 19 21 22 25 45 53 62 74 66 69 82 94 98 94 89 84 75 81 82 78 69 81 82 92 86 70 39 17 14 19 20 19 20
3 4 4 4 4 5 5 6 7 8 9 10 10 10 11 12 13 17 20 17 15 16 18 19 20 27 47 69 69 66 61 58 80 92 85 86 84 74 77 73 66 78 86 96 90 66 38 16 14 16 19 17 18 17
4 4 4 4 4 5 5 6 6 6 8 9 10 9 10 11 12 11 11 12 14 15 16 16 16 27 54 64 65 60 53 68 89 81 64 54 60 74 79 86 78 83 88 79 46 29 14 12 15 16 15 16 15 10
4 4 4 4 4 5 6 6 7 6 6 7 7 8 8 8 9 8 9 12 13 13 13 13 13 16 22 33 35 34 40 57 60 45 49 53 51 65 76 77 87 86 63 33 18 13 12 14 15 14 14 12 8 7
4 4 4 4 5 6 6 6 6 6 6 6 6 6 7 7 8 9 11 11 10 10 11 13 14 16 18 20 22 27 39 40 36 42 49 59 66 67 79 84 74 44 22 12 11 11 12 13 13 12 9 8 7 7
4 5 5 5 6 6 6 6 6 6 6 6 6 7 7 7 8 9 10 10 10 12 14 13 13 14 14 16 19 20 24 34 44 59 72 82 92 82 70 48 28 15 14 12 12 12 12 11 10 8 7 7 6 7
6 6 6 6 6 6 6 6 6 6 6 6 6 6 6 7 8 10 11 11 12 11 10 11 11 13 14 16 18 23 35 56 75 89 87 80 73 47 29 17 15 14 11 11 12 12 10 8 7 6 6 6 7 9

GFSWCAN_250_rhum_099.txt.gz
RH
100 100 100 94 86 84 100 100 100 100 100 100 97 97 100 73 87 92 76 64 45 31 32 29 31 30 28 27 33 39 56 76 71 68 68 73 78 87 94 93 90 91 92 94 86 84 83 84 86 85 81 74 68 67
100 100 100 100 100 89 87 92 100 100 100 100 97 100 89 99 63 91 97 84 65 44 39 32 33 31 31 32 29 30 37 52 63 75 77 74 85 88 91 84 71 80 75 84 86 71 80 79 75 72 68 69 64 58
69 99 100 100 100 100 99 94 72 88 100 98 99 100 100 100 90 85 97 96 88 64 45 37 34 36 36 35 37 34 31 30 32 38 41 41 45 52 54 53 54 64 68 72 77 81 77 76 80 73 70 68 64 61
70 73 81 97 100 100 100 86 100 96 100 89 95 99 100 100 90 95 100 100 98 79 56 44 35 38 42 38 39 40 44 42 51 47 38 40 41 41 45 48 50 66 74 79 67 66 64 62 69 64 70 66 66 63
76 82 76 81 90 100 100 100 100 100 99 96 98 86 100 100 100 100 100 100 100 100 80 64 52 44 41 41 38 37 38 42 49 49 47 50 48 54 58 61 66 65 67 64 67 68 68 66 64 61 58 57 55 58
91 71 96 86 92 96 80 88 98 100 100 100 99 91 79 100 100 100 100 100 100 100 97 83 77 63 49 44 41 46 46 49 43 51 53 58 64 64 55 49 51 47 48 58 64 65 65 68 64 63 65 59 54 51
100 74 99 100 97 88 100 98 100 100 100 100 100 100 90 76 82 99 100 100 100 100 100 90 89 88 66 52 47 41 45 58 53 56 60 56 58 67 66 67 68 70 83 84 72 82 66 64 68 69 72 65 57 57
100 100 87 100 81 93 100 83 92 99 100 100 100 100 100 96 75 82 84 90 100 100 100 100 94 94 89 72 61 44 33 51 65 67 74 90 62 69 72 59 70 81 75 87 95 82 93 80 85 62 62 53 55 50
100 100 100 100 100 85 99 100 81 100 93 100 100 100 99 99 100 78 80 94 100 100 100 100 100 100 100 86 83 72 47 44 60 66 67 94 97 65 100 86 98 83 80 85 88 94 99 95 100 87 87 60 62 57
100 95 81 80 73 74 98 91 98 100 100 100 100 100 100 100 100 84 73 66 98 100 100 100 100 100 100 100 80 88 83 64 66 76 67 100 95 72 91 92 95 100 90 86 90 87 100 99 98 94 87 77 72 72
86 82 66 67 99 100 100 100 89 64 89 100 100 100 100 100 100 100 77 73 72 100 100 100 100 100 100 100 96 78 92 87 92 91 77 90 56 64 68 64 79 91 84 96 84 92 100 100 96 89 96 93 87 88
90 100 100 89 97 100 100 100 100 100 86 100 100 100 100 100 100 99 90 97 82 83 100 97 96 97 100 100 97 100 94 84 100 100 97 74 66 66 71 65 72 70 96 100 100 100 100 100 100 100 89 90 88 82
55 76 96 100 100 100 100 100 99 100 100 97 91 68 100 100 100 100 100 100 100 100 100 100 70 88 97 98 100 89 100 100 100 100 100 97 85 97 98 96 89 80 89 99 100 100 100 100 88 100 85 91 99 83
54 82 86 99 89 86 78 72 74 86 100 100 100 100 71 82 100 100 100 100 100 100 100 100 92 58 82 96 100 100 100 100 100 100 100 100 96 99 96 100 98 97 80 97 100 100 100 100 100 100 100 100 100 100
26 22 24 36 36 41 64 66 96 100 89 57 67 99 100 100 96 100 100 100 100 100 100 100 100 100 47 68 100 100 95 97 100 100 100 100 100 91 90 86 89 100 97 97 100 100 100 100 100 100 100 100 100 100
12 14 16 18 19 30 45 61 68 59 36 32 44 60 82 63 100 100 100 100 100 100 100 100 100 100 100 65 61 100 100 100 100 96 99 100 100 100 100 100 99 100 98 96 97 100 100 100 100 100 100 100 100 100
10 12 11 9 10 13 17 15 14 16 21 17 28 43 24 44 55 51 76 89 98 100 100 100 100 100 100 100 96 60 86 87 92 80 86 98 100 100 100 100 100 100 95 91 100 100 100 100 100 100 100 100 100 100
6 7 7 7 7 8 9 10 12 13 14 15 17 24 18 19 24 27 42 50 55 71 78 72 78 85 100 100 100 100 85 62 61 90 85 75 94 100 100 100 100 100 100 100 100 100 100 100 100 100 100 100 100 100
6 6 6 6 6 6 6 7 8 8 8 9 11 12 13 15 20 25 29 35 45 49 45 44 48 76 99 100 100 100 99 69 56 57 80 71 67 100 100 100 100 100 100 100 100 100 100 100 100 100 98 100 99 100
5 5 6 6 5 5 5 5 5 6 5 6 8 9 12 14 17 17 21 32 35 32 25 30 54 68 85 100 100 100 100 99 79 75 61 90 90 91 100 100 100 100 100 100 100 100 100 100 100 100 100 100 100 100
5 6 5 4 4 4 4 5 5 5 5 5 6 8 9 9 11 15 19 19 17 15 19 36 42 47 50 55 73 64 55 55 60 64 78 83 87 86 100 100 100 100 100 100 100 100 100 100 100 100 100 100 100 98
7 5 5 4 4 4 4 4 4 5 5 6 7 7 7 8 10 13 14 14 14 19 32 36 37 46 52 48 53 54 41 47 65 66 62 81 100 78 97 100 100 100 100 98 99 100 100 100 100 100 100 100 98 87
7 6 5 4 4 4 4 4 4 4 4 5 5 5 6 7 9 10 10 11 13 18 22 22 22 24 26 36 66 47 58 54 47 57 72 79 72 73 92 100 98 89 84 54 72 100 97 96 93 91 93 95 91 84
8 6 5 4 4 3 4 4 4 4 5 5 5 5 5 6 8 8 8 8 10 13 15 16 16 21 36 77 67 55 41 38 44 50 65 51 48 79 92 97 94 88 80 77 79 89 81 77 81 76 85 89 76 86
6 5 5 4 4 5 4 4 5 4 4 4 4 4 5 5 5 5 6 8 10 11 13 15 18 26 27 22 22 28 39 42 42 42 49 40 48 64 84 90 86 85 91 91 71 75 81 72 62 61 66 77 76 75
5 5 5 5 6 6 6 6 6 7 7 5 5 5 5 4 4 5 8 10 10 11 12 14 16 17 16 14 18 19 22 21 22 25 42 34 43 72 80 69 76 87 89 83 71 70 73 58 63 67 63 57 46 51
4 5 6 6 6 6 6 8 9 7 7 7 6 5 4 4 5 8 9 9 9 9 9 10 11 10 9 10 14 16 16 17 19 28 32 35 60 61 48 58 70 66 66 71 81 76 51 42 50 60 50 33 28 24
5 5 6 6 6 7 8 8 8 9 10 9 8 6 5 6 8 9 7 6 6 6 6 8 8 8 8 11 12 13 15 18 21 24 34 43 41 37 48 55 50 34 40 60 61 46 30 37 51 41 22 20 17 16
5 7 9 9 9 9 10 11 12 12 10 8 6 4 5 6 9 10 9 6 5 5 6 6 6 6 7 10 12 13 14 15 19 26 30 29 26 27 32 33 30 43 56 52 43 28 25 25 24 18 15 15 13 12
12 10 8 8 9 10 12 10 9 6 5 5 5 6 7 10 10 7 7 6 6 6 6 6 6 7 9 9 10 11 14 16 18 17 18 21 23 22 22 23 29 34 33 30 24 20 19 17 16 14 15 12 11 10
6 6 6 7 9 9 7 6 5 4 4 5 4 5 8 8 8 8 7 7 7 6 5 6 7 7 8 9 10 11 11 12 12 13 16 19 18 18 19 23 26 24 21 19 16 15 17 17 13 13 10 9 11 15
5 6 6 7 6 5 4 4 4 4 4 4 5 6 7 6 6 6 6 6 5 6 7 6 6 7 7 8 9 9 10 11 12 14 14 15 15 16 15 16 16 16 14 14 15 16 16 15 11 9 10 11 15 18
4 5 6 5 5 5 4 3 3 3 4 4 6 5 5 5 7 8 5 5 5 5 5 5 5 5 6 6 7 8 9 10 11 12 13 12 13 13 13 13 13 12 12 13 14 14 12 10 8 10 12 15 14 13

GFSWCAN_250_rhum_102.txt.gz
RH
100 100 100 100 100 100 100 100 100 100 96 71 63 59 100 95 98 89 98 87 86 60 56 43 42 30 32 32 33 35 35 37 39 40 40 40 45 56 58 56 60 67 71 71 76 71 65 63 65 62 68 68 63 69
94 98 99 90 78 84 100 96 100 100 96 92 98 86 100 100 100 100 100 100 96 93 72 56 50 50 38 33 31 38 41 41 34 34 38 42 44 44 49 56 57 58 61 61 55 56 60 60 61 62 57 52 49 52
94 95 79 98 96 85 88 84 88 88 100 91 100 100 99 99 100 100 100 100 100 100 87 81 61 62 52 46 38 30 41 44 47 44 43 45 46 49 54 55 60 63 66 66 63 64 63 63 64 63 61 58 55 50
100 100 94 87 96 94 84 97 91 73 97 90 100 100 98 90 81 100 100 100 100 100 100 96 84 75 65 37 43 44 33 41 45 44 50 52 60 71 73 68 67 68 68 67 64 68 79 73 66 79 71 54 54 50
100 96 87 97 96 92 94 97 96 88 98 90 100 100 100 100 99 83 100 100 100 100 100 100 96 87 84 62 42 49 52 35 48 50 50 58 59 59 66 76 77 78 69 66 75 90 78 80 80 77 94 82 66 60
100 100 100 100 100 100 100 100 100 100 98 100 80 58 87 100 100 100 100 100 100 100 100 100 100 100 91 79 78 77 44 59 41 43 61 58 55 61 65 64 64 58 59 66 84 79 86 80 76 83 82 85 85 77
88 100 100 100 100 100 100 100 100 100 100 100 100 91 76 86 99 100 100 96 100 100 100 100 100 100 100 100 61 100 76 66 66 49 51 69 59 56 57 58 62 73 78 68 62 60 64 78 94 100 100 82 77 72
90 74 100 100 100 100 100 100 100 100 100 100 100 100 100 69 72 76 97 100 100 100 100 100 100 100 100 100 99 77 99 84 71 72 67 63 49 44 69 68 76 73 73 72 79 79 64 65 100 93 100 100 72 89
96 96 78 78 100 96 80 93 100 100 100 100 100 100 100 100 79 71 66 91 100 100 100 100 100 100 100 100 100 98 84 92 83 81 65 69 56 51 86 92 90 91 88 94 86 92 90 76 84 97 100 100 100 82
91 99 100 100 100 100 100 100 100 100 100 100 100 100 98 99 89 74 50 64 91 93 100 100 100 90 100 100 100 100 100 100 79 88 58 82 63 82 100 100 98 100 99 100 97 97 95 82 82 95 92 97 100 100
99 100 94 100 100 100 100 100 100 89 70 78 87 91 93 97 98 99 98 58 84 98 100 100 100 100 88 88 95 100 100 100 100 76 85 97 81 100 100 100 100 100 100 100 100 100 100 100 100 100 100 100 100 100
100 89 100 100 100 100 100 100 100 100 100 100 100 100 100 79 75 71 75 100 98 85 96 100 100 100 100 99 94 100 97 84 99 100 91 100 73 90 100 100 100 100 100 95 95 96 100 100 100 100 95 98 100 100
81 99 100 100 100 100 100 100 100 100 100 100 100 99 91 94 75 93 97 89 100 100 97 78 77 100 100 100 100 100 100 99 85 79 100 89 51 52 96 96 100 100 100 99 80 76 99 100 100 100 100 100 100 100
68 74 86 80 62 75 91 99 100 100 100 100 100 100 100 99 100 100 100 100 99 97 89 81 84 73 75 100 100 92 100 100 100 100 100 80 86 100 100 81 47 86 100 88 82 79 93 100 100 100 100 100 100 100
43 42 46 47 39 40 45 54 48 60 68 80 74 73 66 65 91 89 92 100 100 100 88 70 58 52 56 58 90 100 99 100 100 100 100 80 78 72 84 95 91 68 74 83 63 66 90 98 100 100 100 100 100 100
59 42 52 58 58 64 66 69 47 42 44 42 47 50 68 56 65 73 61 73 73 71 92 86 78 65 54 35 37 80 100 100 100 100 100 100 98 83 66 67 82 99 86 57 48 72 92 100 90 100 100 100 100 100
31 27 34 51 66 65 50 45 33 23 29 31 35 33 45 44 46 27 33 36 38 46 46 51 54 62 44 35 45 35 85 100 100 92 100 98 83 100 100 99 80 69 81 69 58 72 87 86 88 100 96 100 100 100
15 16 17 27 31 27 14 13 14 16 20 22 18 18 21 21 21 17 17 23 24 25 32 35 37 34 27 26 64 100 100 82 86 59 82 84 91 100 100 100 100 100 78 70 77 76 70 98 100 100 100 100 100 99
9 9 9 8 7 7 8 9 9 9 9 9 9 9 10 12 12 13 16 17 18 20 23 24 21 30 32 26 60 87 83 68 61 59 49 53 80 88 98 100 100 100 100 100 100 97 97 99 100 100 91 99 98 100
6 6 7 6 6 6 5 5 5 6 6 6 6 6 8 9 9 10 12 12 12 13 14 16 18 20 23 23 26 46 32 25 42 50 56 61 78 90 90 99 100 100 100 100 100 100 100 100 100 100 100 93 91 95
6 8 7 6 6 5 5 4 4 4 5 5 5 5 6 6 6 6 6 7 8 9 10 11 14 15 17 20 35 34 22 21 23 31 54 78 89 72 87 94 100 100 100 100 100 100 100 100 100 100 100 95 84 91
9 8 8 7 6 6 5 4 5 5 4 5 5 5 5 5 6 6 5 5 5 6 7 8 9 12 13 15 18 18 16 17 24 31 43 54 64 76 80 91 100 100 100 100 100 100 100 100 100 100 97 95 93 89
9 9 8 7 6 5 6 6 5 5 4 4 4 4 5 5 5 4 4 5 6 7 7 7 8 10 11 12 13 15 18 18 19 27 32 30 30 39 54 76 100 100 100 93 94 100 100 100 100 100 95 80 82 83
9 8 7 7 6 7 7 7 6 6 5 5 5 5 5 5 4 4 4 5 7 7 7 7 8 8 9 11 12 11 11 10 15 19 19 18 21 34 66 73 61 61 66 65 89 100 100 100 100 97 72 63 75 76
6 6 6 7 7 8 8 8 7 7 6 8 7 6 5 4 4 4 5 7 8 8 8 7 8 8 7 6 7 10 11 11 12 15 15 16 22 29 35 36 37 39 58 87 99 100 100 99 95 79 56 58 58 56
6 6 6 6 6 6 7 7 8 10 9 7 6 7 6 4 3 5 9 13 10 7 6 6 5 5 5 7 8 9 10 9 11 12 13 13 15 19 22 28 49 90 76 59 69 89 94 79 63 48 57 56 47 36
6 6 5 5 6 7 7 8 8 9 10 8 8 6 4 4 5 10 14 13 8 5 5 4 5 5 5 5 6 7 7 7 8 8 10 12 13 15 23 38 38 29 46 71 87 78 42 43 46 53 46 34 28 29
6 6 6 8 7 8 9 8 8 8 9 9 8 7 6 6 9 10 8 9 5 5 5 5 5 5 5 5 5 6 6 6 7 9 10 11 13 18 19 17 19 33 37 34 30 26 28 40 50 46 29 23 22 22
7 9 8 9 8 7 7 8 8 8 8 6 5 4 4 5 6 6 7 7 6 6 6 5 4 4 5 5 5 6 6 6 7 8 8 10 12 12 13 14 18 20 22 22 22 29 36 39 33 24 21 19 19 19
5 4 5 5 5 6 8 7 6 4 3 3 3 3 4 5 6 5 7 8 8 8 8 7 6 5 5 4 4 5 5 5 6 7 8 9 10 11 12 14 15 17 18 19 20 23 25 24 20 19 17 17 16 14
5 4 4 4 4 4 4 4 3 3 3 3 3 4 6 6 5 7 9 9 9 9 8 8 6 5 6 5 4 4 5 5 6 6 7 8 9 11 13 15 18 18 17 17 19 19 18 17 15 15 15 13 13 11
3 3 4 4 4 3 3 3 3 3 4 4 4 5 6 6 8 10 11 12 9 8 5 4 5 6 6 6 4 5 5 5 6 6 7 8 9 11 13 14 14 14 15 15 15 14 14 14 15 14 12 11 10 9
3 3 4 4 4 3 3 3 3 4 4 5 6 6 7 9 13 15 10 6 5 6 7 7 6 6 5 5 4 4 5 6 6 6 7 8 9 9 10 11 12 12 13 14 13 12 12 12 11 11 11 9 9 10

GFSWCAN_250_rhum_105.txt.gz
RH
100 100 100 94 94 100 100 97 100 81 100 86 88 76 100 100 100 100 100 91 90 98 91 82 71 59 44 38 29 24 33 35 39 37 36 34 39 43 48 50 50 49 46 46 46 51 53 51 53 53 51 51 52 52
100 100 100 100 100 96 100 95 89 92 60 60 82 83 82 73 94 100 100 100 99 95 100 100 97 82 69 52 41 36 28 25 25 47 48 45 44 42 50 58 62 68 63 62 63 63 60 60 56 65 65 66 62 64
100 100 98 99 100 99 96 100 100 96 86 70 76 77 78 60 60 66 83 100 100 100 100 100 100 100 97 78 69 60 42 41 31 26 38 48 50 56 59 61 61 69 67 66 75 73 78 76 87 71 81 78 65 60
100 100 100 100 100 100 100 100 99 100 100 81 82 98 100 94 79 70 57 76 98 100 96 100 100 100 100 100 94 81 80 54 46 50 32 35 41 48 52 67 67 81 95 85 77 78 80 86 90 100 100 100 100 79
100 100 100 100 100 100 100 100 100 100 100 99 84 100 94 97 88 91 83 54 64 62 67 96 100 100 100 100 100 100 95 90 62 54 49 54 42 39 55 68 65 80 100 100 95 92 100 93 88 100 100 98 97 100
100 100 100 100 100 100 100 100 100 100 100 100 100 100 100 100 100 100 95 91 52 51 53 53 63 74 99 100 100 100 100 100 100 77 67 53 72 59 41 58 87 86 72 71 83 87 96 100 100 99 92 97 89 86
100 100 100 100 100 100 100 100 100 100 100 100 100 100 100 100 100 99 100 100 69 85 70 59 66 48 48 64 89 100 100 100 100 100 91 78 62 59 56 44 77 57 66 80 77 77 77 76 93 99 100 100 100 100
97 100 94 96 100 100 100 100 100 100 100 100 100 100 100 100 100 100 100 100 100 91 83 100 100 100 76 54 44 59 94 100 100 100 100 100 98 71 58 64 60 94 95 75 68 99 86 86 92 98 100 100 91 100
100 97 84 90 95 100 100 100 90 100 100 100 100 100 100 100 100 100 100 100 100 100 100 100 100 84 100 97 90 76 53 83 89 100 100 100 100 100 85 63 67 69 100 100 97 77 67 72 92 99 98 100 100 99
100 100 100 100 82 86 97 100 100 98 98 100 86 92 100 100 100 100 100 100 100 100 100 100 100 100 99 94 86 82 79 62 45 61 91 100 100 100 100 100 100 86 93 95 100 100 100 100 94 74 74 72 89 100
96 100 100 100 100 100 86 81 97 88 88 98 88 72 61 59 93 100 96 100 100 100 100 100 100 100 98 86 91 81 73 77 62 65 95 100 100 100 100 100 100 100 93 62 86 57 56 83 96 97 97 98 65 76
98 90 92 100 100 100 100 100 100 100 100 100 98 93 83 58 54 52 78 95 100 100 100 100 100 100 100 100 91 77 62 73 64 44 53 93 100 94 100 98 76 93 100 100 99 94 100 100 89 66 62 94 94 76
100 100 100 100 100 100 99 96 98 100 100 100 100 100 100 100 100 100 100 94 88 100 100 100 100 100 100 99 84 70 57 64 68 69 44 74 60 77 82 85 100 76 59 89 100 100 100 98 93 97 100 99 98 86
78 90 100 100 100 100 100 89 91 92 92 100 100 100 100 100 100 100 100 100 100 100 86 86 85 74 81 92 100 100 86 74 51 57 92 84 62 38 48 64 78 100 100 66 65 100 99 92 100 100 90 97 99 100
66 58 80 98 90 100 100 100 88 63 52 70 76 89 98 100 100 100 100 100 100 100 100 100 100 100 100 94 85 82 87 91 87 73 75 68 56 42 39 41 56 71 99 100 100 100 100 100 100 100 100 100 100 100
50 41 52 70 57 66 64 72 82 78 60 44 49 67 86 81 76 69 67 73 88 73 70 74 74 85 70 70 75 77 77 75 83 63 52 42 42 40 42 43 53 86 97 100 100 75 86 100 100 100 100 100 100 100
58 62 60 47 46 42 44 44 44 50 46 50 45 46 52 59 65 57 50 53 54 48 40 40 42 46 39 35 44 49 47 72 72 60 51 38 37 41 34 25 31 53 67 83 100 100 87 86 76 92 100 100 100 100
50 37 42 34 32 31 43 44 36 27 28 31 31 36 35 37 36 34 32 29 30 32 32 31 31 28 21 26 33 39 50 50 47 47 42 27 27 30 36 38 44 62 53 53 99 98 100 79 100 100 100 100 100 100
18 13 15 14 16 17 18 20 22 17 19 18 15 17 16 24 25 22 22 20 18 19 21 22 20 13 14 21 33 31 28 29 34 34 27 21 20 24 31 42 43 52 58 50 71 95 100 100 100 96 94 100 100 100
9 8 9 10 9 9 9 10 10 10 11 12 10 10 11 12 12 14 12 12 13 12 11 9 11 12 11 13 16 16 15 15 16 17 16 17 17 16 22 28 37 47 51 38 47 97 98 99 96 83 72 82 100 100
9 10 9 7 7 6 6 6 6 6 6 7 7 7 7 6 6 7 6 6 5 5 6 7 8 9 8 7 8 8 10 11 10 9 12 13 14 13 15 22 26 22 24 25 41 86 79 81 98 100 100 100 100 100
10 9 8 7 6 5 6 6 6 6 5 6 6 5 5 6 6 6 5 4 4 5 6 6 6 6 6 6 6 7 8 8 8 6 7 8 11 11 12 15 16 17 19 28 41 36 28 47 69 72 85 100 100 100
8 8 7 6 6 6 7 6 6 6 5 5 5 5 6 7 8 7 5 5 6 9 8 6 6 6 5 5 5 5 6 6 6 6 7 8 10 11 10 11 12 12 15 25 23 21 25 32 44 84 97 79 78 97
7 6 6 6 6 6 6 6 6 5 6 6 6 8 9 9 8 6 6 8 11 11 8 6 5 4 4 4 5 5 5 4 4 5 6 6 7 8 9 11 12 12 13 15 18 22 24 45 73 58 43 66 93 92
7 6 6 5 6 6 6 6 6 7 7 7 7 7 8 8 7 6 9 12 13 12 8 4 3 3 4 5 5 5 5 4 5 5 6 6 7 7 8 10 12 13 13 14 16 23 36 33 27 23 34 40 45 60
7 6 5 6 7 7 7 7 7 8 8 8 8 9 10 8 7 7 11 15 13 9 6 4 4 3 4 5 5 4 5 4 4 5 6 7 7 8 9 10 10 10 11 12 18 23 23 17 17 22 35 48 56 63
6 6 7 8 8 8 8 8 8 7 7 7 8 8 7 6 6 10 13 11 9 6 4 4 4 4 5 4 4 4 4 4 4 4 5 6 6 6 7 9 10 10 13 16 17 15 13 14 18 29 44 48 33 27
7 7 8 10 8 7 7 7 7 6 8 8 7 6 5 5 7 9 7 7 6 6 5 5 4 4 4 4 4 4 4 4 4 4 4 5 6 6 8 9 10 11 13 14 12 12 14 16 21 34 32 21 20 23
7 8 7 7 7 6 6 7 7 8 6 4 4 4 4 5 6 7 6 5 5 6 6 5 5 4 4 4 4 4 4 4 4 4 4 5 5 6 6 7 8 9 10 11 11 13 17 23 24 21 17 16 17 16
6 5 5 6 6 7 8 6 6 4 3 3 3 3 4 6 6 5 5 6 7 8 7 5 5 4 4 4 4 4 4 5 4 4 5 5 6 6 6 8 9 9 10 11 12 13 16 17 16 15 14 15 15 15
4 3 4 5 5 6 4 3 3 3 3 4 4 4 6 6 5 6 6 7 8 7 6 6 4 3 4 5 5 6 6 5 5 5 5 6 6 6 6 8 8 8 10 11 12 12 13 13 13 14 15 15 14 14
5 5 5 5 4 3 3 3 3 4 4 5 6 7 8 8 8 8 7 7 7 8 6 4 4 6 6 7 6 6 7 6 5 6 5 6 6 5 6 6 7 8 8 10 12 12 12 12 13 14 13 13 13 13
6 7 7 6 5 4 4 4 4 4 5 5 5 5 6 8 12 9 6 7 6 5 5 6 7 7 6 7 7 6 7 6 5 6 6 6 5 5 6 7 7 7 7 7 8 9 10 11 12 12 12 12 12 11

GFSWCAN_250_rhum_108.txt.gz
RH
100 100 100 100 100 88 100 94 100 100 94 75 88 78 63 73 54 49 50 86 94 100 100 100 100 100 97 88 71 68 60 48 37 34 38 46 52 59 62 62 69 70 74 71 72 71 76 83 97 100 100 100 100 100
99 100 100 100 96 100 100 98 100 99 100 100 89 67 60 84 80 54 44 34 46 49 58 64 72 100 100 100 92 87 81 72 60 52 44 36 41 52 59 65 70 87 100 99 99 100 100 96 89 83 99 85 91 86
100 100 100 100 100 95 100 100 97 100 95 100 100 100 79 60 68 92 60 39 32 49 40 42 49 58 87 100 100 100 100 91 93 90 73 62 49 37 48 58 62 69 84 65 61 66 89 91 88 91 89 72 79 77
100 100 100 100 100 100 79 92 100 100 100 100 100 100 100 100 97 88 100 99 79 39 41 34 32 33 43 62 87 88 92 100 100 100 100 94 81 70 56 40 54 83 63 63 70 75 80 74 73 70 70 88 89 97
93 100 100 100 100 100 100 87 90 94 100 100 100 100 100 100 100 100 100 100 100 100 92 64 48 32 26 34 46 55 45 43 53 79 98 100 100 100 95 82 66 46 35 57 75 66 58 78 69 61 65 63 74 88
100 100 100 91 96 100 100 100 100 93 84 100 100 100 100 100 100 100 100 100 100 100 100 100 100 81 62 46 42 67 60 48 42 42 71 66 79 100 100 100 100 94 76 54 38 74 100 100 100 100 92 89 90 87
100 100 100 100 92 97 100 100 100 100 100 100 100 88 100 100 100 100 100 100 92 95 100 100 100 100 100 95 83 93 79 74 68 62 49 53 54 66 98 82 98 100 100 100 93 50 49 64 79 100 100 100 100 100
100 100 100 100 100 100 100 100 100 100 100 100 100 100 100 100 100 100 100 100 100 99 100 100 100 100 100 100 100 98 96 100 100 94 76 58 53 51 41 62 68 87 100 100 100 100 100 87 59 66 72 66 97 100
73 100 100 100 100 100 100 100 97 91 87 100 100 100 100 100 100 100 100 98 100 100 100 100 100 100 100 100 100 97 100 100 100 100 100 98 98 87 65 45 38 46 60 83 100 100 100 100 100 100 90 81 96 100
100 100 100 100 100 100 100 100 100 92 72 70 98 100 100 100 100 99 88 100 100 100 100 100 100 100 100 100 100 100 100 100 100 100 100 100 100 100 87 73 56 49 38 42 64 76 85 88 94 100 100 100 100 100
84 97 100 100 100 100 100 100 100 100 100 89 73 72 81 97 96 97 99 100 95 85 99 100 97 99 90 91 100 100 100 100 100 100 100 100 100 100 100 86 58 41 51 61 55 39 50 52 68 86 92 95 88 95
83 92 100 100 100 100 100 100 100 99 74 100 100 82 85 67 90 90 78 94 98 98 100 96 97 98 96 92 74 69 78 98 100 100 100 100 100 100 100 100 88 64 50 46 52 56 46 42 58 51 56 81 96 100
68 73 83 78 93 100 100 100 100 94 100 100 100 100 73 89 98 100 100 100 100 100 100 100 100 96 90 90 81 82 86 85 77 99 100 100 99 100 87 69 76 87 83 79 68 62 60 52 50 69 74 75 97 100
93 69 47 45 65 91 100 100 100 98 100 100 100 98 100 98 100 100 100 100 100 100 100 100 100 100 100 92 84 82 81 76 75 80 77 79 77 68 75 95 96 87 74 76 69 64 62 69 59 54 65 83 85 100
93 65 65 73 71 55 66 88 100 100 100 100 98 93 85 96 100 100 100 100 100 100 100 98 100 95 78 77 74 75 82 96 93 100 98 81 80 73 66 72 72 60 53 52 49 51 57 52 54 59 67 82 72 93
62 64 74 62 63 68 59 61 85 96 98 91 100 97 95 93 90 100 100 100 99 87 93 100 100 90 89 76 62 61 65 74 95 100 100 91 68 58 48 45 43 46 38 38 45 51 44 52 54 64 67 79 74 89
45 46 43 52 52 56 63 58 52 61 68 58 76 89 71 78 88 82 82 78 99 77 73 69 61 62 60 53 70 79 68 63 60 55 42 40 42 39 34 30 27 25 27 29 24 33 38 49 49 45 42 72 70 63
37 35 41 36 40 47 44 44 36 29 27 40 50 59 56 48 53 42 39 65 63 65 71 55 45 44 45 52 67 66 56 54 47 39 34 23 18 24 26 21 19 24 33 20 19 33 42 43 37 30 34 59 76 65
18 20 22 25 26 26 17 18 15 17 25 35 32 35 32 35 34 44 36 40 43 37 33 21 17 21 33 39 37 33 28 22 17 22 22 16 16 18 17 17 16 22 21 14 23 26 29 30 28 24 33 41 44 53
11 11 11 10 9 9 9 10 10 9 12 15 17 20 24 34 46 49 39 29 27 26 24 20 23 27 17 19 26 16 13 10 9 9 12 14 9 7 8 12 12 10 9 10 14 16 18 18 18 19 22 24 29 55
10 11 10 10 9 8 8 8 8 8 9 10 12 16 18 21 20 20 15 11 12 11 10 13 13 11 9 10 10 9 8 7 6 6 6 6 6 6 8 10 9 7 7 8 10 12 14 16 17 18 18 24 34 39
10 10 9 8 7 7 6 7 8 8 7 8 8 8 8 7 8 8 8 7 7 7 8 8 7 7 6 6 6 5 5 5 5 5 5 5 5 6 7 6 6 6 7 9 9 10 10 12 13 16 20 23 29 33
9 8 8 8 7 6 5 6 6 7 7 7 7 6 7 8 8 8 6 6 7 9 8 6 7 6 5 5 5 4 4 5 6 5 5 5 4 5 6 6 5 5 6 6 6 7 9 11 13 14 15 24 30 34
10 9 8 6 6 6 6 6 7 8 7 7 8 7 7 7 7 6 6 7 9 9 8 6 5 4 4 4 4 5 7 6 5 5 5 4 4 4 4 5 6 5 5 6 6 7 8 9 11 15 18 17 18 18
10 10 8 8 8 8 8 8 10 11 11 11 6 6 6 6 6 5 5 9 11 10 7 5 3 3 3 5 7 8 8 6 4 5 6 4 4 5 5 5 6 6 6 6 6 7 7 9 11 13 15 15 16 17
9 10 10 10 9 9 9 10 10 10 8 8 8 8 8 6 4 5 8 10 10 8 5 3 3 3 5 7 8 7 7 6 5 6 5 4 4 4 5 6 5 5 6 6 7 7 8 9 10 12 14 15 15 17
8 9 10 10 10 9 9 10 10 8 9 9 10 8 6 4 4 6 8 8 7 7 5 5 5 6 7 8 8 8 8 7 6 6 5 4 4 4 5 6 6 5 6 6 8 8 8 8 10 12 13 14 15 24
8 8 9 9 8 8 8 9 8 8 10 10 8 5 4 4 6 7 7 7 6 6 6 6 6 7 6 6 7 8 8 6 5 5 5 5 4 5 5 5 6 6 6 6 8 8 9 9 10 11 12 15 21 19
8 8 8 9 8 7 7 7 7 8 8 5 4 5 5 7 9 8 8 5 5 5 6 7 7 6 6 7 8 7 6 6 5 6 6 6 5 5 5 5 6 6 6 6 7 8 8 9 10 11 13 14 14 11
8 6 6 7 6 6 8 6 6 5 4 4 4 5 6 8 5 4 6 6 7 7 8 8 7 5 6 7 6 6 7 7 7 8 8 7 6 5 5 5 5 6 6 7 7 7 8 9 10 10 10 10 10 10
6 4 4 4 5 6 6 5 5 5 4 4 4 5 6 5 5 6 7 7 7 6 7 7 6 5 5 5 6 7 9 9 9 8 8 7 6 5 5 6 6 5 6 6 7 7 7 7 8 8 9 9 9 11
4 4 4 4 5 5 5 4 4 5 5 5 6 6 7 8 10 8 6 6 5 6 5 4 4 5 5 6 7 9 10 8 8 7 7 7 6 6 6 6 6 6 6 6 6 6 7 7 7 7 7 8 9 10
6 5 6 7 6 5 4 4 4 4 4 4 4 4 6 8 9 7 4 5 4 3 4 4 5 5 5 7 7 6 6 6 5 6 6 6 6 7 7 7 6 6 6 6 6 6 6 6 6 6 7 8 9 9

GFSWCAN_250_rhum_111.txt.gz
RH
87 100 100 100 100 100 100 91 100 100 100 100 100 100 96 76 64 58 74 64 42 29 24 32 35 35 37 62 87 89 96 92 93 93 88 87 81 63 52 48 46 50 61 66 66 61 63 70 70 67 71 80 83 87
86 100 99 89 100 100 96 92 68 100 100 100 100 100 100 100 91 72 59 76 90 66 47 34 21 24 30 27 36 49 66 71 83 88 95 90 82 94 88 80 67 59 51 48 46 71 70 58 56 63 60 63 69 67
58 89 96 100 100 100 100 100 94 100 100 100 100 100 100 100 100 100 99 90 100 100 100 94 77 43 28 28 26 29 33 74 61 49 54 53 60 85 70 63 81 100 86 78 71 64 55 59 92 100 100 95 87 97
48 53 62 87 100 100 100 100 99 99 100 100 100 100 100 100 100 100 100 100 100 100 100 100 100 100 90 97 74 52 38 32 33 29 40 42 59 82 64 57 45 78 99 100 100 97 94 95 76 70 78 100 100 96
48 44 50 57 63 98 100 100 100 98 84 72 66 94 100 100 100 100 99 100 100 100 100 100 100 100 100 100 100 100 93 78 70 59 40 41 55 75 68 53 46 72 51 55 75 91 100 100 100 100 100 96 98 89
71 65 62 45 42 53 87 100 100 100 100 100 100 100 88 85 100 100 100 100 100 91 100 100 100 100 90 81 100 100 100 100 100 100 100 85 47 75 90 64 71 49 45 46 45 42 41 51 78 92 98 100 100 100
63 75 90 77 53 42 70 95 100 100 100 100 100 100 100 100 96 87 96 78 74 100 100 100 100 100 100 95 99 99 88 100 100 100 100 100 100 93 100 100 100 92 90 80 66 69 62 46 40 41 54 64 75 74
61 80 91 62 79 53 60 83 100 100 94 98 100 100 100 100 100 100 100 100 100 100 100 100 100 100 98 99 100 92 95 100 100 100 100 100 100 100 100 97 100 100 100 100 100 94 85 75 60 51 44 43 47 52
75 60 74 97 73 62 57 59 85 100 100 100 98 100 100 100 100 100 100 100 100 100 100 100 100 100 100 100 100 100 100 100 100 100 100 100 100 100 100 100 100 94 100 100 100 99 92 82 76 74 70 51 49 55
90 72 75 92 100 82 74 61 53 91 100 100 100 100 100 100 99 100 100 100 100 100 100 100 100 100 100 100 100 100 100 100 100 100 100 100 100 100 100 100 100 100 100 100 100 100 99 98 88 75 55 60 68 74
90 98 100 89 93 89 73 68 81 66 81 93 100 100 100 100 100 100 100 100 100 100 100 99 100 99 98 100 100 100 100 98 98 100 100 100 100 100 100 93 78 97 95 95 94 92 89 91 87 57 54 57 74 71
89 84 91 97 87 84 57 57 63 76 88 91 86 99 100 100 100 100 100 92 96 92 87 83 70 72 96 99 90 77 68 74 91 100 100 100 100 100 100 100 91 82 70 68 71 81 84 88 82 59 60 56 71 74
92 96 100 84 78 85 78 58 51 57 71 84 100 94 100 100 100 100 100 100 100 95 75 72 69 69 80 80 70 72 90 83 75 84 100 100 100 100 100 100 100 84 70 71 77 81 84 71 60 60 62 62 75 63
100 100 100 100 76 58 69 52 47 52 61 58 66 70 92 100 97 100 100 100 100 100 99 83 79 73 66 71 82 72 62 60 83 100 98 94 100 100 100 85 64 64 60 52 48 53 59 55 60 59 55 60 60 62
100 100 100 92 60 50 66 59 42 46 51 63 66 62 87 96 95 95 91 86 89 94 100 100 92 85 77 74 74 70 63 66 96 100 100 100 94 86 75 68 65 69 73 70 68 58 51 58 64 52 52 55 48 50
100 100 100 99 86 73 78 74 55 46 55 56 58 65 91 100 91 76 76 79 59 55 76 87 88 89 73 56 52 62 64 84 99 92 89 81 75 52 30 31 53 71 77 76 61 53 46 41 35 36 44 37 31 38
29 34 29 48 63 66 59 62 50 39 39 46 74 78 68 73 88 63 46 64 83 74 56 48 53 52 40 43 99 100 100 94 84 64 47 32 20 17 17 20 27 31 36 40 35 30 31 24 22 15 26 23 20 22
22 29 28 34 59 76 72 57 44 32 34 32 49 54 59 72 68 70 55 50 55 59 51 37 27 25 26 47 92 82 65 57 48 33 18 15 16 14 15 19 24 26 23 26 24 23 24 16 13 18 16 12 20 23
14 15 21 32 29 29 33 20 19 24 28 37 35 39 49 57 58 53 42 40 37 42 40 25 20 30 46 48 44 28 23 20 19 15 11 13 18 18 21 23 20 14 15 17 13 18 12 10 9 11 8 10 13 12
14 14 13 12 11 11 11 10 12 14 17 23 26 29 32 33 31 29 22 22 24 24 27 30 33 30 23 23 19 14 13 12 10 9 16 23 21 11 11 12 12 9 8 8 7 6 6 6 7 7 8 10 12 10
14 15 14 12 10 10 9 9 10 11 12 13 12 10 12 12 13 15 16 15 16 17 17 14 11 10 9 10 9 8 10 11 10 10 14 16 9 8 8 7 6 6 6 6 5 5 5 5 6 6 8 9 9 10
17 16 15 13 12 11 9 8 8 9 9 8 9 10 10 10 10 11 10 8 8 9 9 8 8 8 8 7 6 5 6 7 6 7 7 6 7 8 8 7 6 6 5 5 6 5 6 5 6 6 6 8 9 10
14 16 15 14 12 10 9 10 8 8 9 11 12 11 11 12 10 10 6 7 8 10 9 8 9 8 6 6 5 5 6 6 6 6 6 6 6 7 7 7 6 5 6 7 6 6 5 5 5 6 6 7 7 8
9 10 12 13 12 12 11 8 8 9 10 11 12 11 9 8 7 6 5 7 9 10 10 9 6 5 5 4 5 6 6 6 5 6 6 6 7 6 6 8 8 7 8 8 6 5 5 5 5 6 6 6 7 7
7 7 8 10 12 14 14 14 14 13 13 13 8 7 8 9 7 7 7 11 14 13 10 7 6 4 4 5 6 6 7 7 6 5 6 6 8 9 10 8 8 9 7 7 6 5 5 5 6 6 6 6 7 8
6 7 8 11 12 12 12 13 14 14 9 7 8 8 8 8 8 8 12 14 12 11 11 9 5 4 5 5 6 6 6 5 5 5 6 9 8 8 10 9 9 7 6 7 6 5 5 5 5 6 6 6 7 7
7 10 13 13 12 11 10 10 10 8 9 10 12 10 8 7 8 10 11 10 9 9 9 8 5 4 5 6 6 6 6 5 6 6 7 8 8 8 8 9 10 8 6 6 6 6 5 5 5 6 6 6 6 7
10 10 10 10 8 8 7 6 7 8 9 9 8 7 6 7 8 8 7 8 7 8 8 6 5 5 5 6 5 6 7 7 8 7 8 9 8 8 9 10 9 8 6 6 6 5 5 5 6 6 6 7 8 8
6 6 5 6 6 6 6 8 8 8 8 6 5 6 6 7 7 8 8 6 5 5 6 6 5 4 4 5 6 6 6 6 6 7 8 10 10 10 9 8 7 7 6 6 6 5 5 5 6 6 6 7 7 7
6 5 6 7 7 8 9 6 6 6 5 5 5 6 6 8 8 6 7 7 6 6 5 5 6 6 5 5 6 5 5 5 6 7 9 10 11 8 7 7 7 6 6 5 5 5 5 5 6 6 6 6 6 7
6 5 6 7 8 8 7 6 6 7 7 6 6 7 8 6 6 6 5 5 4 4 4 5 5 4 3 4 5 5 6 6 6 8 9 9 8 7 5 5 6 5 5 5 5 5 5 5 5 5 5 6 6 7
5 5 5 6 6 5 6 6 7 7 5 5 4 4 6 7 7 4 4 4 5 4 4 4 4 4 4 5 6 6 7 6 6 7 6 6 6 5 4 4 5 5 5 5 5 6 6 5 5 5 5 6 6 7
6 5 5 5 4 4 4 5 4 4 4 4 4 4 4 4 4 3 3 4 4 5 5 5 6 6 5 6 6 6 6 5 5 5 4 4 5 4 5 5 5 5 5 5 6 6 5 6 6 5 5 5 6 7

GFSWCAN_250_rhum_114.txt.gz
RH
32 43 65 93 97 87 93 97 100 100 100 51 92 100 100 100 96 99 99 90 77 78 96 81 89 62 36 35 33 27 27 29 34 28 32 36 44 43 37 44 51 52 53 67 72 72 68 77 75 67 77 77 90 91
29 36 62 92 100 100 100 100 100 92 100 98 90 77 100 100 99 100 100 100 100 84 79 100 99 94 93 67 75 62 59 65 47 38 40 33 31 33 31 47 56 59 54 60 65 91 83 92 98 100 100 99 100 99
26 31 50 56 92 88 95 100 100 100 100 94 79 79 88 100 100 100 100 100 100 100 100 97 92 100 100 100 100 97 100 100 100 95 88 88 76 64 47 32 29 38 46 47 46 51 53 46 51 49 72 76 76 74
41 27 25 52 44 45 76 79 89 99 100 100 100 93 93 100 100 100 100 100 100 100 100 99 99 90 100 100 100 100 86 96 100 100 100 100 100 99 89 90 68 47 35 44 41 55 51 42 60 63 60 48 47 61
42 35 29 35 36 38 46 52 56 79 89 100 100 100 100 100 100 100 63 100 100 100 100 100 97 91 95 97 100 100 100 99 91 100 100 100 100 100 100 100 100 97 98 90 80 88 93 88 91 68 70 68 74 70
54 48 37 36 38 41 41 46 48 57 63 70 68 96 100 100 89 70 71 94 100 100 100 100 100 100 100 100 100 100 100 100 100 100 100 100 79 100 100 100 100 100 100 95 100 100 100 100 100 100 99 92 83 86
72 61 46 49 60 51 49 48 48 51 50 53 57 69 86 100 100 100 100 90 78 98 100 100 100 100 97 100 100 100 100 100 100 100 100 99 82 81 100 100 100 100 100 100 100 100 100 100 100 100 100 100 100 99
99 94 71 95 70 73 63 58 68 67 55 60 62 62 59 78 100 100 100 100 100 100 100 100 100 100 100 100 100 100 100 100 100 100 100 100 100 100 100 100 100 100 100 100 100 100 100 100 100 100 100 88 68 66
100 89 100 91 95 86 90 100 100 100 87 60 61 67 58 65 72 91 100 100 100 100 100 100 100 100 100 100 100 100 100 100 100 100 100 100 100 100 100 100 100 100 100 100 100 100 93 100 100 100 90 72 84 100
100 100 79 84 83 66 67 84 92 88 100 98 74 71 69 75 72 66 73 94 100 100 100 100 100 100 100 100 100 100 100 100 100 100 100 100 100 100 100 100 100 100 100 100 100 100 100 100 100 100 95 94 100 100
100 100 100 100 96 72 83 97 92 90 100 100 83 82 73 77 86 79 76 80 98 100 100 100 100 100 100 100 99 84 84 97 99 100 100 100 100 100 100 100 98 94 92 73 67 64 66 77 95 100 100 100 100 89
100 100 96 97 97 92 78 97 98 77 86 100 86 86 72 82 74 77 79 81 76 92 97 100 100 100 100 100 100 100 92 88 87 91 100 100 100 100 100 100 100 89 65 59 69 76 94 100 100 99 100 83 87 98
98 100 100 98 100 100 99 99 88 88 82 90 98 90 72 77 80 66 82 77 52 59 79 80 75 76 92 100 100 100 100 100 100 100 97 95 94 100 98 95 65 69 71 76 78 76 76 61 56 55 62 64 63 70
69 82 87 82 83 85 99 99 97 91 77 82 100 100 99 68 74 82 76 62 47 40 50 56 68 66 68 64 84 87 98 100 100 100 100 100 100 84 60 41 39 46 45 56 62 55 55 52 53 51 52 43 38 40
51 78 77 68 71 78 88 87 78 80 84 69 85 90 84 74 87 84 86 76 50 40 38 43 56 65 70 55 51 65 90 100 100 100 100 97 74 60 44 37 31 46 57 62 61 50 42 41 44 53 32 30 32 28
84 90 87 96 99 98 100 100 88 84 61 42 51 74 78 97 97 78 74 70 47 34 42 48 44 50 58 54 65 70 89 100 100 99 85 67 41 24 21 21 17 22 29 36 50 46 41 46 30 29 27 26 27 30
77 88 100 100 100 99 100 100 100 82 40 55 79 100 100 100 100 98 47 52 68 61 38 34 34 37 34 40 57 82 100 100 73 40 27 27 32 32 24 21 22 31 33 29 38 36 30 31 23 25 24 18 14 16
33 36 36 32 32 35 37 39 33 32 44 58 98 100 100 100 100 100 46 26 32 30 29 29 28 21 24 34 48 52 43 33 22 16 15 20 21 22 25 22 27 26 25 25 20 26 24 21 18 16 11 9 9 10
25 25 26 26 25 23 25 23 22 22 35 44 61 99 100 100 100 53 24 25 25 27 25 24 18 23 46 38 27 24 24 20 16 15 16 20 22 22 22 25 26 21 14 10 10 12 14 16 15 9 7 7 7 7
16 16 16 16 15 16 16 15 14 14 15 20 22 17 16 16 16 17 18 22 27 17 13 16 24 20 16 16 17 15 14 13 10 10 16 19 15 13 16 24 27 15 9 8 10 11 10 10 9 7 7 7 6 6
17 18 16 15 14 14 13 13 13 15 15 13 15 15 14 14 14 15 16 16 11 9 11 14 12 11 11 13 14 11 8 8 8 8 10 10 9 9 9 9 9 9 8 7 7 7 6 6 6 7 7 6 5 6
16 16 15 14 13 13 13 14 14 15 14 16 16 15 14 15 17 18 17 13 10 12 13 12 10 10 12 9 7 6 6 6 6 7 8 8 8 9 9 9 9 9 9 8 7 6 6 6 6 7 7 6 6 6
17 16 15 14 13 12 12 13 13 14 14 16 17 16 18 19 20 20 14 13 13 16 12 9 10 9 6 6 6 5 5 6 7 7 7 7 7 7 8 8 10 9 10 9 7 6 6 6 6 7 7 8 6 6
13 14 14 13 12 13 13 14 15 14 13 15 17 17 16 18 17 14 12 14 16 15 14 10 7 6 6 4 4 5 7 7 7 7 7 7 7 7 7 8 9 9 8 8 7 7 6 6 6 7 7 7 5 5
9 9 8 8 10 10 11 11 12 12 14 15 14 13 14 12 12 12 10 12 18 14 10 8 7 6 6 6 6 7 8 8 8 7 8 8 8 8 9 9 8 6 6 6 7 7 7 8 8 7 6 5 5 5
7 7 6 8 9 10 11 11 11 10 10 11 11 12 13 11 9 7 12 13 10 10 11 10 10 10 9 7 6 8 8 8 7 8 8 8 6 7 8 9 6 6 6 7 7 8 8 8 9 8 6 5 5 5
7 8 10 12 14 12 9 8 8 8 8 9 11 11 10 8 8 11 10 10 10 10 10 9 8 8 8 8 6 7 8 9 8 8 8 6 5 6 6 5 6 6 6 6 7 8 8 8 8 7 5 5 5 5
9 10 11 9 6 6 6 6 7 8 8 8 8 8 8 8 9 9 10 11 9 7 6 6 6 6 6 6 6 6 8 8 6 5 6 6 6 6 5 4 5 6 6 6 7 8 8 8 7 6 5 4 5 5
6 5 5 5 4 5 6 7 7 7 7 5 5 6 6 7 8 8 6 5 5 5 5 5 5 5 6 6 6 6 6 6 6 5 5 6 6 6 4 5 7 6 6 6 7 7 7 7 6 5 4 4 5 5
4 3 5 7 6 6 6 4 5 4 4 5 5 6 7 7 5 5 6 6 5 5 5 6 6 6 5 5 6 6 6 5 5 5 5 6 7 5 5 6 6 6 7 7 6 7 6 5 5 4 4 5 5 5
6 5 6 6 6 5 4 4 5 6 5 4 4 5 7 7 7 5 4 4 4 5 6 6 6 6 5 5 5 6 6 5 6 6 6 7 6 5 5 5 6 6 6 6 6 6 6 5 5 4 4 4 5 5
4 4 5 6 6 5 5 6 6 5 5 6 5 6 5 6 6 4 4 5 6 6 6 5 5 4 3 4 3 4 5 4 4 5 5 6 5 5 5 5 6 6 6 6 6 6 5 5 5 5 4 4 5 5
6 6 6 5 4 4 4 5 5 4 5 5 5 5 4 4 4 4 4 5 5 4 4 3 3 3 2 2 2 2 2 3 3 4 4 4 4 5 5 5 6 5 6 6 6 6 5 5 6 5 4 5 5 5

GFSWCAN_250_rhum_117.txt.gz
RH
100 88 46 37 56 45 44 100 93 64 96 93 67 86 88 60 96 71 100 100 92 99 100 100 82 100 95 100 95 89 84 82 89 95 94 92 89 72 65 53 49 40 32 42 44 36 40 36 43 45 48 52 49 48
100 100 79 58 37 60 47 74 91 89 100 100 100 100 100 99 98 92 74 100 100 100 91 89 100 100 97 70 98 100 100 100 97 85 93 94 95 96 98 79 76 80 66 62 49 44 55 53 52 61 66 63 62 63
100 100 100 83 60 36 50 63 86 82 89 100 100 98 97 91 100 100 100 87 100 100 100 97 100 100 100 100 93 77 100 100 100 100 97 87 100 100 100 100 98 95 97 97 100 81 84 83 97 95 92 97 86 80
94 97 92 85 84 52 42 49 52 75 84 92 100 100 100 78 76 100 100 100 79 99 100 97 100 100 100 100 100 100 94 99 100 100 100 100 98 94 100 100 100 99 100 100 100 100 100 100 100 100 100 100 100 100
77 70 67 64 71 63 58 45 35 41 62 62 66 84 100 100 100 100 100 100 100 100 100 100 92 93 100 97 99 87 100 100 100 100 100 100 100 100 100 100 82 70 94 100 100 100 100 100 100 100 100 100 100 100
75 82 65 62 56 60 60 45 44 46 44 49 52 60 73 77 91 83 100 100 100 100 100 100 85 56 88 100 100 100 100 100 100 100 100 100 100 100 100 100 100 90 100 92 96 100 100 100 100 100 100 100 100 100
86 70 78 66 75 76 63 67 56 64 54 51 45 47 59 68 73 73 75 98 99 100 100 100 100 100 100 100 84 74 97 97 96 68 94 100 100 100 100 100 100 100 100 100 100 99 100 100 100 100 100 100 100 100
93 100 92 77 66 98 95 87 87 71 64 55 54 55 60 61 66 75 74 76 74 65 82 95 100 100 100 100 100 100 100 100 100 100 100 100 100 100 100 100 100 100 100 100 100 100 100 100 100 100 100 100 100 95
100 100 100 83 72 80 97 100 92 98 90 74 75 70 73 79 60 60 89 88 74 65 67 70 76 85 98 100 100 100 100 100 100 100 100 100 100 100 100 100 100 100 100 100 92 93 93 94 100 100 100 99 94 89
100 94 100 100 73 66 99 100 100 100 100 98 71 71 75 88 70 77 75 93 100 67 60 67 64 73 81 78 94 100 100 100 100 100 100 100 100 100 100 100 100 100 93 76 86 90 94 88 78 72 86 96 96 90
100 92 88 98 86 78 70 75 100 100 100 100 100 79 100 100 88 77 70 71 89 90 94 99 88 80 95 81 75 78 81 90 98 100 100 100 100 100 100 100 100 87 85 95 90 89 94 97 99 96 88 84 88 87
100 100 97 93 99 96 94 100 100 90 99 94 100 100 100 100 98 97 98 100 98 83 79 85 83 76 80 96 86 76 80 71 74 82 99 100 100 100 100 100 70 88 100 100 100 100 100 100 100 100 99 89 88 92
98 100 100 86 83 97 100 91 100 93 94 85 93 100 100 100 100 100 100 100 100 100 100 100 96 77 76 78 92 85 72 64 69 76 78 88 84 89 80 69 80 94 99 100 100 100 100 88 83 86 89 74 67 52
93 97 95 83 76 91 91 97 100 100 92 79 85 84 98 100 100 100 92 98 100 100 98 80 86 84 74 72 88 63 57 50 50 55 64 70 71 59 51 45 51 62 61 69 90 96 93 83 72 61 41 32 25 25
77 77 90 100 96 81 79 82 86 85 85 85 94 88 94 99 96 82 89 88 81 86 87 83 88 80 84 72 61 60 60 67 93 100 62 32 35 39 42 49 47 48 49 49 56 54 49 53 47 38 37 32 27 24
45 53 62 91 84 80 77 87 90 81 83 81 78 86 87 97 93 83 77 75 68 66 62 66 64 57 50 44 48 52 60 99 100 61 40 25 21 22 27 32 35 39 36 39 53 50 44 39 32 27 31 26 20 20
27 42 45 61 75 76 76 71 55 62 74 73 77 64 62 63 53 61 61 54 56 50 40 32 24 20 21 26 42 75 90 56 37 28 23 17 17 19 20 20 21 21 24 26 27 31 29 25 23 24 21 21 19 17
31 31 34 39 40 43 40 38 40 45 48 50 40 35 37 37 39 48 44 48 51 35 26 22 19 18 18 21 46 43 24 20 16 15 14 12 13 14 15 16 16 17 18 20 21 22 19 16 13 13 12 13 13 9
30 29 28 28 28 27 24 22 24 29 29 30 30 29 31 34 30 28 34 32 29 26 20 17 16 20 27 23 19 18 16 11 9 8 8 10 11 12 14 14 12 12 14 16 16 13 10 9 9 8 8 8 8 8
26 27 26 26 27 28 28 27 26 24 27 25 27 30 27 28 27 26 28 28 26 19 15 15 16 16 14 12 11 11 11 10 8 8 10 12 11 11 10 10 11 12 12 10 10 10 9 9 8 7 7 7 7 7
19 20 20 21 21 22 22 21 22 21 20 20 22 19 18 18 18 19 20 20 14 13 14 15 16 14 11 10 11 10 8 8 8 9 9 10 11 10 11 11 12 12 11 11 11 9 8 8 7 7 7 6 6 6
16 15 15 15 14 14 14 13 13 13 13 14 16 15 14 17 18 19 20 17 15 15 16 15 13 12 12 12 10 9 9 9 9 10 10 9 10 11 11 12 11 11 10 10 9 8 8 7 6 6 6 5 6 6
13 11 10 10 11 11 12 14 13 15 15 18 19 18 18 19 20 20 17 15 16 17 14 13 12 12 10 9 10 10 10 10 11 11 11 11 11 9 8 9 9 9 9 9 8 8 6 6 6 5 5 5 5 6
12 11 10 9 9 10 11 13 15 16 15 16 15 14 15 16 16 15 14 15 15 14 12 12 11 10 9 9 9 9 10 10 9 10 10 9 9 8 8 8 7 8 9 8 8 7 6 6 6 5 5 5 6 6
14 12 11 12 13 14 15 16 16 16 16 16 13 12 12 12 11 10 11 14 17 18 17 15 13 11 8 8 7 7 7 8 9 8 8 8 7 7 8 7 8 9 8 8 8 8 8 7 6 5 5 6 6 6
7 8 9 10 13 15 16 15 17 16 12 9 8 8 8 7 8 9 11 12 14 15 15 14 10 7 5 5 5 5 6 7 5 6 8 9 8 8 8 8 9 10 8 8 8 8 7 6 6 6 6 6 6 7
6 6 7 8 9 11 11 10 8 6 6 6 6 7 7 8 9 10 11 11 12 11 8 5 4 4 5 5 5 6 6 8 8 8 8 9 9 8 7 7 8 8 8 8 7 7 6 6 6 6 6 6 7 8
8 10 12 14 12 11 8 6 6 6 7 8 7 7 8 8 9 9 9 8 7 7 7 7 6 5 5 6 7 7 8 8 9 8 7 7 8 7 6 6 6 7 7 7 6 6 6 6 6 6 6 6 7 8
9 10 8 6 5 4 4 5 6 7 6 5 5 6 6 6 7 7 7 6 6 6 6 6 6 7 7 7 7 7 7 7 6 6 5 5 5 5 4 4 5 6 6 5 5 5 5 6 6 6 7 7 7 8
5 3 3 3 4 5 6 5 5 4 4 4 5 5 6 6 5 5 5 5 6 5 6 6 7 7 7 6 6 6 5 5 5 4 4 4 4 4 4 4 4 4 4 4 4 5 5 6 6 7 7 7 8 7
3 4 4 4 4 3 3 4 4 5 5 4 4 5 5 5 4 4 4 4 5 7 7 6 5 5 5 5 4 4 4 3 3 4 4 4 3 3 3 4 4 5 4 4 5 5 6 6 6 7 7 8 8 7
4 4 4 4 4 4 4 5 5 5 5 5 4 4 4 6 5 4 4 5 5 5 4 5 5 4 3 3 2 2 3 2 3 4 4 4 4 4 4 4 5 5 4 4 5 6 6 6 7 7 8 8 7 5
5 5 5 5 4 4 4 5 5 5 5 4 4 4 5 5 5 3 3 3 4 5 5 4 3 3 2 3 3 4 4 5 5 6 6 6 5 5 5 5 4 4 4 5 5 6 7 7 7 7 7 7 6 5

GFSWCAN_250_rhum_120.txt.gz
RH
100 100 100 100 100 100 74 59 72 62 51 37 89 84 84 70 89 100 100 97 78 80 100 92 55 42 100 100 100 100 90 96 100 98 100 100 97 81 70 87 87 84 74 59 68 80 72 74 82 81 75 80 87 85
100 100 100 100 100 100 97 88 87 95 68 61 55 88 99 86 94 100 100 100 100 62 69 100 100 99 58 74 78 100 100 100 90 96 99 100 100 100 100 100 97 100 99 90 90 83 94 90 100 100 100 100 100 100
100 100 96 100 100 100 100 100 99 93 82 68 69 83 100 100 99 98 85 96 100 100 80 64 91 100 100 84 85 93 97 100 100 97 100 100 100 100 100 100 100 100 100 100 99 100 100 76 72 100 100 100 100 100
100 100 100 100 100 99 100 100 100 100 97 75 77 78 76 78 100 100 100 100 86 100 100 100 88 48 100 100 94 84 88 99 100 87 78 89 100 100 100 100 100 100 100 100 100 100 100 97 95 73 81 89 100 100
61 93 94 96 100 99 100 100 100 100 100 76 60 61 57 75 74 79 96 100 100 100 100 100 97 91 100 100 100 100 85 56 75 100 100 100 100 100 100 100 100 100 100 100 100 100 100 100 96 87 98 88 81 98
80 85 82 92 79 76 85 100 100 100 100 100 71 55 50 46 49 70 69 80 100 100 94 100 100 100 100 100 100 100 98 100 100 100 100 100 100 100 100 100 100 100 100 100 100 100 100 100 100 100 100 97 100 100
64 70 79 88 93 95 90 100 100 98 97 96 98 86 66 52 50 49 60 68 68 79 85 88 88 99 98 99 100 100 100 100 100 85 75 100 100 90 96 88 100 100 100 100 94 95 100 99 100 100 100 100 100 100
72 65 76 85 92 100 95 96 100 100 100 98 86 74 82 74 70 74 80 78 78 62 66 78 82 80 80 77 72 76 82 83 90 84 88 100 100 100 100 100 100 100 92 96 100 100 100 100 100 100 100 100 100 100
100 83 68 64 92 100 91 78 100 100 100 100 100 99 97 95 90 79 89 100 86 73 74 81 85 77 68 71 66 65 70 68 67 78 76 70 72 84 100 100 100 100 100 100 98 92 91 95 99 100 100 100 100 99
100 100 99 91 88 89 100 100 100 100 100 100 100 100 100 100 100 100 100 99 100 100 99 86 78 78 91 83 85 84 72 71 61 60 79 89 84 82 71 71 69 73 80 90 99 100 100 100 98 96 82 77 86 91
100 100 96 94 96 86 88 99 100 100 100 91 100 100 100 100 100 100 100 100 100 100 100 100 100 100 100 100 96 88 81 82 93 99 100 100 100 100 94 71 62 61 74 90 72 78 97 100 100 100 100 93 90 84
100 100 100 100 97 89 97 100 100 100 100 95 83 100 100 100 100 100 100 100 100 100 100 100 100 100 100 100 100 100 100 100 96 89 100 100 100 100 70 66 66 61 61 68 83 74 74 70 60 65 66 69 72 75
100 100 100 100 98 99 95 93 99 97 95 88 99 97 100 100 100 100 98 100 100 100 100 100 100 100 100 100 100 100 100 100 100 100 100 100 100 79 57 62 65 64 63 61 56 58 58 56 52 50 56 52 48 46
100 100 100 100 100 100 100 100 96 100 100 90 70 90 92 81 99 98 100 90 89 100 100 100 100 100 91 100 100 100 100 100 100 100 100 88 66 68 76 72 67 62 54 54 49 55 50 48 52 39 30 32 37 35
100 89 91 95 100 100 100 100 100 100 95 88 95 93 85 89 76 75 74 85 85 100 100 100 100 99 93 84 79 80 77 83 86 97 67 64 65 63 64 62 53 44 41 43 45 48 40 38 36 30 23 20 20 18
98 100 100 100 98 91 88 77 63 68 81 93 84 89 92 91 82 75 67 59 68 79 75 76 73 73 69 76 78 74 78 82 72 48 47 48 50 50 35 32 31 25 26 32 35 30 24 22 20 17 15 15 15 17
91 96 100 100 100 100 100 93 82 88 78 74 76 86 87 69 72 63 64 74 59 54 58 61 55 52 53 60 80 70 61 59 46 41 40 45 37 27 21 18 17 16 16 15 19 15 15 13 12 11 11 11 10 10
30 39 63 97 83 55 51 42 53 85 95 91 94 87 75 67 60 52 50 54 52 57 57 56 46 38 42 50 59 41 26 28 30 26 28 29 20 16 16 14 13 11 11 10 10 10 10 9 9 9 8 8 8 8
25 26 27 28 28 29 32 43 57 74 72 68 62 58 46 39 25 26 29 36 39 32 26 26 26 28 30 27 24 21 20 20 19 18 17 16 14 13 12 11 12 11 12 12 12 12 10 10 10 9 9 8 8 8
22 22 22 24 25 28 35 42 47 60 66 53 36 24 24 25 22 23 22 21 20 21 22 20 21 20 19 18 17 17 18 16 14 12 12 11 9 9 11 12 12 13 12 12 12 11 10 11 10 9 7 6 6 6
19 20 20 20 21 20 21 23 24 25 24 23 23 21 21 22 22 21 20 17 16 16 17 18 16 14 13 12 12 11 10 8 8 9 8 9 12 13 14 13 13 12 12 12 12 13 13 13 12 9 7 6 5 6
19 18 18 17 17 18 17 18 18 18 18 19 19 19 19 20 20 20 18 18 16 15 12 10 9 9 9 9 9 10 10 10 10 9 8 9 10 10 11 13 13 13 12 13 12 12 13 13 10 8 6 6 5 6
21 20 20 19 17 16 16 16 15 17 16 16 15 14 16 16 16 16 14 13 11 11 10 9 10 10 10 11 11 10 10 9 8 8 8 8 9 10 10 10 11 11 13 14 12 12 13 11 8 6 6 6 6 6
18 19 19 17 16 15 15 14 15 14 15 15 15 14 14 14 12 10 9 9 11 13 12 12 11 11 11 10 9 9 9 8 8 9 8 7 8 10 10 11 13 12 12 11 11 10 10 9 8 8 8 7 7 7
19 17 15 14 16 16 16 15 15 15 15 13 11 11 12 11 10 8 8 10 11 12 12 12 12 11 9 8 8 8 8 7 6 5 6 7 8 8 10 9 9 9 7 7 7 7 6 6 7 7 8 8 7 8
16 14 13 13 15 17 17 16 18 18 17 15 14 14 13 11 9 8 12 15 16 16 16 14 12 11 10 8 7 7 6 6 5 5 6 6 6 7 8 8 9 9 5 5 6 6 6 7 7 7 7 7 8 8
11 9 9 14 17 17 15 15 16 18 16 16 16 16 12 9 9 12 14 14 12 10 9 8 8 7 6 6 6 6 5 5 4 5 5 6 7 7 7 7 8 7 4 4 5 6 7 7 7 7 7 7 7 7
7 7 8 10 10 9 8 9 10 10 11 12 10 9 7 7 8 8 7 6 6 6 6 7 8 7 6 6 6 5 5 4 5 5 5 6 6 5 5 4 5 6 6 6 6 6 6 6 6 6 6 6 6 6
9 10 9 9 9 9 9 10 10 11 9 7 6 7 8 8 8 7 7 7 6 6 7 6 6 5 5 5 5 5 5 5 5 5 5 5 4 4 3 4 5 5 5 5 5 5 6 6 5 5 6 6 5 6
6 6 6 6 5 5 6 5 5 6 6 7 5 5 6 7 6 5 4 4 4 5 5 4 4 4 4 4 4 4 4 4 4 5 5 4 4 4 4 4 6 6 6 6 5 6 6 6 4 4 5 5 5 6
4 3 3 3 4 4 4 4 4 3 4 5 4 4 4 4 4 4 4 4 5 4 4 4 3 3 3 4 4 4 4 3 4 4 5 5 5 5 4 5 6 6 6 6 5 5 6 5 5 5 4 5 6 7
4 4 5 6 6 4 2 3 4 4 3 3 4 4 4 4 4 3 3 4 4 4 3 4 4 4 4 4 4 4 4 5 4 5 5 4 4 5 4 4 4 5 5 5 4 5 6 6 5 5 6 6 7 7
4 3 3 3 4 3 3 4 4 4 4 5 5 5 5 5 5 4 3 4 4 5 5 5 5 5 5 5 5 4 5 5 4 4 4 3 4 4 4 4 4 4 4 4 4 5 6 6 6 6 6 6 7 7

GFSWCAN_250_rhum_123.txt.gz
RH
100 100 100 100 100 100 100 100 100 100 90 67 47 58 65 65 70 65 81 64 76 98 83 53 76 100 100 88 66 54 73 95 100 99 85 93 100 100 100 100 100 100 100 100 99 98 89 77 75 98 100 100 100 96
98 97 100 100 100 100 100 98 100 100 94 100 91 64 75 66 65 78 84 84 91 85 74 72 63 78 100 100 100 99 70 78 92 72 95 94 92 88 100 100 100 100 100 100 100 100 100 100 100 100 99 98 100 100
100 100 100 100 100 100 100 100 100 100 100 99 94 97 62 88 79 89 100 100 100 100 100 88 74 72 66 96 100 100 100 100 96 81 100 100 98 79 97 78 66 100 98 100 100 100 100 100 100 100 100 100 100 100
100 99 100 100 100 100 100 100 100 100 100 100 100 100 99 98 95 86 68 66 69 94 100 100 100 100 94 82 71 56 94 100 96 82 93 74 88 83 100 99 90 100 100 100 94 90 89 77 97 100 100 100 100 100
100 100 100 100 100 100 100 100 100 100 100 100 100 100 100 100 100 88 80 89 74 79 89 100 100 100 100 100 100 92 80 99 100 100 86 87 94 87 86 100 100 88 85 87 100 100 100 100 85 84 100 100 100 99
100 100 100 100 100 100 100 100 100 100 100 100 100 100 100 100 100 100 100 74 62 69 67 77 84 93 98 95 98 100 100 100 100 100 100 100 100 100 100 100 100 100 100 100 100 100 100 85 72 72 73 85 74 58
79 100 100 100 100 100 100 100 100 100 100 100 100 100 100 100 100 100 100 100 92 65 60 57 57 63 74 74 76 78 89 98 96 92 90 87 83 88 93 84 81 86 68 66 71 90 89 100 100 100 100 100 100 100
91 100 100 83 93 81 100 100 100 100 100 95 95 93 99 100 100 100 100 100 100 100 82 69 72 72 78 78 79 79 72 69 77 85 90 95 99 90 72 70 69 68 81 80 68 60 55 62 72 71 81 84 91 92
58 67 84 92 91 94 100 87 82 100 100 100 100 100 91 86 86 100 100 100 100 100 100 100 100 95 86 85 91 91 97 95 78 76 77 82 100 100 99 91 75 66 74 68 66 69 66 63 73 72 75 72 62 55
74 56 80 85 72 99 94 90 97 97 100 100 100 97 87 100 82 87 80 96 100 100 100 100 100 100 100 100 100 100 100 100 100 100 99 98 100 90 100 99 96 94 97 100 100 100 100 100 91 89 80 73 72 55
97 73 72 64 94 96 95 97 100 88 100 90 89 92 83 89 83 86 69 85 93 100 100 100 100 100 100 100 100 100 100 100 100 100 100 100 100 100 99 98 92 89 93 100 100 100 100 100 97 87 69 60 59 56
100 100 100 100 100 100 100 100 100 100 100 100 100 100 94 84 73 80 91 87 99 95 100 100 100 100 100 100 100 100 100 100 100 100 100 100 100 100 91 89 97 100 99 99 100 100 98 99 94 67 62 62 60 63
100 100 100 100 100 100 100 100 100 100 100 100 100 100 100 100 90 69 77 92 90 93 94 96 100 100 100 100 100 100 100 100 100 100 100 100 100 100 100 100 100 100 100 88 75 65 59 62 68 57 57 60 55 49
74 97 100 100 100 100 100 100 100 100 100 100 100 100 100 100 86 89 77 76 72 73 85 90 90 97 100 100 100 100 100 100 100 100 100 92 93 93 84 80 77 83 91 81 66 60 62 60 50 46 48 49 39 32
26 52 92 100 100 100 87 88 88 83 100 100 100 100 94 86 90 71 71 78 78 75 78 82 78 83 77 70 71 74 79 86 91 85 78 75 74 75 73 74 75 77 72 63 63 51 40 33 35 35 30 32 31 23
25 25 26 50 98 84 56 64 69 92 98 92 97 96 90 95 97 94 77 71 67 64 69 73 66 73 80 79 77 91 96 100 81 70 67 68 65 63 64 61 62 59 50 48 42 38 30 21 20 21 21 22 23 16
26 26 28 29 43 95 98 61 44 63 71 73 89 100 93 86 79 76 72 73 78 80 84 74 70 62 58 67 79 91 90 74 64 54 49 40 44 46 46 48 38 33 30 27 24 24 22 19 16 17 16 17 13 12
26 26 27 28 27 28 44 95 100 86 75 55 61 94 99 96 95 90 76 69 59 58 58 54 54 57 73 66 66 63 59 50 44 37 36 30 29 31 28 25 23 21 21 21 19 17 14 14 14 13 12 11 12 12
24 25 25 25 26 29 36 52 74 78 81 65 68 71 68 64 64 59 53 61 63 56 62 70 67 66 68 52 44 38 38 33 23 22 22 22 22 22 21 20 19 20 18 17 17 15 12 11 10 10 11 12 11 11
23 23 24 26 26 27 28 28 29 38 71 95 92 79 68 64 62 63 61 56 51 47 51 51 51 49 50 49 37 24 22 25 22 21 21 21 21 19 18 18 16 15 14 13 11 10 10 11 12 12 11 10 9 10
26 25 24 24 25 25 25 25 27 27 28 30 31 33 33 31 30 30 26 26 25 24 25 24 23 22 21 20 21 21 22 22 21 18 17 17 16 16 14 12 11 10 11 12 12 12 12 12 11 10 9 9 8 9
30 28 24 22 21 20 23 24 26 26 26 26 25 25 25 25 24 22 21 20 20 20 19 18 17 17 17 18 18 17 16 14 13 12 12 11 10 9 9 9 10 10 10 11 10 10 10 9 9 9 9 9 8 8
31 30 29 26 23 20 21 20 20 20 20 20 21 21 22 22 20 18 17 17 16 17 15 14 13 12 11 11 10 10 10 9 8 8 8 7 8 8 7 7 8 8 8 9 9 9 9 10 10 9 9 8 7 7
28 28 28 26 24 25 24 22 19 19 19 19 19 19 19 18 16 16 15 15 17 15 13 12 11 10 9 8 7 7 8 7 7 7 7 8 7 7 7 8 9 9 9 7 7 7 8 9 9 8 6 6 6 6
24 25 24 23 24 26 26 26 24 23 22 21 19 17 17 16 15 13 14 17 20 17 16 14 11 9 7 7 8 8 8 8 7 6 9 8 6 7 8 7 6 6 6 6 7 7 8 8 8 6 5 6 6 6
17 17 19 21 22 22 22 22 24 24 22 19 17 17 16 15 15 15 20 22 21 21 20 14 12 11 11 10 10 11 11 10 6 5 6 6 5 4 5 5 5 6 5 6 6 6 7 6 6 5 5 5 6 6
12 11 13 16 16 18 18 19 20 20 18 18 18 17 16 15 16 20 20 21 20 16 13 12 11 10 9 10 9 7 6 5 4 4 5 6 6 5 4 4 6 7 6 5 4 5 6 7 5 5 6 5 6 7
8 9 11 15 16 18 18 17 16 15 14 15 15 13 13 15 20 22 21 16 12 9 9 8 6 6 6 6 5 5 5 5 5 5 6 5 4 4 3 5 6 6 5 4 4 5 5 6 5 5 5 5 5 7
10 10 11 12 13 12 11 12 12 12 13 12 11 12 14 17 17 11 7 6 6 7 7 7 8 7 6 5 4 4 4 4 4 4 4 4 4 4 3 4 5 5 5 4 3 4 5 5 4 4 4 4 5 6
10 10 8 8 8 8 9 9 10 11 10 11 13 14 12 11 8 7 7 8 7 6 6 6 4 4 3 4 4 4 4 4 4 4 4 4 4 3 3 4 4 5 4 3 3 3 4 4 4 3 4 4 5 5
7 8 8 8 7 8 9 10 10 12 14 14 10 8 8 7 9 8 5 4 4 4 4 4 3 3 4 4 4 4 4 3 4 4 4 5 4 4 5 5 4 4 4 3 3 4 4 4 3 4 3 4 4 4
4 4 4 4 5 5 6 6 6 6 6 6 5 4 4 4 5 4 3 4 4 4 3 4 4 4 4 4 4 4 4 4 4 5 5 4 4 3 3 4 4 4 3 3 4 4 4 4 4 4 4 4 4 4
5 5 5 5 4 3 3 4 5 4 3 3 3 3 3 4 4 3 4 3 3 4 4 4 4 4 4 4 4 4 4 4 4 4 4 3 3 3 3 3 3 3 3 4 4 4 4 5 4 4 4 4 4 5